[[{"header":{"parameterUnit":"m.s-1","parameterCategory":1,"la1":31.0,"la2":29.5877,"lo1":-88.7671,"lo2":-86.6584,"dy":0.0162,"dx":0.0185,"nx":115,"ny":88,"refTime":"2024-06-21T06:00:00:Z","depth":0,"parameterNumber":2,"parameterNumberName":"U-component_of_WINDS"},"data":[0.0,0.0,0.0,0.0,0.0,0.0,0.0,0.0,0.0,0.0,0.0,0.0,0.0,0.0,0.0,0.0,0.0,0.0,0.0,0.0,0.0,0.0,0.0,0.0,0.0,0.0,0.0,0.0,0.0,0.0,0.0,0.0,0.0,0.0,0.0,0.0,0.0,0.0,0.0,0.0,0.0,0.0,0.0,0.0,0.0,0.0,0.0,0.0,0.0,0.0,0.0,0.0,0.0,0.0,0.0,0.0,0.0,0.0,0.0,0.0,0.0,0.0,0.0,0.0,0.0,0.0,0.0,0.0,0.0,0.0,0.0,0.0,0.0,0.0,0.0,0.0,0.0,0.0,0.0,0.0,0.0,0.0,0.0,0.0,0.0,0.0,0.0,0.0,0.0,0.0,0.0,0.0,0.0,0.0,0.0,0.0,0.0,0.0,0.0,0.0,0.0,0.0,0.0,0.0,0.0,0.0,0.0,0.0,0.0,0.0,0.0,0.0,0.0,0.0,0.0,0.0,0.0,0.0,0.0,0.0,0.0,0.0,0.0,0.0,0.0,0.0,0.0,0.0,0.0,0.0,0.0,0.0,0.0,0.0,0.0,0.0,0.0,0.0,0.0,0.0,0.0,0.0,0.0,0.0,0.0,0.0,0.0,0.0,0.0,0.0,0.0,0.0,0.0,0.0,0.0,0.0,0.0,0.0,0.0,0.0,0.0,0.0,0.0,0.0,0.0,0.0,0.0,0.0,0.0,0.0,0.0,0.0,0.0,0.0,0.0,0.0,0.0,0.0,0.0,0.0,0.0,0.0,0.0,0.0,0.0,0.0,0.0,0.0,0.0,0.0,0.0,0.0,0.0,0.0,0.0,0.0,0.0,0.0,0.0,0.0,0.0,0.0,0.0,0.0,0.0,0.0,0.0,0.0,0.0,0.0,0.0,0.0,0.0,0.0,0.0,0.0,0.0,0.0,0.0,0.0,0.0,0.0,0.0,0.0,0.0,0.0,0.0,0.0,0.0,0.0,0.0,0.0,0.0,0.0,0.0,0.0,0.0,0.0,0.0,0.0,0.0,0.0,0.0,0.0,0.0,0.0,0.0,0.0,0.0,0.0,0.0,0.0,0.0,0.0,0.0,0.0,0.0,0.0,0.0,0.0,0.0,0.0,0.0,0.0,0.0,0.0,0.0,0.0,0.0,0.0,0.0,0.0,0.0,0.0,0.0,0.0,0.0,0.0,0.0,0.0,0.0,0.0,0.0,0.0,0.0,0.0,0.0,0.0,0.0,0.0,0.0,0.0,0.0,0.0,0.0,0.0,0.0,0.0,0.0,0.0,0.0,0.0,0.0,0.0,0.0,0.0,0.0,0.0,0.0,0.0,0.0,0.0,0.0,0.0,0.0,0.0,0.0,0.0,0.0,0.0,0.0,0.0,0.0,0.0,0.0,0.0,0.0,0.0,0.0,0.0,0.0,0.0,0.0,0.0,0.0,0.0,0.0,0.0,0.0,0.0,0.0,0.0,0.0,0.0,0.0,0.0,0.0,0.0,0.0,0.0,0.0,0.0,0.0,0.0,0.0,0.0,0.0,0.0,0.0,0.0,0.0,0.0,0.0,0.0,0.0,0.0,0.0,0.0,0.0,0.0,0.0,0.0,0.0,0.0,0.0,0.0,0.0,0.0,0.0,0.0,0.0,0.0,0.0,0.0,0.0,0.0,0.0,0.0,0.0,0.0,0.0,0.0,0.0,0.0,0.0,0.0,0.0,0.0,0.0,0.0,0.0,0.0,0.0,0.0,0.0,0.0,0.0,0.0,0.0,0.0,0.0,0.0,0.0,0.0,0.0,0.0,0.0,0.0,0.0,0.0,0.0,0.0,0.0,0.0,0.0,0.0,0.0,0.0,0.0,0.0,0.0,0.0,0.0,0.0,0.0,0.0,0.0,0.0,0.0,0.0,0.0,0.0,0.0,0.0,0.0,0.0,0.0,0.0,0.0,0.0,0.0,0.0,0.0,0.0,0.0,0.0,0.0,0.0,0.0,0.0,0.0,0.0,0.0,0.0,0.0,0.0,0.0,0.0,0.0,0.0,0.0,0.0,0.0,0.0,0.0,0.0,0.0,0.0,0.0,0.0,0.0,0.0,0.0,0.0,0.0,0.0,0.0,0.0,0.0,0.0,0.0,0.0,0.0,0.0,0.0,0.0,0.0,0.0,0.0,0.0,0.0,0.0,0.0,0.0,0.0,0.0,0.0,0.0,0.0,0.0,0.0,0.0,0.0,0.0,0.0,0.0,0.0,0.0,0.0,0.0,0.0,0.0,0.0,0.0,0.0,0.0,0.0,0.0,0.0,0.0,0.0,0.0,0.0,0.0,0.0,0.0,0.0,0.0,0.0,0.0,0.0,0.0,0.0,0.0,0.0,0.0,0.0,0.0,0.0,0.0,0.0,0.0,0.0,0.0,0.0,0.0,0.0,0.0,0.0,0.0,0.0,0.0,0.0,0.0,0.0,0.0,0.0,0.0,0.0,0.0,0.0,0.0,0.0,0.0,0.0,0.0,0.0,0.0,0.0,0.0,0.0,0.0,0.0,0.0,0.0,0.0,0.0,0.0,0.0,0.0,0.0,0.0,0.0,0.0,0.0,0.0,0.0,0.0,0.0,0.0,0.0,0.0,0.0,0.0,0.0,0.0,0.0,0.0,0.0,0.0,0.0,0.0,0.0,0.0,0.0,0.0,0.0,0.0,0.0,0.0,0.0,0.0,0.0,0.0,0.0,0.0,0.0,0.0,0.0,0.0,0.0,0.0,0.0,0.0,0.0,0.0,0.0,0.0,0.0,0.0,0.0,0.0,0.0,0.0,0.0,0.0,0.0,0.0,0.0,0.0,0.0,0.0,0.0,0.0,0.0,0.0,0.0,0.0,0.0,0.0,0.0,0.0,0.0,0.0,0.0,0.0,0.0,0.0,0.0,0.0,0.0,0.0,0.0,0.0,0.0,0.0,0.0,0.0,0.0,0.0,0.0,0.0,0.0,0.0,0.0,0.0,0.0,0.0,0.0,0.0,0.0,0.0,0.0,0.0,0.0,0.0,0.0,0.0,0.0,0.0,0.0,0.0,0.0,0.0,0.0,0.0,0.0,0.0,0.0,0.0,0.0,0.0,0.0,0.0,0.0,0.0,0.0,0.0,0.0,0.0,0.0,0.0,0.0,0.0,0.0,0.0,0.0,0.0,0.0,0.0,0.0,0.0,0.0,0.0,0.0,0.0,0.0,0.0,0.0,0.0,0.0,0.0,0.0,0.0,0.0,0.0,0.0,0.0,0.0,0.0,0.0,0.0,0.0,0.0,0.0,0.0,0.0,0.0,0.0,0.0,0.0,0.0,0.0,0.0,0.0,0.0,0.0,0.0,0.0,0.0,0.0,0.0,0.0,0.0,0.0,0.0,0.0,0.0,0.0,0.0,0.0,0.0,0.0,0.0,0.0,0.0,0.0,0.0,0.0,0.0,0.0,0.0,0.0,0.0,0.0,0.0,0.0,0.0,0.0,0.0,0.0,0.0,0.0,0.0,0.0,0.0,0.0,0.0,0.0,0.0,0.0,0.0,0.0,0.0,0.0,0.0,0.0,0.0,0.0,0.0,0.0,0.0,0.0,0.0,0.0,0.0,0.0,0.0,0.0,0.0,0.0,0.0,0.0,0.0,0.0,0.0,0.0,0.0,0.0,0.0,0.0,0.0,0.0,0.0,0.0,0.0,0.0,0.0,0.0,0.0,0.0,0.0,0.0,0.0,0.0,0.0,0.0,0.0,0.0,0.0,0.0,0.0,0.0,0.0,0.0,0.0,0.0,0.0,0.0,0.0,0.0,0.0,0.0,0.0,0.0,0.0,0.0,0.0,0.0,0.0,0.0,0.0,0.0,0.0,0.0,0.0,0.0,0.0,0.0,0.0,0.0,0.0,0.0,0.0,0.0,0.0,0.0,0.0,0.0,0.0,0.0,0.0,0.0,0.0,0.0,0.0,0.0,0.0,0.0,0.0,0.0,0.0,0.0,0.0,0.0,0.0,0.0,0.0,0.0,0.0,0.0,0.0,0.0,0.0,0.0,0.0,0.0,0.0,0.0,0.0,0.0,0.0,0.0,0.0,0.0,0.0,0.0,0.0,0.0,0.0,0.0,0.0,0.0,0.0,0.0,0.0,0.0,0.0,0.0,0.0,0.0,0.0,0.0,0.0,0.0,0.0,0.0,0.0,0.0,0.0,0.0,0.0,-3.1827,0.0,0.0,0.0,-3.002,0.0,0.0,0.0,0.0,0.0,0.0,0.0,0.0,0.0,0.0,0.0,0.0,0.0,0.0,0.0,0.0,0.0,0.0,0.0,0.0,0.0,0.0,0.0,0.0,0.0,0.0,0.0,0.0,0.0,0.0,0.0,0.0,0.0,0.0,0.0,0.0,0.0,0.0,0.0,0.0,0.0,0.0,0.0,0.0,0.0,0.0,0.0,0.0,0.0,0.0,0.0,0.0,0.0,0.0,0.0,0.0,0.0,0.0,0.0,0.0,0.0,0.0,0.0,0.0,0.0,0.0,0.0,0.0,0.0,0.0,0.0,0.0,0.0,0.0,0.0,0.0,0.0,0.0,0.0,0.0,0.0,0.0,0.0,0.0,0.0,0.0,0.0,0.0,0.0,0.0,0.0,0.0,0.0,0.0,0.0,0.0,0.0,0.0,0.0,0.0,0.0,0.0,0.0,0.0,0.0,0.0,0.0,0.0,0.0,0.0,-3.3306,-3.3216,-3.2655,-3.2107,-3.1569,0.0,0.0,0.0,0.0,0.0,0.0,0.0,0.0,0.0,0.0,0.0,0.0,0.0,0.0,0.0,0.0,0.0,0.0,0.0,0.0,0.0,0.0,0.0,0.0,0.0,0.0,0.0,0.0,0.0,0.0,0.0,0.0,0.0,0.0,0.0,0.0,0.0,0.0,0.0,0.0,0.0,0.0,0.0,0.0,0.0,0.0,0.0,0.0,0.0,0.0,0.0,0.0,0.0,0.0,0.0,0.0,0.0,0.0,0.0,0.0,0.0,0.0,0.0,0.0,0.0,0.0,0.0,0.0,0.0,0.0,0.0,0.0,0.0,0.0,0.0,0.0,0.0,0.0,0.0,0.0,0.0,0.0,0.0,0.0,0.0,0.0,0.0,0.0,0.0,0.0,0.0,0.0,0.0,0.0,0.0,0.0,0.0,0.0,0.0,0.0,0.0,0.0,0.0,0.0,0.0,0.0,0.0,0.0,0.0,0.0,0.0,0.0,-3.4123,-3.3302,-3.263,0.0,0.0,0.0,0.0,0.0,0.0,0.0,0.0,0.0,0.0,0.0,0.0,0.0,0.0,0.0,0.0,0.0,0.0,0.0,0.0,0.0,0.0,0.0,0.0,0.0,0.0,0.0,0.0,0.0,0.0,0.0,0.0,0.0,0.0,0.0,0.0,0.0,0.0,0.0,0.0,0.0,0.0,0.0,0.0,0.0,0.0,0.0,0.0,0.0,0.0,0.0,0.0,0.0,0.0,0.0,0.0,0.0,0.0,0.0,0.0,0.0,0.0,0.0,0.0,0.0,0.0,0.0,0.0,0.0,0.0,0.0,0.0,0.0,0.0,0.0,0.0,0.0,0.0,0.0,0.0,0.0,0.0,0.0,0.0,0.0,0.0,0.0,0.0,0.0,0.0,0.0,0.0,0.0,0.0,0.0,0.0,0.0,0.0,0.0,0.0,0.0,0.0,0.0,0.0,0.0,0.0,0.0,0.0,0.0,0.0,-3.6281,-3.6908,-3.5967,0.0,-3.2606,0.0,0.0,0.0,0.0,0.0,0.0,0.0,0.0,0.0,0.0,0.0,0.0,0.0,0.0,0.0,0.0,0.0,0.0,0.0,0.0,0.0,0.0,0.0,0.0,0.0,0.0,0.0,0.0,0.0,0.0,0.0,0.0,0.0,0.0,0.0,0.0,0.0,0.0,0.0,0.0,0.0,0.0,0.0,0.0,0.0,0.0,0.0,0.0,0.0,0.0,0.0,0.0,0.0,0.0,0.0,0.0,0.0,0.0,0.0,0.0,0.0,0.0,0.0,0.0,0.0,0.0,0.0,0.0,0.0,0.0,0.0,0.0,0.0,0.0,0.0,0.0,0.0,0.0,0.0,0.0,0.0,0.0,0.0,0.0,0.0,0.0,0.0,0.0,0.0,0.0,0.0,0.0,0.0,0.0,0.0,0.0,0.0,0.0,0.0,0.0,0.0,0.0,0.0,0.0,0.0,0.0,0.0,0.0,0.0,0.0,-3.7009,-3.7308,-3.6273,-3.4995,0.0,0.0,0.0,0.0,0.0,0.0,0.0,0.0,0.0,0.0,0.0,0.0,0.0,0.0,0.0,0.0,0.0,0.0,0.0,0.0,0.0,0.0,0.0,0.0,0.0,0.0,0.0,0.0,0.0,0.0,0.0,0.0,0.0,0.0,0.0,0.0,0.0,0.0,0.0,0.0,0.0,0.0,0.0,0.0,0.0,0.0,0.0,0.0,0.0,0.0,0.0,0.0,0.0,0.0,0.0,0.0,0.0,0.0,0.0,0.0,0.0,0.0,0.0,0.0,0.0,0.0,0.0,0.0,0.0,0.0,0.0,0.0,0.0,0.0,0.0,0.0,0.0,0.0,0.0,0.0,0.0,0.0,0.0,0.0,0.0,0.0,0.0,0.0,0.0,0.0,0.0,0.0,0.0,0.0,0.0,0.0,0.0,0.0,0.0,0.0,0.0,0.0,0.0,0.0,0.0,0.0,0.0,0.0,0.0,0.0,-3.7566,-3.7742,-3.765,-3.6592,-3.5534,-3.4456,0.0,0.0,0.0,0.0,0.0,0.0,0.0,0.0,0.0,0.0,0.0,0.0,0.0,0.0,0.0,0.0,0.0,0.0,0.0,0.0,0.0,0.0,0.0,0.0,0.0,0.0,0.0,0.0,0.0,0.0,0.0,0.0,0.0,0.0,0.0,0.0,0.0,0.0,0.0,0.0,0.0,0.0,0.0,0.0,0.0,0.0,0.0,0.0,0.0,0.0,0.0,0.0,0.0,0.0,0.0,0.0,0.0,0.0,0.0,0.0,0.0,0.0,0.0,0.0,0.0,0.0,0.0,0.0,0.0,0.0,0.0,0.0,0.0,0.0,0.0,0.0,0.0,0.0,0.0,0.0,0.0,0.0,0.0,0.0,0.0,0.0,0.0,0.0,0.0,0.0,0.0,0.0,0.0,0.0,0.0,0.0,0.0,0.0,0.0,0.0,0.0,0.0,0.0,0.0,0.0,0.0,0.0,0.0,-3.883,-3.8766,-3.8616,-3.8354,-3.7377,-3.636,0.0,0.0,0.0,0.0,0.0,0.0,0.0,0.0,0.0,0.0,0.0,0.0,0.0,0.0,0.0,0.0,0.0,0.0,0.0,0.0,0.0,0.0,0.0,0.0,0.0,0.0,0.0,0.0,0.0,0.0,0.0,0.0,0.0,0.0,0.0,0.0,0.0,0.0,0.0,0.0,0.0,0.0,0.0,0.0,0.0,0.0,0.0,0.0,0.0,0.0,0.0,0.0,0.0,0.0,0.0,0.0,0.0,0.0,0.0,0.0,0.0,0.0,0.0,0.0,0.0,0.0,0.0,0.0,0.0,0.0,0.0,0.0,0.0,0.0,0.0,0.0,0.0,0.0,0.0,0.0,0.0,0.0,0.0,0.0,0.0,0.0,0.0,0.0,0.0,0.0,0.0,0.0,0.0,0.0,0.0,0.0,0.0,0.0,0.0,0.0,0.0,0.0,0.0,0.0,0.0,0.0,0.0,0.0,0.0,-3.9002,-3.9375,-3.9448,-3.9206,-3.8257,-3.7237,0.0,0.0,0.0,0.0,0.0,0.0,0.0,0.0,0.0,0.0,0.0,0.0,0.0,0.0,0.0,0.0,0.0,0.0,0.0,0.0,0.0,0.0,0.0,0.0,0.0,0.0,0.0,0.0,0.0,0.0,0.0,0.0,0.0,0.0,0.0,0.0,0.0,0.0,0.0,0.0,0.0,0.0,0.0,0.0,0.0,0.0,0.0,0.0,0.0,0.0,0.0,0.0,0.0,0.0,0.0,0.0,0.0,0.0,0.0,0.0,0.0,0.0,0.0,0.0,0.0,0.0,0.0,0.0,0.0,0.0,0.0,0.0,0.0,0.0,0.0,0.0,0.0,0.0,0.0,0.0,0.0,0.0,0.0,0.0,0.0,0.0,0.0,0.0,0.0,0.0,0.0,0.0,0.0,0.0,0.0,0.0,0.0,0.0,0.0,0.0,0.0,0.0,0.0,0.0,0.0,0.0,0.0,0.0,0.0,-3.9757,0.0,-4.0541,-4.0073,-3.9145,-3.8134,0.0,0.0,0.0,0.0,0.0,0.0,0.0,0.0,0.0,0.0,0.0,0.0,0.0,0.0,0.0,0.0,0.0,0.0,0.0,0.0,0.0,0.0,0.0,0.0,0.0,0.0,0.0,0.0,0.0,0.0,0.0,0.0,0.0,0.0,0.0,0.0,0.0,0.0,0.0,0.0,0.0,0.0,0.0,0.0,0.0,0.0,0.0,0.0,0.0,0.0,0.0,0.0,0.0,0.0,0.0,0.0,0.0,0.0,0.0,0.0,0.0,0.0,0.0,0.0,0.0,0.0,0.0,0.0,0.0,0.0,0.0,0.0,0.0,0.0,0.0,0.0,0.0,0.0,0.0,0.0,0.0,0.0,0.0,0.0,0.0,0.0,0.0,0.0,0.0,0.0,0.0,0.0,0.0,0.0,0.0,0.0,0.0,0.0,0.0,0.0,0.0,0.0,0.0,0.0,0.0,0.0,0.0,0.0,-4.0692,-4.1286,-4.1976,-4.1846,-4.0941,-3.9996,-3.8981,0.0,0.0,0.0,0.0,0.0,0.0,0.0,0.0,0.0,0.0,0.0,0.0,0.0,0.0,0.0,0.0,0.0,0.0,0.0,0.0,0.0,0.0,0.0,0.0,0.0,0.0,0.0,0.0,0.0,0.0,0.0,0.0,0.0,0.0,0.0,0.0,0.0,0.0,0.0,0.0,0.0,0.0,0.0,0.0,0.0,0.0,0.0,0.0,0.0,0.0,0.0,0.0,0.0,0.0,0.0,0.0,0.0,0.0,0.0,0.0,0.0,0.0,0.0,0.0,0.0,0.0,0.0,0.0,0.0,0.0,0.0,0.0,0.0,0.0,0.0,0.0,0.0,0.0,0.0,0.0,0.0,0.0,0.0,0.0,0.0,0.0,0.0,0.0,0.0,0.0,0.0,0.0,0.0,0.0,0.0,0.0,0.0,0.0,0.0,0.0,0.0,0.0,0.0,0.0,0.0,0.0,0.0,0.0,0.0,-4.2164,-4.2249,-4.2138,-4.1726,-4.0737,-3.9695,0.0,0.0,0.0,0.0,0.0,0.0,0.0,0.0,0.0,0.0,0.0,0.0,0.0,0.0,0.0,0.0,0.0,0.0,0.0,0.0,0.0,0.0,0.0,0.0,0.0,0.0,0.0,0.0,0.0,0.0,0.0,0.0,0.0,0.0,0.0,0.0,0.0,0.0,0.0,0.0,0.0,0.0,0.0,0.0,0.0,0.0,0.0,0.0,0.0,0.0,0.0,0.0,0.0,0.0,0.0,0.0,0.0,0.0,0.0,0.0,0.0,0.0,0.0,0.0,0.0,0.0,0.0,0.0,0.0,0.0,0.0,0.0,0.0,0.0,0.0,0.0,0.0,0.0,0.0,0.0,0.0,0.0,0.0,0.0,0.0,0.0,0.0,0.0,0.0,0.0,0.0,0.0,0.0,0.0,0.0,0.0,0.0,0.0,0.0,0.0,0.0,0.0,0.0,0.0,0.0,0.0,0.0,0.0,0.0,-4.4264,-4.3869,-4.3303,-4.2513,-4.1791,-4.0764,-3.9412,0.0,0.0,0.0,0.0,0.0,0.0,0.0,0.0,0.0,0.0,0.0,0.0,0.0,0.0,0.0,0.0,0.0,0.0,0.0,0.0,0.0,0.0,0.0,0.0,0.0,0.0,0.0,0.0,0.0,0.0,0.0,0.0,0.0,0.0,0.0,0.0,0.0,0.0,0.0,0.0,0.0,0.0,0.0,0.0,0.0,0.0,0.0,0.0,0.0,0.0,0.0,0.0,0.0,0.0,0.0,0.0,0.0,0.0,0.0,0.0,0.0,0.0,0.0,0.0,0.0,0.0,0.0,0.0,0.0,0.0,0.0,0.0,0.0,0.0,0.0,0.0,0.0,0.0,0.0,0.0,0.0,0.0,0.0,0.0,0.0,0.0,0.0,0.0,0.0,0.0,0.0,0.0,0.0,0.0,0.0,0.0,0.0,0.0,0.0,0.0,0.0,0.0,0.0,0.0,0.0,0.0,0.0,0.0,-4.7188,-4.649,-4.524,-4.3418,-4.3042,-4.2002,0.0,0.0,0.0,0.0,0.0,0.0,0.0,0.0,0.0,0.0,0.0,0.0,0.0,0.0,0.0,0.0,0.0,0.0,0.0,0.0,0.0,0.0,0.0,0.0,0.0,0.0,0.0,0.0,0.0,0.0,0.0,0.0,0.0,0.0,0.0,0.0,0.0,0.0,0.0,0.0,0.0,0.0,0.0,0.0,0.0,0.0,0.0,0.0,0.0,0.0,0.0,0.0,0.0,0.0,0.0,0.0,0.0,0.0,0.0,0.0,0.0,0.0,0.0,0.0,0.0,0.0,0.0,0.0,0.0,0.0,0.0,0.0,0.0,0.0,0.0,0.0,0.0,0.0,0.0,0.0,0.0,0.0,0.0,0.0,0.0,0.0,0.0,0.0,0.0,0.0,0.0,0.0,0.0,0.0,0.0,0.0,0.0,0.0,0.0,0.0,0.0,0.0,0.0,0.0,0.0,0.0,0.0,0.0,0.0,-4.7104,-4.7456,-4.6782,-4.5034,-4.3562,-4.222,0.0,0.0,0.0,0.0,0.0,0.0,0.0,0.0,0.0,0.0,0.0,0.0,0.0,0.0,0.0,0.0,0.0,0.0,0.0,0.0,0.0,0.0,0.0,0.0,0.0,0.0,0.0,0.0,0.0,0.0,0.0,0.0,0.0,0.0,0.0,0.0,0.0,0.0,0.0,0.0,0.0,0.0,0.0,0.0,0.0,0.0,0.0,0.0,0.0,0.0,0.0,0.0,0.0,0.0,0.0,0.0,0.0,0.0,0.0,0.0,0.0,0.0,0.0,0.0,0.0,0.0,0.0,0.0,0.0,0.0,0.0,0.0,0.0,0.0,0.0,0.0,0.0,0.0,0.0,0.0,0.0,0.0,0.0,0.0,0.0,0.0,0.0,0.0,0.0,0.0,0.0,0.0,0.0,0.0,0.0,0.0,0.0,0.0,0.0,0.0,0.0,0.0,0.0,0.0,0.0,0.0,0.0,0.0,-4.7308,-4.7977,-4.8081,-4.7442,-4.5991,-4.4553,-4.3106,0.0,0.0,0.0,0.0,0.0,0.0,0.0,0.0,0.0,0.0,0.0,0.0,0.0,0.0,0.0,0.0,0.0,0.0,0.0,0.0,0.0,0.0,0.0,0.0,0.0,0.0,0.0,0.0,0.0,0.0,0.0,0.0,0.0,0.0,0.0,0.0,0.0,0.0,0.0,0.0,0.0,0.0,0.0,0.0,0.0,0.0,0.0,0.0,0.0,0.0,0.0,0.0,0.0,0.0,0.0,0.0,0.0,0.0,0.0,0.0,0.0,0.0,0.0,0.0,0.0,0.0,0.0,0.0,0.0,0.0,0.0,0.0,0.0,0.0,0.0,0.0,0.0,0.0,0.0,0.0,0.0,0.0,0.0,0.0,0.0,0.0,0.0,0.0,0.0,0.0,0.0,0.0,0.0,0.0,0.0,0.0,0.0,0.0,0.0,0.0,0.0,0.0,0.0,0.0,0.0,0.0,0.0,0.0,-4.7498,-4.9139,-4.849,-4.7607,-4.6529,-4.5595,-4.4208,0.0,0.0,0.0,0.0,0.0,0.0,0.0,0.0,0.0,0.0,0.0,0.0,0.0,0.0,0.0,0.0,0.0,0.0,0.0,0.0,0.0,0.0,0.0,0.0,0.0,0.0,0.0,0.0,0.0,0.0,0.0,0.0,0.0,0.0,0.0,0.0,0.0,0.0,0.0,0.0,0.0,0.0,0.0,0.0,0.0,0.0,0.0,0.0,0.0,0.0,0.0,0.0,0.0,0.0,0.0,0.0,0.0,0.0,0.0,0.0,0.0,0.0,0.0,0.0,0.0,0.0,0.0,0.0,0.0,0.0,0.0,0.0,0.0,0.0,0.0,0.0,0.0,0.0,0.0,0.0,0.0,0.0,0.0,0.0,0.0,0.0,0.0,0.0,0.0,0.0,0.0,0.0,0.0,0.0,0.0,0.0,0.0,0.0,0.0,0.0,0.0,0.0,0.0,0.0,0.0,0.0,0.0,0.0,-4.7516,-4.9141,-4.9001,-4.81,-4.6531,-4.5595,-4.4194,0.0,0.0,0.0,0.0,0.0,0.0,0.0,0.0,0.0,0.0,0.0,0.0,0.0,0.0,0.0,0.0,0.0,0.0,0.0,0.0,0.0,0.0,0.0,0.0,0.0,0.0,0.0,0.0,0.0,0.0,0.0,0.0,0.0,0.0,0.0,0.0,0.0,0.0,0.0,0.0,0.0,0.0,0.0,0.0,0.0,0.0,0.0,0.0,-4.3622,0.0,0.0,0.0,0.0,0.0,0.0,0.0,0.0,0.0,0.0,0.0,0.0,0.0,0.0,0.0,0.0,0.0,0.0,0.0,0.0,0.0,0.0,0.0,0.0,0.0,0.0,0.0,0.0,0.0,0.0,0.0,0.0,0.0,0.0,0.0,0.0,0.0,0.0,0.0,0.0,0.0,0.0,0.0,0.0,0.0,0.0,0.0,0.0,0.0,0.0,0.0,0.0,0.0,0.0,0.0,0.0,0.0,0.0,0.0,-4.7388,-4.9006,-4.8998,-4.8113,-4.6433,-4.5797,-4.4611,0.0,0.0,0.0,0.0,0.0,0.0,0.0,0.0,0.0,0.0,0.0,0.0,0.0,0.0,0.0,0.0,0.0,0.0,0.0,0.0,0.0,0.0,0.0,0.0,0.0,0.0,0.0,0.0,0.0,0.0,0.0,0.0,0.0,0.0,0.0,0.0,0.0,0.0,0.0,0.0,0.0,0.0,0.0,0.0,0.0,0.0,0.0,0.0,0.0,0.0,0.0,0.0,0.0,0.0,0.0,0.0,0.0,0.0,0.0,0.0,0.0,0.0,0.0,0.0,0.0,0.0,0.0,0.0,0.0,0.0,0.0,0.0,0.0,0.0,0.0,0.0,0.0,0.0,0.0,0.0,0.0,0.0,0.0,0.0,0.0,0.0,0.0,0.0,0.0,0.0,0.0,0.0,0.0,0.0,0.0,0.0,0.0,0.0,0.0,0.0,0.0,0.0,0.0,0.0,0.0,0.0,0.0,-4.6327,-4.7033,-4.8463,-4.845,-4.764,-4.604,-4.5808,-4.493,-4.3286,0.0,0.0,0.0,0.0,0.0,0.0,0.0,0.0,0.0,0.0,0.0,0.0,0.0,0.0,0.0,0.0,0.0,0.0,0.0,0.0,0.0,0.0,0.0,0.0,0.0,0.0,0.0,0.0,0.0,0.0,0.0,0.0,0.0,0.0,0.0,0.0,0.0,0.0,-4.0436,-4.2438,0.0,0.0,0.0,0.0,0.0,0.0,0.0,0.0,-4.4974,0.0,0.0,0.0,0.0,0.0,0.0,0.0,0.0,0.0,0.0,0.0,0.0,0.0,0.0,0.0,0.0,0.0,0.0,0.0,0.0,0.0,0.0,0.0,0.0,0.0,0.0,0.0,0.0,0.0,0.0,0.0,0.0,0.0,0.0,0.0,0.0,0.0,0.0,0.0,0.0,0.0,0.0,0.0,0.0,0.0,0.0,0.0,0.0,0.0,0.0,0.0,0.0,0.0,0.0,0.0,0.0,-4.5454,-4.5491,-4.5955,-4.6865,-4.6782,-4.6163,-4.5085,-4.4892,-4.4254,-4.2976,0.0,0.0,0.0,0.0,0.0,0.0,0.0,0.0,0.0,0.0,0.0,0.0,0.0,0.0,0.0,0.0,0.0,0.0,0.0,0.0,0.0,0.0,0.0,0.0,0.0,0.0,0.0,0.0,0.0,0.0,0.0,0.0,0.0,0.0,0.0,0.0,0.0,0.0,0.0,-4.4657,-4.5517,0.0,0.0,0.0,0.0,0.0,0.0,0.0,0.0,-4.7697,0.0,0.0,0.0,0.0,0.0,0.0,0.0,0.0,0.0,0.0,0.0,0.0,0.0,0.0,0.0,0.0,0.0,0.0,0.0,0.0,0.0,0.0,0.0,0.0,0.0,0.0,0.0,0.0,0.0,0.0,0.0,0.0,0.0,0.0,0.0,0.0,0.0,0.0,0.0,0.0,0.0,0.0,0.0,0.0,0.0,0.0,0.0,0.0,0.0,0.0,0.0,0.0,0.0,0.0,0.0,-4.5194,-4.5287,-4.5677,-4.6457,-4.6342,-4.5779,-4.4848,-4.4619,-4.3816,0.0,0.0,0.0,0.0,0.0,0.0,0.0,0.0,0.0,0.0,0.0,0.0,0.0,0.0,0.0,0.0,0.0,0.0,0.0,0.0,0.0,0.0,0.0,0.0,0.0,0.0,0.0,0.0,0.0,0.0,0.0,0.0,0.0,0.0,0.0,0.0,0.0,0.0,0.0,0.0,-4.5769,-4.6629,-4.7451,0.0,0.0,0.0,0.0,0.0,0.0,-4.8733,-4.8365,0.0,0.0,0.0,0.0,0.0,0.0,0.0,0.0,0.0,0.0,0.0,0.0,0.0,0.0,0.0,0.0,0.0,0.0,0.0,0.0,0.0,0.0,0.0,0.0,0.0,0.0,0.0,0.0,0.0,0.0,0.0,0.0,0.0,0.0,0.0,0.0,0.0,0.0,0.0,0.0,0.0,0.0,0.0,0.0,0.0,0.0,0.0,0.0,0.0,0.0,0.0,0.0,0.0,0.0,0.0,-4.4971,-4.5026,-4.5342,-4.5923,-4.581,-4.5322,-4.452,-4.4272,-4.3378,0.0,0.0,0.0,0.0,0.0,0.0,0.0,0.0,0.0,0.0,0.0,0.0,0.0,0.0,0.0,0.0,0.0,0.0,0.0,0.0,0.0,0.0,0.0,0.0,0.0,0.0,0.0,0.0,0.0,0.0,0.0,0.0,0.0,0.0,0.0,0.0,0.0,0.0,0.0,0.0,0.0,-4.751,-4.893,-4.9065,0.0,0.0,0.0,0.0,-4.9586,-4.9081,0.0,0.0,0.0,0.0,0.0,0.0,0.0,0.0,0.0,0.0,0.0,0.0,0.0,0.0,0.0,0.0,0.0,0.0,0.0,0.0,0.0,0.0,0.0,0.0,0.0,0.0,0.0,0.0,0.0,0.0,0.0,0.0,0.0,0.0,0.0,0.0,0.0,0.0,0.0,0.0,0.0,0.0,0.0,0.0,0.0,0.0,0.0,0.0,0.0,0.0,0.0,0.0,0.0,0.0,0.0,0.0,-4.4098,-4.4153,-4.4162,-4.4209,-4.413,-4.389,-4.3484,-4.3378,-4.274,0.0,0.0,0.0,0.0,0.0,0.0,0.0,0.0,0.0,0.0,0.0,0.0,0.0,0.0,0.0,0.0,0.0,0.0,0.0,0.0,0.0,0.0,0.0,0.0,0.0,0.0,0.0,0.0,0.0,0.0,0.0,0.0,0.0,0.0,0.0,0.0,0.0,0.0,0.0,0.0,0.0,-4.7919,-4.8807,-4.8848,-4.9239,0.0,0.0,-5.0431,-5.0961,-5.0548,0.0,0.0,0.0,0.0,0.0,0.0,0.0,0.0,0.0,0.0,0.0,0.0,0.0,0.0,0.0,0.0,0.0,0.0,0.0,0.0,0.0,0.0,0.0,0.0,0.0,0.0,0.0,0.0,0.0,0.0,0.0,0.0,0.0,0.0,0.0,0.0,0.0,0.0,0.0,0.0,0.0,0.0,0.0,0.0,0.0,0.0,0.0,0.0,0.0,0.0,0.0,0.0,0.0,0.0,0.0,-4.3206,-4.3968,-4.4005,-4.3976,-4.3897,-4.3749,-4.3565,-4.3303,-4.2759,-4.1941,0.0,0.0,0.0,0.0,0.0,0.0,0.0,0.0,0.0,0.0,0.0,0.0,0.0,0.0,0.0,0.0,0.0,0.0,0.0,0.0,0.0,0.0,0.0,0.0,0.0,0.0,0.0,0.0,0.0,0.0,0.0,0.0,0.0,0.0,0.0,0.0,0.0,0.0,0.0,0.0,0.0,0.0,-4.9163,-4.9298,0.0,0.0,0.0,-5.1012,-5.1167,0.0,0.0,0.0,0.0,0.0,0.0,0.0,0.0,0.0,0.0,0.0,0.0,0.0,0.0,0.0,0.0,0.0,0.0,0.0,0.0,0.0,0.0,0.0,0.0,0.0,0.0,0.0,0.0,0.0,0.0,0.0,0.0,0.0,0.0,0.0,0.0,0.0,0.0,0.0,0.0,0.0,0.0,0.0,0.0,0.0,0.0,0.0,0.0,0.0,0.0,0.0,0.0,0.0,0.0,0.0,0.0,0.0,-4.3689,-4.3896,-4.3833,-4.3569,-4.3572,-4.3386,-4.2957,-4.2232,0.0,0.0,0.0,0.0,0.0,0.0,0.0,0.0,0.0,0.0,0.0,0.0,0.0,0.0,0.0,0.0,0.0,0.0,0.0,0.0,0.0,0.0,0.0,0.0,0.0,0.0,0.0,-3.3938,0.0,0.0,0.0,0.0,0.0,0.0,0.0,0.0,0.0,0.0,0.0,0.0,0.0,0.0,-4.7761,-4.9339,-4.9512,-4.9991,0.0,0.0,-5.1298,-5.1061,-5.0665,-5.0387,0.0,0.0,0.0,0.0,0.0,0.0,0.0,0.0,0.0,0.0,0.0,0.0,0.0,0.0,0.0,0.0,0.0,0.0,0.0,0.0,0.0,0.0,0.0,0.0,0.0,0.0,0.0,0.0,0.0,0.0,0.0,0.0,0.0,0.0,0.0,0.0,0.0,0.0,0.0,0.0,0.0,0.0,0.0,0.0,0.0,0.0,0.0,0.0,0.0,0.0,0.0,0.0,0.0,0.0,-4.2816,-4.2909,-4.3555,-4.3476,-4.2643,-4.3177,-4.3061,-4.212,-4.1833,-4.0908,0.0,0.0,0.0,0.0,0.0,0.0,0.0,0.0,0.0,0.0,0.0,0.0,0.0,0.0,0.0,0.0,0.0,0.0,0.0,0.0,0.0,0.0,0.0,0.0,0.0,0.0,0.0,0.0,0.0,0.0,0.0,0.0,0.0,0.0,0.0,0.0,0.0,0.0,0.0,0.0,0.0,-4.7393,-4.8899,-4.9032,-4.9525,0.0,-5.1193,-5.1079,-5.0847,-5.0592,-5.0359,-5.0246,0.0,0.0,0.0,0.0,0.0,0.0,0.0,0.0,0.0,0.0,0.0,0.0,0.0,0.0,0.0,0.0,0.0,0.0,0.0,0.0,0.0,0.0,0.0,0.0,0.0,0.0,0.0,0.0,0.0,0.0,0.0,0.0,0.0,0.0,0.0,0.0,0.0,0.0,0.0,0.0,0.0,0.0,0.0,0.0,0.0,0.0,0.0,0.0,0.0,0.0,0.0,0.0,0.0,-4.1813,-4.2779,-4.2554,-4.2189,-4.1733,-4.1844,-4.1642,-4.1088,-4.0492,-3.977,0.0,0.0,0.0,0.0,0.0,0.0,0.0,0.0,0.0,0.0,0.0,0.0,0.0,0.0,0.0,0.0,0.0,0.0,0.0,0.0,0.0,0.0,0.0,0.0,0.0,0.0,0.0,0.0,-3.6128,-3.6533,-3.7105,0.0,0.0,0.0,0.0,0.0,0.0,0.0,0.0,0.0,0.0,-4.7228,-4.8753,-4.8916,0.0,0.0,-5.0963,-5.0838,-5.0592,-5.0397,-5.02,-5.0057,-4.9737,0.0,0.0,0.0,0.0,0.0,0.0,0.0,0.0,0.0,0.0,0.0,0.0,0.0,0.0,0.0,0.0,0.0,0.0,0.0,0.0,0.0,0.0,0.0,0.0,0.0,0.0,0.0,0.0,0.0,0.0,0.0,0.0,0.0,0.0,0.0,0.0,0.0,0.0,0.0,0.0,0.0,0.0,0.0,0.0,0.0,0.0,0.0,0.0,0.0,0.0,0.0,0.0,-4.1051,-4.2396,-4.1767,-4.1219,-4.0822,-4.0864,-4.0663,-4.0165,-3.9481,-3.8905,0.0,0.0,0.0,0.0,0.0,0.0,0.0,0.0,0.0,0.0,0.0,0.0,0.0,0.0,0.0,0.0,0.0,0.0,0.0,0.0,0.0,0.0,0.0,0.0,0.0,0.0,0.0,0.0,-3.6508,-3.7085,-3.8118,0.0,0.0,0.0,0.0,0.0,0.0,0.0,0.0,0.0,0.0,-4.685,-4.8136,-4.8524,-4.9037,-5.0186,-5.0544,-5.0602,-5.0369,-5.02,-5.0057,-4.9884,0.0,0.0,0.0,0.0,0.0,0.0,0.0,0.0,0.0,0.0,0.0,0.0,0.0,0.0,0.0,0.0,0.0,0.0,0.0,0.0,0.0,0.0,0.0,0.0,0.0,0.0,0.0,-3.9178,0.0,0.0,-3.9008,0.0,0.0,0.0,0.0,0.0,0.0,0.0,0.0,0.0,0.0,0.0,0.0,0.0,0.0,0.0,0.0,0.0,0.0,0.0,0.0,0.0,0.0,-4.0762,-4.1508,-4.1339,-4.0809,-3.9971,-4.0472,-4.0321,-3.9441,-3.9085,-3.8491,-3.7648,0.0,0.0,0.0,0.0,0.0,0.0,0.0,0.0,0.0,0.0,0.0,0.0,0.0,0.0,0.0,0.0,0.0,0.0,0.0,0.0,0.0,0.0,0.0,0.0,0.0,0.0,-3.6318,-3.7029,-3.8065,0.0,0.0,0.0,0.0,0.0,0.0,0.0,0.0,0.0,-4.5716,-4.5821,-4.6116,-4.6969,-4.7657,-4.8458,-4.9276,-4.9945,-5.0359,-5.0217,-5.0028,-4.9866,0.0,0.0,0.0,0.0,0.0,0.0,0.0,0.0,0.0,0.0,0.0,0.0,0.0,0.0,0.0,0.0,0.0,0.0,0.0,0.0,0.0,0.0,0.0,0.0,0.0,0.0,0.0,-4.0026,-3.9824,0.0,0.0,0.0,0.0,0.0,0.0,0.0,0.0,0.0,0.0,0.0,-3.9101,-3.938,0.0,0.0,0.0,0.0,0.0,0.0,0.0,0.0,0.0,0.0,0.0,0.0,-3.9837,-4.0567,-3.9939,-3.9362,-3.8978,-3.8973,-3.8826,-3.8418,-3.8169,-3.7733,-3.7105,0.0,0.0,0.0,0.0,0.0,0.0,0.0,0.0,0.0,0.0,0.0,0.0,0.0,0.0,0.0,0.0,0.0,0.0,0.0,0.0,0.0,0.0,0.0,0.0,0.0,-3.6525,0.0,0.0,0.0,0.0,0.0,0.0,0.0,0.0,0.0,0.0,0.0,-4.5517,-4.5778,-4.6265,-4.6856,-4.763,-4.8396,-4.9135,0.0,0.0,0.0,0.0,0.0,0.0,0.0,0.0,0.0,0.0,0.0,0.0,0.0,0.0,-4.8392,-4.7682,-4.7547,-4.7394,-4.6887,0.0,0.0,0.0,0.0,0.0,0.0,0.0,0.0,0.0,0.0,0.0,0.0,0.0,0.0,-4.0795,-4.0585,-3.9741,0.0,0.0,0.0,0.0,0.0,0.0,0.0,0.0,-3.9101,-3.9101,-3.9101,-3.9417,-3.9993,0.0,-4.1089,-4.1627,0.0,0.0,0.0,0.0,0.0,0.0,0.0,0.0,-3.9649,-4.0067,-3.9185,-3.8609,-3.8462,-3.8218,-3.8035,-3.7899,-3.7613,-3.726,-3.6768,-3.5836,-3.5297,0.0,0.0,0.0,0.0,0.0,0.0,0.0,0.0,0.0,0.0,0.0,0.0,0.0,0.0,0.0,0.0,0.0,0.0,0.0,0.0,0.0,0.0,0.0,-3.7129,0.0,0.0,0.0,0.0,0.0,0.0,0.0,0.0,0.0,-4.4487,-4.5199,-4.5762,-4.6066,-4.6759,-4.7419,-4.7887,0.0,0.0,0.0,0.0,0.0,0.0,0.0,-4.953,-4.926,-4.9168,-4.904,-4.8663,-4.8409,-4.824,-4.824,0.0,0.0,-4.8244,-4.8291,-4.8108,-4.7605,-4.7521,-4.7376,-4.6908,-4.6951,-4.6991,0.0,0.0,0.0,0.0,0.0,0.0,0.0,0.0,-4.1586,-4.1475,0.0,-4.0399,0.0,0.0,0.0,0.0,-3.8979,-3.8993,0.0,0.0,-3.9087,-3.9101,-3.9143,-3.9923,-4.0773,-4.1609,-4.2296,-4.3061,-4.3785,-4.2352,0.0,0.0,0.0,0.0,0.0,0.0,-4.0104,-3.9927,-3.9105,-3.8596,-3.8417,-3.8203,-3.8018,-3.7864,-3.752,-3.7122,-3.6687,-3.5734,-3.5425,-3.5912,-3.5013,0.0,0.0,0.0,0.0,0.0,0.0,0.0,0.0,0.0,0.0,0.0,0.0,0.0,0.0,0.0,0.0,0.0,0.0,0.0,0.0,-3.7077,0.0,0.0,0.0,0.0,0.0,0.0,0.0,0.0,0.0,0.0,-4.438,-4.501,-4.5725,-4.6527,0.0,0.0,0.0,0.0,-4.8844,-4.8861,-4.9482,-4.9935,-4.9708,-4.956,-4.9411,-4.9178,0.0,0.0,-4.7973,-4.7293,-4.6836,-4.6802,-4.687,-4.7242,-4.8629,-4.8768,-4.8754,-4.8599,-4.8517,-4.8337,-4.7579,-4.7491,-4.7712,-4.0979,0.0,0.0,0.0,0.0,-4.1798,-4.1773,-4.1651,-4.0929,-4.0567,-4.0436,-3.9567,0.0,0.0,0.0,0.0,0.0,0.0,-3.8935,-3.8964,-3.895,-3.895,-3.8983,-3.9223,-4.0037,-4.1351,-4.1036,-4.1591,-4.2921,-4.1943,-4.177,-4.2365,0.0,0.0,0.0,0.0,-3.9183,-3.9123,-3.87,-3.8465,-3.8399,-3.8104,-3.7793,-3.7502,-3.7371,-3.7122,-3.6705,-3.5734,-3.5218,-3.5194,-3.4754,0.0,0.0,0.0,0.0,0.0,0.0,0.0,0.0,0.0,0.0,0.0,0.0,0.0,0.0,0.0,0.0,0.0,0.0,0.0,-3.7094,-3.8301,-3.9474,0.0,0.0,0.0,0.0,0.0,0.0,0.0,0.0,0.0,-4.5113,-4.5786,-4.6517,0.0,0.0,-4.8465,-4.8482,-4.9183,-4.9666,-4.9683,-4.9734,0.0,-4.9577,-4.9411,-4.9059,-4.8369,-4.7814,-4.7361,-4.7141,-4.6938,-4.6786,-4.6769,-4.668,-4.6756,-4.708,-4.7198,-4.7171,-4.7049,-4.6943,-4.677,-4.6383,-4.6295,-4.6235,-4.0558,-4.0895,-4.1593,-4.1784,-4.1625,-4.1734,-4.1759,-4.1655,-4.0945,-4.0618,-4.0517,-3.9636,-3.9378,-3.9643,-3.9331,0.0,0.0,0.0,-3.8881,-3.891,-3.891,-3.891,-3.891,-3.891,-3.9557,-4.0757,-4.0332,-4.0809,-4.2121,-4.1622,-4.149,-4.1632,0.0,0.0,-4.008,-3.9537,-3.9105,-3.8765,-3.8528,-3.8399,-3.8382,-3.8071,-3.7721,-3.7316,-3.7297,-3.7105,-3.6705,-3.5466,-3.4829,-3.4886,-3.4406,-3.4244,0.0,0.0,0.0,0.0,0.0,0.0,0.0,0.0,0.0,0.0,0.0,-3.5616,-3.56,0.0,0.0,0.0,-3.6895,-3.7503,-3.8217,-3.9388,0.0,0.0,0.0,0.0,0.0,0.0,0.0,-4.3258,-4.3958,-4.4647,-4.4941,-4.5665,-4.6621,-4.7931,-4.8792,-4.9258,-4.9286,0.0,-4.9889,-4.9889,-4.9725,-4.956,-4.9411,-4.9018,-4.8472,-4.7627,-4.687,-4.638,-4.6346,-4.6126,-4.5923,-4.5802,-4.5715,-4.5564,-4.5492,-4.542,-4.5547,-4.5974,-4.6046,-4.5794,-4.5232,-4.519,-4.513,-4.03,-4.0153,-4.0751,-4.0934,-4.0854,-4.1373,-4.1572,-4.1473,-4.1215,-4.1108,-4.1052,-4.0199,-4.0212,-4.0838,-4.0139,0.0,-3.8792,-3.8792,-3.8822,-3.8877,-3.8896,-3.8896,-3.8881,-3.8896,-3.9302,-4.0077,-4.0022,-4.0428,-4.1237,-4.12,-4.0748,-3.9949,-4.0748,-4.0748,-3.9949,-3.9893,-3.9498,-3.8726,-3.8515,-3.8401,-3.835,-3.8054,-3.7685,-3.7333,-3.7297,-3.7085,-3.667,-3.5092,-3.4392,-3.477,-3.3997,-3.3786,-3.437,0.0,0.0,0.0,0.0,0.0,0.0,0.0,0.0,0.0,0.0,0.0,0.0,0.0,0.0,-3.7092,-3.8076,0.0,-3.9437,-4.0261,0.0,0.0,0.0,-4.3322,-4.4199,-4.3664,-4.3241,-4.312,0.0,0.0,-4.4096,-4.488,-4.6146,-4.8213,-4.9309,-4.9895,-4.9964,-4.9813,-4.9661,-4.9679,-4.9577,-4.9394,-4.9073,-4.8367,-4.7607,-4.6815,-4.6092,-4.5635,-4.5585,-4.5111,-4.4581,-4.4439,-4.4281,-4.4229,-4.3944,-4.3833,-4.4012,-4.5256,-4.5456,-4.5149,-4.4167,-4.4188,-4.4204,-4.0281,-4.0096,-4.0224,-4.0129,-3.9926,-3.9964,-3.9914,-3.9779,-3.9552,-3.9483,-3.9431,-3.9133,-3.9093,-3.9258,-3.9074,-3.8888,-3.8738,-3.8719,-3.8735,-3.875,-3.8735,-3.875,-3.8753,-3.875,-3.9173,-3.9871,-3.932,-3.9467,-4.0218,-3.9632,-3.9231,-3.9032,-3.9212,-3.9246,-3.9013,-3.9013,-3.8906,-3.8707,-3.8496,-3.8287,-3.802,-3.7934,-3.7703,-3.7316,-3.7203,-3.7009,-3.6687,-3.503,-3.4123,-3.4032,-3.3226,-3.3019,-3.3626,-3.437,0.0,0.0,0.0,0.0,0.0,0.0,0.0,0.0,0.0,-3.6524,-3.6518,0.0,-3.7568,0.0,-3.8657,-3.9264,-3.9405,-4.062,0.0,0.0,-4.3202,-4.3785,-4.4113,-4.4001,-4.3477,-4.2406,-4.3209,-4.3743,-4.3348,-4.4361,-4.5292,-4.5874,-4.7665,-4.9148,-4.9681,-4.9619,-4.953,-4.9496,-4.9329,-4.9056,-4.8379,-4.7157,-4.6206,-4.5991,-4.5331,-4.4857,-4.484,-4.4733,-4.4559,-4.4338,-4.4196,-4.4039,-4.3717,-4.3539,-4.338,-4.34,-4.3357,-4.3293,-4.2988,-4.2768,-4.2475,-4.0299,-4.0157,-4.0077,-3.9911,-3.967,-3.9477,-3.9356,-3.9275,-3.9007,-3.891,-3.8877,-3.8765,-3.8707,-3.8707,-3.8707,-3.8707,-3.8707,-3.8707,-3.8707,-3.8707,-3.8707,-3.8707,-3.8707,-3.8707,-3.8927,-3.935,-3.8909,-3.8927,-3.9313,-3.8927,-3.8707,-3.8707,-3.8707,-3.8707,-3.8707,-3.8707,-3.8707,-3.8707,-3.8496,-3.8238,-3.7917,-3.7899,-3.7685,-3.7222,-3.6829,-3.6461,-3.6139,-3.4545,-3.3537,-3.3262,-3.2807,-3.2655,-3.2919,-3.3609,-3.4336,0.0,0.0,0.0,0.0,0.0,0.0,0.0,0.0,0.0,0.0,0.0,-3.7973,-3.8037,-3.886,-3.9255,-3.8867,-4.0463,-4.1665,-4.2091,-4.343,-4.4217,-4.4025,-4.3708,-4.3031,-4.1957,-4.2216,-4.2475,-4.2389,-4.2997,-4.3774,-4.4407,-4.562,-4.6811,-4.7877,-4.8241,-4.8392,-4.8409,-4.8243,-4.787,-4.7123,-4.6302,-4.5585,-4.5246,-4.4886,-4.4598,-4.4598,-4.4542,-4.4412,-4.427,-4.4097,-4.391,-4.3568,-4.3312,-4.2956,-4.2322,-4.1898,-4.1741,-4.1709,-4.1502,-4.1196,-4.0316,-4.0196,-4.0128,-3.9975,-3.9762,-3.9545,-3.9413,-3.9391,-3.904,-3.8877,-3.8866,-3.8768,-3.8707,-3.8707,-3.8707,-3.8707,-3.8707,-3.8707,-3.8707,-3.8707,-3.8707,-3.8707,-3.8707,-3.8707,-3.8707,-3.8707,-3.8707,-3.8707,-3.8707,-3.8707,-3.8707,-3.8707,-3.8707,-3.8707,-3.8707,-3.8707,-3.8707,-3.8692,-3.8496,-3.8254,-3.7934,-3.7916,-3.7649,-3.7111,-3.6368,-3.5791,-3.5399,-3.4008,-3.3061,-3.2667,-3.2627,-3.2511,-3.2368,-3.3021,-3.3728,0.0,-3.459,0.0,0.0,0.0,0.0,0.0,0.0,0.0,0.0,-3.8058,-3.8055,-3.8095,-3.8768,-3.8911,-3.8129,-4.0084,-4.1367,-4.1435,-4.3389,-4.4507,-4.378,-4.3107,-4.2356,-4.1552,-4.0861,-4.0741,-4.1356,-4.1417,-4.198,-4.3064,-4.3401,-4.397,-4.5203,-4.6141,-4.6702,-4.6702,-4.6501,-4.607,-4.5534,-4.5297,-4.4925,-4.4429,-4.4225,-4.4327,-4.4198,-4.4069,-4.3917,-4.3808,-4.3585,-4.3431,-4.3168,-4.2788,-4.2317,-4.1518,-4.0942,-4.0531,-4.0531,-4.0419,-4.007,-4.0316,-4.0196,-4.0128,-3.9994,-3.9792,-3.9623,-3.9502,-3.9378,-3.9054,-3.8855,-3.8753,-3.8704,-3.8707,-3.8707,-3.8707,-3.8707,-3.8707,-3.8707,-3.8707,-3.8707,-3.8707,-3.8707,-3.8707,-3.8707,-3.8707,-3.8707,-3.8707,-3.8707,-3.8707,-3.8707,-3.8707,-3.8707,-3.8707,-3.8707,-3.8707,0.0,0.0,0.0,-3.851,-3.8318,-3.8002,-3.7984,-3.7703,-3.711,-3.6293,0.0,-3.5399,-3.4431,-3.3557,-3.2816,-3.265,0.0,0.0,0.0,0.0,0.0,0.0,0.0,0.0,0.0,0.0,0.0,-3.7151,-3.7371,-3.865,-3.8785,-3.8572,-3.7997,-3.8112,-3.8106,-3.7987,-3.9926,-4.123,-4.1314,-4.3271,-4.4156,-4.294,-4.2626,-4.2082,-4.0861,-4.0497,-4.0389,-4.0542,-4.0467,-4.051,-4.0917,-4.1332,-4.1764,-4.2129,-4.3857,-4.4998,-4.5015,-4.4536,-4.4051,-4.3849,-4.3403,-4.3098,-4.2726,-4.2709,-4.276,-4.2811,-4.2686,-4.2505,-4.2401,-4.2144,-4.1893,-4.1559,-4.117,-4.0903,-4.0391,-4.0005,-3.9787,-3.9787,-3.9439,-3.9038,-4.0362,0.0,-4.0157,-3.9986,0.0,-3.9658,-3.9527,-3.9391,-3.9106,-3.891,-3.875,-3.8723,-3.8707,-3.8707,-3.8707,-3.8707,-3.8707,-3.8707,-3.8707,-3.8707,-3.8707,-3.8707,-3.8689,-3.8285,-3.8117,-3.8098,-3.7698,-3.7514,-3.7514,-3.7533,-3.7514,-3.7514,-3.7514,-3.7514,-3.7533,-3.79,-3.8236,-3.851,-3.8478,-3.8318,-3.8018,-3.7967,-3.7685,-3.7111,-3.5907,0.0,0.0,0.0,0.0,0.0,0.0,0.0,0.0,0.0,0.0,-3.4404,-3.4861,-3.5233,-3.5566,-3.5616,-3.6129,-3.7263,-3.7347,-3.7652,-3.8396,-3.8464,-3.8142,-3.7432,-3.7347,-3.7195,-3.6891,-3.8802,-4.0257,-4.0696,-4.2658,-4.3565,-4.2603,-4.2409,-4.1842,-4.0594,-4.0238,-4.0213,-4.0188,-4.0138,-4.0113,-4.0113,-4.0417,-4.0663,-4.0815,-4.2279,-4.3464,-4.3481,-4.3149,-4.2878,-4.2828,-4.2591,-4.2286,-4.2303,-4.2303,-4.2303,-4.2303,-4.2132,-4.1969,-4.1877,-4.1599,-4.1271,-4.1041,-4.0691,-4.019,-3.9521,-3.9059,-3.8623,-3.831,-3.8152,-3.7973,-4.0407,-4.0389,-4.0196,-4.0036,-3.99,-3.9701,-3.9521,-3.9391,0.0,0.0,0.0,-3.8719,-3.8707,-3.8707,-3.8707,-3.8707,-3.8707,-3.8707,-3.8615,-3.8487,-3.8487,-3.8414,-3.8248,-3.7588,-3.729,-3.7272,-3.6615,-3.6285,-3.6285,-3.6285,-3.6285,-3.6285,-3.6285,-3.6285,-3.634,-3.696,-3.7558,-3.8068,-3.8334,-3.8212,-3.7802,-3.7735,-3.7381,-3.6723,-3.5347,-3.4461,-3.4199,-3.287,-3.2032,-3.1837,-3.1949,-3.2175,-3.2508,-3.274,-3.3358,-3.4409,-3.4607,-3.4962,-3.5549,-3.5616,-3.587,-3.6535,-3.728,-3.7702,-3.7702,-3.7702,-3.7398,-3.666,-3.6586,-3.6315,-3.5684,-3.7533,-3.9039,-3.969,-4.1677,-4.2726,-4.2016,-4.2049,-4.1551,-4.0383,-4.0113,-4.0113,-4.0096,-4.0113,-4.0113,-4.0113,-4.0146,-4.0113,-4.0248,-4.1162,-4.1941,-4.1924,-4.183,-4.1863,-4.1907,-4.183,-4.1897,-4.1779,-4.1813,-4.1897,-4.1871,-4.1691,-4.1529,-4.1385,-4.11,-4.0724,-4.0603,-4.0102,-3.959,-3.8699,-3.8134,-3.7592,-3.6925,-3.6954,-3.6996,-4.0407,-4.037,-4.0177,-4.0057,-3.9975,-3.977,-3.9595,-3.9378,-3.9068,-3.8877,-3.8792,-3.8719,-3.8707,-3.8707,-3.8707,-3.8707,-3.8707,-3.8707,-3.8322,-3.7676,-3.7676,-3.7309,-3.6633,-3.6538,-3.6468,-3.6464,-3.634,-3.6285,-3.6285,-3.6266,-3.6285,-3.6266,-3.6285,-3.6266,-3.6303,-3.6413,-3.6523,-3.6637,-3.7845,-3.7988,-3.699,-3.6955,-3.6376,-3.5243,-3.4341,-3.3741,-3.3435,-3.3153,-3.2679,-3.1963,-3.308,-3.339,-3.2676,-3.372,-3.4415,-3.4527,-3.5098,-3.5498,-3.5583,-3.5616,-3.5633,-3.5785,-3.6485,-3.6948,-3.6965,-3.6965,-3.6603,-3.5876,-3.5825,-3.5735,-3.5701,-3.707,-3.8108,-3.8379,-4.0206,-4.1221,-4.0569,-4.0992,-4.1035,-4.0231,-4.0113,-4.0113,-4.0113,-4.0113,-4.0113,-4.0113,-4.0113,-4.0113,-4.0146,-4.0265,-4.0417,-4.0417,-4.0417,-4.0417,-4.057,-4.0434,-4.0553,-4.0417,-4.0502,-4.0587,-4.0603,-4.0372,-4.0206,-4.0072,-3.9719,-3.9314,-3.9198,-3.8638,-3.8315,-3.7907,-3.7521,-3.7032,-3.6616,-3.6411,-3.6205,-4.0432,-4.0389,-4.0234,-4.0089,-3.9975,-3.9724,-3.9514,-3.9391,-3.912,-3.895,-3.8851,-3.8777,-3.8735,-3.8707,-3.8707,-3.845,-3.8062,-3.8062,-3.7603,-3.6872,-3.685,-3.6666,-3.6285,-3.5811,-3.5605,-3.5573,-3.5147,-3.4926,-3.4945,-3.4963,-3.4945,-3.4945,-3.4945,-3.4926,-3.4963,-3.5385,-3.5577,-3.5553,-3.661,-3.6875,-3.6325,-3.6161,-3.5766,-3.5048,-3.425,-3.3723,-3.3512,-3.3037,-3.2546,-3.209,-3.2606,-3.3005,-3.3322,-3.3854,-3.4423,-3.5047,-3.5397,-3.5616,-3.5616,-3.5616,-3.5616,-3.5616,-3.5943,-3.6146,-3.6163,-3.6163,-3.5994,-3.565,-3.5616,-3.5616,-3.5633,-3.662,-3.7466,-3.7872,-3.9191,-4.0003,-4.013,-4.035,-4.0476,-4.0163,-4.0113,-4.0113,-4.0113,-4.0113,-4.0113,-4.0113,-4.0113,-4.0113,-4.0113,-4.0113,-4.0113,-4.0113,-4.0113,-4.0113,-4.0113,-4.0113,-4.0113,-4.0113,-4.0113,-4.0113,-4.007,-3.9867,-3.9729,-3.9677,-3.9212,-3.886,-3.8805,-3.8319,-3.7889,-3.7551,-3.7255,-3.6877,-3.6445,-3.6085,-3.5846,-4.0458,-4.0398,-4.0262,-4.0109,-3.9935,-3.9647,-3.9389,-3.9132,-3.8931,-3.8688,-3.8436,-3.8483,-3.8504,-3.8444,-3.8248,-3.7808,-3.729,-3.7235,-3.678,-3.6046,-3.6009,-3.5917,-3.5679,-3.5023,-3.4711,-3.4656,-3.4082,-3.3807,-3.3807,-3.3807,-3.3807,-3.3807,-3.3807,-3.3807,-3.3807,-3.4417,-3.4701,-3.47,-3.5195,-3.5526,-3.559,-3.5351,-3.505,-3.4667,-3.4032,-3.3612,-3.3475,-3.2808,-3.2371,-3.2249,-3.2194,-3.267,-3.3593,-3.3867,-3.4402,-3.5277,-3.5515,-3.5616,-3.5616,-3.5616,-3.5616,-3.5616,-3.5616,-3.5616,-3.5616,-3.5616,-3.5616,-3.5616,-3.5616,-3.5616,-3.5667,-3.6146,-3.6772,-3.7324,-3.8058,-3.8667,-3.9234,-3.9495,-3.9698,-3.9808,-3.9859,-3.9893,-4.0062,-4.0113,-4.0113,-4.0113,-4.0113,-4.0113,-4.0113,-4.0113,-4.0113,-4.0113,-4.0113,-4.0113,-4.0113,-4.0113,-4.0113,-4.0113,-4.0113,-4.0113,-4.0045,-3.9884,-3.9729,-3.9651,-3.9212,-3.886,-3.875,-3.8319,-3.7815,-3.7476,-3.718,-3.6816,-3.6289,-3.5958,-3.5671,-4.0458,-4.0379,-4.0252,-4.009,-3.9824,-3.9632,-3.91,-3.8433,-3.824,-3.7702,-3.706,-3.7474,-3.7706,-3.7599,-3.6934,-3.6538,-3.6409,-3.6427,-3.5954,-3.5188,-3.5114,-3.4747,-3.4156,-3.3972,-3.3917,-3.3935,-3.3844,-3.3807,-3.3807,-3.3807,-3.3807,-3.3807,-3.3807,-3.3807,-3.3825,-3.388,-3.3935,-3.3885,-3.3909,-3.4189,-3.4661,-3.4526,-3.4024,-3.3212,-3.303,-3.2896,-3.29,-3.2644,-3.2456,-3.2423,-3.2807,-3.3006,-3.311,-3.4099,-3.4751,-3.4788,-3.5294,-3.5616,-3.5616,-3.5616,-3.5616,-3.5616,-3.5616,-3.5616,-3.5616,-3.5616,-3.5616,-3.5616,-3.5616,-3.5616,-3.5616,-3.5718,-3.5853,-3.6005,-3.662,-3.7032,-3.7303,-3.7702,-3.8362,-3.9039,-3.9089,-3.9351,-3.9876,-4.0062,-4.0113,-4.0113,-4.0113,-4.0113,-4.0113,-4.0113,-4.0113,-4.0113,-4.0113,-4.0113,-4.0113,-4.0113,-4.0113,-4.0113,-4.0113,-4.0113,-4.0062,-3.9884,-3.9703,-3.9651,-3.9212,-3.8832,-3.8667,-3.8303,-3.7831,-3.746,-3.7133,-3.6723,-3.6179,-3.5742,-3.5505,-4.0499,-4.0411,-3.9806,-3.9137,-3.8512,-3.8358,-3.8037,-3.7613,-3.7515,-3.725,-3.6789,-3.6543,-3.6628,-3.6915,-3.6555,-3.6127,-3.5607,-3.5657,-3.517,-3.4339,-3.4289,-3.41,-3.3844,-3.3807,-3.3807,-3.3807,-3.3807,-3.3807,-3.3807,-3.3807,-3.3807,-3.3807,-3.3807,-3.3807,-3.3807,-3.3807,-3.3807,-3.3788,-3.3739,-3.3812,-3.396,-3.3834,-3.3553,-3.3109,-3.2981,-3.2852,-3.2789,-3.264,-3.2523,-3.2456,-3.2564,-3.2716,-3.2962,-3.3353,-3.3758,-3.4032,-3.46,-3.5148,-3.5583,-3.5616,-3.5616,-3.5616,-3.5616,-3.5616,-3.5616,-3.5616,-3.5616,-3.5616,-3.5616,-3.5616,-3.5616,-3.5616,-3.5616,-3.565,-3.5904,-3.6265,-3.6778,-3.7083,-3.7533,-3.821,-3.8345,-3.8616,-3.9326,-3.9842,-4.0062,-4.0113,-4.0113,-4.0113,-4.0113,-4.0113,-4.0113,-4.0113,-4.0113,-4.0113,-4.0113,-4.0113,-4.0113,-4.0113,-4.0113,-4.0113,-4.0062,-3.9884,-3.9703,-3.9703,-3.9185,-3.8832,-3.8805,-3.8303,-3.7801,-3.7381,-3.6544,-3.586,-3.4973,-3.4666,-3.4511,-4.0004,-3.9687,-3.9007,-3.8276,-3.7547,-3.7449,-3.7192,-3.6851,-3.6825,-3.6595,-3.6227,-3.56,-3.5547,-3.589,-3.588,-3.543,-3.4847,-3.4847,-3.452,-3.3892,-3.386,-3.3855,-3.386,-3.386,-3.3842,-3.3842,-3.3847,-3.3815,-3.3807,-3.3807,-3.3807,-3.3807,-3.3807,-3.3807,-3.3807,-3.3807,-3.3807,-3.3793,-3.3734,-3.3716,-3.3651,-3.3506,-3.3345,-3.3165,-3.3075,-3.2932,-3.2854,-3.2722,-3.2606,-3.254,-3.2353,-3.2388,-3.2727,-3.2764,-3.2997,-3.3577,-3.4164,-3.4709,-3.5284,-3.5481,-3.5616,-3.5616,-3.5616,-3.5616,-3.5616,-3.5616,-3.5616,-3.5616,-3.5616,-3.5616,-3.5616,-3.5616,-3.5616,-3.5616,-3.5616,-3.5893,-3.6349,-3.6468,-3.6755,-3.7449,-3.7584,-3.7872,-3.8599,-3.9276,-3.9757,-3.9757,-3.996,-4.0113,-4.0113,-4.0113,-4.0113,-4.0113,-4.0113,-4.0113,-4.0113,-4.0113,-4.0113,-4.0113,-4.0113,-4.0113,-4.0087,-3.9884,-3.9668,-3.959,-3.9104,-3.8597,-3.8204,-3.7818,-3.7297,-3.6817,-3.6015,-3.503,-3.4409,-3.397,-3.3683,-3.8812,-3.8059,-3.784,-3.7696,-3.7632,-3.7413,-3.6926,-3.6195,-3.6092,-3.5571,-3.4883,-3.4741,-3.46,-3.4575,-3.4476,-3.4172,-3.4072,-3.4109,-3.4109,-3.4004,-3.3967,-3.3985,-3.3985,-3.3985,-3.3985,-3.3972,-3.3921,-3.3868,-3.382,-3.3807,-3.3807,-3.3807,-3.3807,-3.3807,-3.3807,-3.3807,-3.3807,-3.3807,-3.3793,-3.3766,-3.3698,-3.3633,-3.3491,-3.3289,-3.3106,-3.3013,-3.2963,-3.287,-3.274,-3.2606,-3.2456,-3.2319,-3.223,-3.2601,-3.3041,-3.3546,-3.4096,-3.4477,-3.4607,-3.5165,-3.5549,-3.5566,-3.5583,-3.5616,-3.5616,-3.5616,-3.5616,-3.5616,-3.5616,-3.5616,-3.5616,-3.5616,-3.5616,-3.5616,-3.5616,-3.565,-3.5684,-3.5785,-3.6045,-3.6677,-3.6914,-3.7252,-3.7872,-3.8582,-3.8971,-3.9157,-3.9622,-3.9977,-3.9876,-3.996,-3.9943,-3.9926,-3.9943,-4.0079,-4.0062,-4.0096,-4.0096,-4.0062,-4.0028,-3.9986,-3.9978,-3.991,-3.9653,-3.9368,-3.8797,-3.8194,-3.7551,-3.6917,-3.6289,-3.5742,-3.5132,-3.4368,-3.3765,-3.3923,-3.3591,-3.7947,-3.7145,-3.7017,-3.6665,-3.6103,-3.6024,-3.5732,-3.5382,-3.5314,-3.5074,-3.4766,-3.4718,-3.4676,-3.4583,-3.4473,-3.4328,-3.4197,-3.4197,-3.4173,-3.4136,-3.4086,-3.4061,-3.4061,-3.4005,-3.3998,-3.3998,-3.3972,-3.3947,-3.3921,-3.3881,-3.3855,-3.3855,-3.3815,-3.3807,-3.3807,-3.3807,-3.3807,-3.3807,-3.3807,-3.3748,-3.373,-3.3671,-3.3591,-3.3422,-3.3277,-3.314,-3.2995,-3.2918,-3.277,-3.2588,-3.2506,-3.2353,-3.2126,-3.2061,-3.2314,-3.2849,-3.3107,-3.3388,-3.3816,-3.4489,-3.4895,-3.4945,-3.5346,-3.56,-3.5616,-3.5616,-3.5616,-3.5616,-3.5616,-3.5616,-3.5616,-3.5616,-3.5616,-3.5616,-3.5616,-3.5616,-3.5616,-3.5616,-3.5718,-3.6062,-3.6434,-3.6948,-3.7212,-3.7838,-3.8278,-3.8328,-3.8548,-3.8717,-3.87,-3.87,-3.8785,-3.87,-3.8684,-3.8684,-3.8684,-3.958,-4.0062,-3.9926,-3.98,-3.9412,-3.9277,-3.8765,-3.8413,-3.8208,-3.7887,-3.748,-3.6718,-3.603,-3.5375,-3.4673,-3.4071,-3.3673,-3.3043,-3.3144,-3.2801,-3.6846,-3.6315,-3.6228,-3.5841,-3.5245,-3.5223,-3.5119,-3.5001,-3.4983,-3.4917,-3.4859,-3.482,-3.479,-3.4747,-3.4676,-3.4602,-3.4443,-3.4363,-3.4305,-3.4276,-3.4221,-3.4166,-3.4161,-3.4124,-3.4086,-3.4061,-3.4036,-3.4023,-3.3998,-3.3959,-3.3934,-3.3921,-3.3873,-3.3829,-3.3834,-3.382,-3.3807,-3.3807,-3.3807,-3.378,-3.3739,-3.373,-3.3657,-3.3563,-3.3455,-3.3274,-3.3106,-3.2997,-3.2868,-3.2705,-3.2589,-3.2404,-3.2108,-3.1838,-3.1819,-3.2178,-3.2386,-3.2666,-3.3113,-3.3766,-3.4235,-3.4489,-3.4945,-3.5312,-3.5549,-3.5616,-3.5616,-3.5616,-3.5616,-3.5616,-3.5616,-3.5616,-3.5616,-3.5616,-3.5616,-3.5616,-3.5616,-3.5616,-3.5616,-3.5701,-3.6062,-3.6366,-3.6502,-3.7094,-3.7449,-3.755,-3.7719,-3.7905,-3.7898,-3.7898,-3.7898,-3.7898,-3.8007,-3.8058,-3.8108,-3.8751,-3.9056,-3.8988,-3.9005,-3.8702,-3.8343,-3.7767,-3.7319,-3.7061,-3.6748,-3.6382,-3.584,-3.5147,-3.4459,-3.376,-3.337,-3.3011,-3.2609,-3.23,-3.2203,-3.552,-3.5477,-3.5405,-3.5419,-3.5293,-3.5253,-3.5185,-3.5153,-3.511,-3.502,-3.4917,-3.4889,-3.486,-3.4829,-3.4809,-3.4788,-3.4728,-3.4539,-3.442,-3.4416,-3.4386,-3.4351,-3.4305,-3.4281,-3.4171,-3.4074,-3.408,-3.3981,-3.3802,-3.3752,-3.3758,-3.3856,-3.3694,-3.3582,-3.3821,-3.3571,-3.366,-3.3587,-3.3532,-3.3605,-3.3738,-3.3538,-3.3497,-3.3579,-3.3472,-3.3364,-3.3274,-3.3106,-3.2963,-3.2884,-3.2705,-3.2455,-3.2161,-3.1911,-3.1744,-3.1768,-3.2161,-3.2417,-3.2533,-3.3062,-3.3694,-3.4117,-3.4438,-3.4776,-3.5312,-3.5481,-3.5515,-3.56,-3.5616,-3.5616,-3.5616,-3.5616,-3.5616,-3.5616,-3.5616,-3.5616,-3.5616,-3.5616,-3.5616,-3.5616,-3.5718,-3.5633,-3.5769,-3.6315,-3.6738,-3.6874,-3.7229,-3.7584,-3.7516,-3.7516,-3.7746,-3.7729,-3.7493,-3.7307,-3.7577,-3.7865,-3.7872,-3.7855,-3.7939,-3.7865,-3.7612,-3.7148,-3.6653,-3.6348,-3.5987,-3.5623,-3.5009,-3.4335,-3.3731,-3.3115,-3.2757,-3.2607,-3.2419,-3.2247,-3.2191,-3.5496,-3.5469,-3.5427,-3.5391,-3.5369,-3.5312,-3.5258,-3.5185,-3.5168,-3.5136,-3.5038,-3.5029,-3.5011,-3.4993,-3.4917,-3.486,-3.4869,-3.472,-3.4636,-3.4556,-3.4513,-3.4469,-3.4394,-3.4348,-3.403,-3.3525,-3.338,-3.3029,-3.2597,-3.2476,-3.2427,-3.2415,-3.2373,-3.2293,-3.233,-3.2218,-3.2193,-3.2168,-3.2137,-3.2149,-3.2149,-3.2142,-3.2379,-3.2807,-3.2839,-3.298,-3.3383,-3.3274,-3.3106,-3.2898,-3.2852,-3.2657,-3.2336,-3.2037,-3.1839,-3.1744,-3.1762,-3.1762,-3.1771,-3.2286,-3.275,-3.3055,-3.3457,-3.4083,-3.4709,-3.4844,-3.5064,-3.5464,-3.56,-3.5616,-3.5616,-3.5616,-3.5616,-3.5616,-3.5616,-3.5616,-3.5616,-3.5616,-3.5616,-3.5616,-3.5616,-3.5616,-3.5633,-3.596,-3.6045,-3.6062,-3.6259,-3.6394,-3.636,-3.6479,-3.6309,-3.6309,-3.6309,-3.6529,-3.6681,-3.6783,-3.6766,-3.6884,-3.7026,-3.7057,-3.6831,-3.6578,-3.608,-3.5638,-3.5255,-3.4836,-3.4236,-3.3704,-3.3212,-3.2908,-3.2765,-3.2597,-3.2441,-3.2342,-3.2274,-3.554,-3.5541,-3.5495,-3.5474,-3.5427,-3.5398,-3.5327,-3.5239,-3.5231,-3.5209,-3.5153,-3.5145,-3.5119,-3.5035,-3.4688,-3.449,-3.4442,-3.415,-3.3942,-3.3911,-3.4139,-3.4001,-3.3674,-3.3523,-3.3262,-3.2758,-3.2608,-3.2325,-3.1831,-3.1748,-3.1744,-3.1751,-3.1668,-3.1646,-3.158,-3.1556,-3.1501,-3.1452,-3.1458,-3.144,-3.1415,-3.1403,-3.1629,-3.2036,-3.2083,-3.2273,-3.2652,-3.2567,-3.2664,-3.2932,-3.2963,-3.274,-3.2422,-3.2179,-3.2019,-3.1838,-3.1707,-3.1555,-3.144,-3.1735,-3.208,-3.233,-3.275,-3.3305,-3.3897,-3.41,-3.4353,-3.4692,-3.5008,-3.5177,-3.5216,-3.5481,-3.5583,-3.5616,-3.5616,-3.5616,-3.5616,-3.5616,-3.5616,-3.5616,-3.5616,-3.5616,-3.5616,-3.5616,-3.5616,-3.5616,-3.5616,-3.5616,-3.5616,-3.565,-3.5616,-3.5616,-3.5769,-3.5853,-3.5701,-3.5701,-3.5684,-3.5887,-3.6124,-3.6127,-3.6038,-3.5857,-3.5485,-3.5029,-3.4642,-3.4489,-3.3957,-3.3614,-3.3203,-3.3016,-3.2827,-3.2621,-3.248,-3.237,-3.2315,-3.5608,-3.5623,-3.5617,-3.5554,-3.5514,-3.5507,-3.5427,-3.533,-3.5315,-3.522,-3.5119,-3.5026,-3.4947,-3.4746,-3.4033,-3.3739,-3.3617,-3.3116,-3.2684,-3.2673,-3.294,-3.2945,-3.2441,-3.2339,-3.2163,-3.1874,-3.1834,-3.1708,-3.1396,-3.1403,-3.1663,-3.1437,-3.1355,-3.1506,-3.1298,-3.1436,-3.1248,-3.1133,-3.1213,-3.117,-3.1121,-3.1146,-3.1237,-3.1311,-3.1266,-3.132,-3.1482,-3.1424,-3.1886,-3.2952,-3.2883,-3.2631,-3.2473,-3.2423,-3.2249,-3.1966,-3.1856,-3.1707,-3.1538,-3.1455,-3.1616,-3.2096,-3.2212,-3.2547,-3.3186,-3.3339,-3.344,-3.366,-3.4117,-3.4438,-3.4556,-3.5047,-3.543,-3.56,-3.5616,-3.5616,-3.5616,-3.5616,-3.5616,-3.5616,-3.5616,-3.5616,-3.5616,-3.5616,-3.5616,-3.5616,-3.5616,-3.5616,-3.5616,-3.5616,-3.5616,-3.5616,-3.5616,-3.5616,-3.5616,-3.5616,-3.5616,-3.565,-3.5785,-3.5683,-3.5532,-3.5328,-3.5128,-3.4667,-3.4325,-3.4126,-3.3899,-3.3633,-3.3372,-3.3203,-3.2973,-3.2715,-3.2578,-3.2496,-3.2425,-3.562,-3.5608,-3.5604,-3.5585,-3.5573,-3.5566,-3.5522,-3.5443,-3.5441,-3.5002,-3.4525,-3.4381,-3.4044,-3.3409,-3.3142,-3.3001,-3.2909,-3.2683,-3.2213,-3.1735,-3.1729,-3.2014,-3.2108,-3.2074,-3.1686,-3.1177,-3.1042,-3.0663,-3.0081,-3.0163,-3.0134,-3.0028,-3.0129,-3.0049,-2.9931,-3.0013,-2.9876,-2.9813,-2.9775,-2.9777,-2.9773,-2.9726,-2.9953,-3.0485,-3.0497,-3.0748,-3.121,-3.1177,-3.1483,-3.2282,-3.2169,-3.2282,-3.2579,-3.2471,-3.2301,-3.2179,-3.1965,-3.1781,-3.1707,-3.1557,-3.1543,-3.1531,-3.1647,-3.1845,-3.2513,-3.2598,-3.2848,-3.3237,-3.3626,-3.3694,-3.3812,-3.4353,-3.4945,-3.5515,-3.5464,-3.5515,-3.56,-3.5616,-3.5616,-3.5616,-3.5616,-3.5616,-3.5616,-3.5616,-3.5616,-3.5616,-3.5616,-3.5616,-3.5616,-3.5616,-3.5616,-3.5616,-3.5616,-3.5616,-3.5616,-3.5616,-3.5616,-3.5616,-3.5628,-3.5554,-3.5358,-3.5115,-3.4923,-3.4643,-3.4448,-3.425,-3.4101,-3.3889,-3.3658,-3.344,-3.324,-3.3027,-3.2812,-3.2703,-3.2594,-3.564,-3.5635,-3.5631,-3.5628,-3.5616,-3.5616,-3.5385,-3.504,-3.4976,-3.4481,-3.3763,-3.3647,-3.3358,-3.2838,-3.244,-3.2227,-3.2201,-3.1807,-3.1343,-3.0977,-3.0815,-3.0926,-3.1137,-3.1167,-3.0847,-3.0414,-3.03,-2.9979,-2.9565,-2.9443,-2.9431,-2.9456,-2.939,-2.9378,-2.9418,-2.9326,-2.9312,-2.9269,-2.9197,-2.9163,-2.9108,-2.9074,-2.923,-2.9641,-2.9684,-2.9935,-3.0241,-3.0208,-3.062,-3.1349,-3.1484,-3.153,-3.1849,-3.2085,-3.2031,-3.1931,-3.1969,-3.2018,-3.1801,-3.1688,-3.1557,-3.1406,-3.1351,-3.148,-3.1777,-3.1856,-3.2107,-3.2357,-3.273,-3.2899,-3.3068,-3.3592,-3.4184,-3.4523,-3.467,-3.4923,-3.5464,-3.5616,-3.5616,-3.56,-3.5616,-3.56,-3.56,-3.56,-3.56,-3.5616,-3.5616,-3.5616,-3.5616,-3.5616,-3.5616,-3.5616,-3.5583,-3.5583,-3.5515,-3.5498,-3.5363,-3.538,-3.5206,-3.5189,-3.5057,-3.4811,-3.4736,-3.4576,-3.4496,-3.4358,-3.4088,-3.3939,-3.3915,-3.3684,-3.3529,-3.3272,-3.3013,-3.2638,-3.2562,-3.5713,-3.5707,-3.5623,-3.5538,-3.5438,-3.5355,-3.4797,-3.4286,-3.4177,-3.3697,-3.2998,-3.2857,-3.2679,-3.2615,-3.1751,-3.1482,-3.1444,-3.0849,-3.0503,-3.0322,-3.0259,-3.0251,-3.0227,-3.0172,-3.0018,-2.986,-2.9729,-2.9664,-2.956,-2.9512,-2.9472,-2.9433,-2.9412,-2.9421,-2.9409,-2.9399,-2.9376,-2.9334,-2.9291,-2.9229,-2.9163,-2.913,-2.914,-2.912,-2.9133,-2.9122,-2.9112,-2.9094,-2.9557,-3.0708,-3.0771,-3.0758,-3.0695,-3.1296,-3.1391,-3.1276,-3.1598,-3.1777,-3.1755,-3.163,-3.164,-3.1506,-3.1408,-3.1315,-3.1378,-3.1387,-3.1399,-3.1461,-3.1836,-3.2192,-3.2479,-3.2949,-3.3355,-3.3609,-3.3558,-3.4078,-3.4957,-3.5363,-3.5363,-3.5363,-3.5346,-3.538,-3.5481,-3.5498,-3.5498,-3.56,-3.5616,-3.5616,-3.5616,-3.5616,-3.5616,-3.5616,-3.5583,-3.5532,-3.5464,-3.538,-3.5194,-3.5059,-3.4757,-3.4611,-3.4588,-3.4465,-3.4485,-3.4376,-3.387,-3.3742,-3.3769,-3.3746,-3.3719,-3.3448,-3.2926,-3.2972,-3.2982,-3.252,-3.2296,-3.5708,-3.563,-3.4967,-3.4661,-3.4538,-3.3933,-3.3555,-3.3371,-3.3349,-3.2875,-3.2199,-3.2017,-3.1634,-3.1056,-3.0915,-3.0742,-3.0802,-3.0487,-3.0356,-3.0273,-3.0214,-3.0185,-3.0117,-2.9991,-2.9866,-2.9853,-2.9809,-2.9728,-2.9664,-2.9655,-2.9607,-2.9492,-2.9482,-2.9472,-2.9471,-2.9412,-2.9382,-2.938,-2.9307,-2.9283,-2.924,-2.9207,-2.9134,-2.9067,-2.904,-2.8987,-2.8964,-2.8929,-2.9064,-2.9375,-2.98,-3.0216,-3.0542,-3.0707,-3.0716,-3.0665,-3.057,-3.0811,-3.1166,-3.1168,-3.125,-3.1588,-3.1493,-3.1468,-3.1315,-3.1312,-3.1254,-3.123,-3.1379,-3.1718,-3.2141,-3.2412,-3.273,-3.3068,-3.3254,-3.3406,-3.3795,-3.3914,-3.3994,-3.3977,-3.3994,-3.4117,-3.4641,-3.4726,-3.4962,-3.5414,-3.5549,-3.5566,-3.5498,-3.5397,-3.5295,-3.5126,-3.5126,-3.4974,-3.4788,-3.4726,-3.4585,-3.4462,-3.4229,-3.3873,-3.3851,-3.3834,-3.3719,-3.3429,-3.2997,-3.3014,-3.3283,-3.2985,-3.2828,-3.2571,-3.241,-3.244,-3.2387,-3.2094,-3.2016,-3.4529,-3.4477,-3.4032,-3.3815,-3.3713,-3.3301,-3.2866,-3.2546,-3.2473,-3.2023,-3.1352,-3.1196,-3.094,-3.0559,-3.0525,-3.05,-3.0485,-3.0436,-3.0385,-3.0317,-3.028,-3.0247,-3.0226,-3.0116,-3.0019,-2.9959,-2.9893,-2.9825,-2.98,-2.9756,-2.9701,-2.9598,-2.9589,-2.956,-2.9521,-2.9463,-2.9433,-2.9392,-2.937,-2.9336,-2.9294,-2.9262,-2.9218,-2.9134,-2.9096,-2.9051,-2.9033,-2.8994,-2.894,-2.8991,-2.9217,-2.9473,-2.9814,-3.002,-3.0073,-2.9946,-3.0219,-3.0253,-3.0564,-3.0555,-3.0681,-3.1286,-3.1212,-3.1289,-3.1365,-3.1408,-3.1332,-3.1274,-3.1286,-3.1419,-3.1735,-3.1785,-3.2073,-3.2222,-3.2391,-3.2374,-3.2476,-3.2949,-3.3389,-3.3389,-3.3491,-3.3643,-3.3863,-3.3964,-3.4066,-3.4399,-3.4421,-3.4438,-3.437,-3.4286,-3.4353,-3.432,-3.4382,-3.4298,-3.4083,-3.3947,-3.3858,-3.3769,-3.3633,-3.3215,-3.2899,-3.2861,-3.2818,-3.2586,-3.2436,-3.2617,-3.2751,-3.2374,-3.2184,-3.228,-3.2228,-3.1973,-3.1838,-3.1823,-3.1781,-3.3204,-3.32,-3.3059,-3.2966,-3.2909,-3.2725,-3.2251,-3.1686,-3.1623,-3.1294,-3.0733,-3.0617,-3.0666,-3.0588,-3.0554,-3.0501,-3.0486,-3.0455,-3.0431,-3.0402,-3.0354,-3.0317,-3.0299,-3.0227,-3.0159,-3.0061,-2.998,-2.9924,-2.9893,-2.9851,-2.979,-2.9738,-2.971,-2.9655,-2.9579,-2.954,-2.9521,-2.9471,-2.9423,-2.939,-2.9318,-2.9315,-2.9283,-2.9218,-2.9163,-2.913,-2.9089,-2.9044,-2.8987,-2.894,-2.8917,-2.8791,-2.8838,-2.9109,-2.9436,-2.9229,-2.9658,-2.9884,-2.9914,-2.9895,-3.0048,-3.0595,-3.056,-3.0799,-3.1189,-3.1319,-3.1293,-3.1336,-3.1329,-3.1271,-3.1227,-3.1292,-3.1258,-3.1292,-3.1241,-3.119,-3.141,-3.2357,-3.278,-3.2916,-3.2713,-3.2763,-3.3051,-3.3237,-3.3305,-3.3334,-3.3339,-3.3339,-3.3322,-3.3389,-3.3592,-3.3744,-3.388,-3.3626,-3.3339,-3.2865,-3.2831,-3.2874,-3.2828,-3.2517,-3.2072,-3.196,-3.1974,-3.2121,-3.2105,-3.2133,-3.2056,-3.1737,-3.1697,-3.1997,-3.1785,-3.1323,-3.1339,-3.1577,-3.1436,-3.3288,-3.3235,-3.252,-3.214,-3.1984,-3.1342,-3.1019,-3.0808,-3.0866,-3.0756,-3.0622,-3.0617,-3.0602,-3.0598,-3.0593,-3.0559,-3.0501,-3.0495,-3.0465,-3.0458,-3.0417,-3.0383,-3.0367,-3.0317,-3.0273,-3.0233,-3.013,-3.003,-2.9972,-2.9916,-2.9874,-2.9851,-2.9799,-2.9746,-2.9691,-2.9645,-2.9608,-2.955,-2.9521,-2.9471,-2.9411,-2.938,-2.9339,-2.9283,-2.9218,-2.9178,-2.9156,-2.9112,-2.9067,-2.9074,-2.8964,-2.8905,-2.884,-2.8856,-2.882,-2.8774,-2.877,-2.9055,-2.9281,-2.9208,-2.9474,-2.9906,-3.0018,-3.0196,-3.061,-3.0798,-3.0929,-3.1261,-3.1283,-3.124,-3.121,-3.121,-3.119,-3.119,-3.119,-3.119,-3.1258,-3.1512,-3.1782,-3.1884,-3.1816,-3.185,-3.2222,-3.2527,-3.2611,-3.273,-3.2831,-3.2865,-3.2899,-3.3017,-3.322,-3.3355,-3.3474,-3.3051,-3.2594,-3.2002,-3.1681,-3.1816,-3.181,-3.1786,-3.1422,-3.1187,-3.1165,-3.1462,-3.1335,-3.1118,-3.1004,-3.1016,-3.1023,-3.1188,-3.0888,-3.0604,-3.0783,-3.0939,-3.0666,-3.1995,-3.1968,-3.1546,-3.1343,-3.1225,-3.0839,-3.0657,-3.0653,-3.0649,-3.0636,-3.0619,-3.0615,-3.0615,-3.061,-3.0601,-3.0583,-3.054,-3.0515,-3.0491,-3.0495,-3.0474,-3.0453,-3.0431,-3.0389,-3.0373,-3.0336,-3.0254,-3.0173,-3.0113,-3.0034,-2.9988,-2.9924,-2.9874,-2.9832,-2.9816,-2.9764,-2.9719,-2.9645,-2.9608,-2.9531,-2.9453,-2.9423,-2.938,-2.9347,-2.9283,-2.9251,-2.924,-2.9178,-2.9145,-2.9134,-2.9055,-2.8968,-2.8929,-2.8834,-2.87,-2.8562,-2.845,-2.8412,-2.8673,-2.861,-2.8844,-2.9347,-2.9411,-2.965,-3.0022,-3.0231,-3.0402,-3.0772,-3.0935,-3.0976,-3.1203,-3.1184,-3.1232,-3.121,-3.114,-3.1123,-3.1157,-3.1157,-3.1106,-3.1089,-3.1309,-3.1461,-3.1562,-3.1799,-3.1935,-3.2087,-3.2273,-3.2357,-3.2425,-3.2476,-3.2577,-3.2527,-3.2544,-3.2357,-3.1968,-3.1613,-3.119,-3.119,-3.119,-3.1151,-3.1041,-3.0962,-3.0915,-3.1015,-3.0725,-3.0415,-3.0534,-3.0728,-3.0558,-3.0459,-3.0491,-3.0471,-3.0373,-3.0248,-3.013,-3.0788,-3.0785,-3.0793,-3.0772,-3.0717,-3.0716,-3.073,-3.0703,-3.0699,-3.0665,-3.0622,-3.0618,-3.0618,-3.0614,-3.0621,-3.06,-3.0592,-3.055,-3.0525,-3.0511,-3.051,-3.0519,-3.0479,-3.0439,-3.0431,-3.0427,-3.0354,-3.0292,-3.0213,-3.0138,-3.0087,-3.0034,-2.998,-2.9932,-2.991,-2.9859,-2.98,-2.9756,-2.9682,-2.9617,-2.954,-2.9443,-2.9392,-2.9399,-2.9336,-2.9323,-2.9304,-2.9251,-2.9229,-2.9207,-2.9145,-2.9078,-2.901,-2.8952,-2.8846,-2.8687,-2.8587,-2.8432,-2.8336,-2.8235,-2.8458,-2.8827,-2.8757,-2.909,-2.9524,-2.9743,-2.9886,-3.0193,-3.0258,-3.0321,-3.0604,-3.0787,-3.0768,-3.0711,-3.0673,-3.0738,-3.0603,-3.0567,-3.0615,-3.0717,-3.0937,-3.1089,-3.1207,-3.1376,-3.1562,-3.1579,-3.1749,-3.1698,-3.1749,-3.163,-3.163,-3.1512,-3.1461,-3.1478,-3.1376,-3.1444,-3.119,-3.119,-3.119,-3.1171,-3.103,-3.0906,-3.0807,-3.066,-3.0386,-3.0181,-3.0319,-3.0472,-3.0485,-3.0464,-3.0422,-3.0401,-3.038,-3.0359,-3.0295,-3.0792,-3.0786,-3.0785,-3.0792,-3.0788,-3.0767,-3.0759,-3.0697,-3.0713,-3.0695,-3.0706,-3.0687,-3.0667,-3.0676,-3.068,-3.0661,-3.0621,-3.0589,-3.0595,-3.0577,-3.0578,-3.054,-3.0515,-3.049,-3.0479,-3.0483,-3.0417,-3.0354,-3.0299,-3.0227,-3.018,-3.0145,-3.0094,-3.0049,-3.0007,-2.9951,-2.9883,-2.9851,-2.9763,-2.9664,-2.9579,-2.9463,-2.9423,-2.9392,-2.9399,-2.9386,-2.9357,-2.9315,-2.9302,-2.9272,-2.9229,-2.9145,-2.9078,-2.9021,-2.8952,-2.8846,-2.8712,-2.8562,-2.8463,-2.8331,-2.8241,-2.8393,-2.8276,-2.8464,-2.8862,-2.9334,-2.9519,-2.9575,-2.961,-2.9643,-2.9725,-2.9586,-2.95,-2.9566,-2.968,-2.9611,-2.9525,-2.991,-2.9976,-3.0093,-3.0228,-3.0618,-3.0869,-3.1055,-3.1207,-3.119,-3.119,-3.1173,-3.119,-3.119,-3.0987,-3.092,-3.0835,-3.0818,-3.0548,-3.0649,-3.0717,-3.0852,-3.0852,-3.0852,-3.0613,-3.0372,-3.0499,-3.0317,-3.0012,-2.9879,-2.9982,-3.0153,-3.0377,-3.0468,-3.0464,-3.0464,-3.0468,-3.0447,-3.0368,-3.082,-3.0857,-3.0829,-3.0803,-3.0796,-3.0803,-3.0786,-3.0772,-3.076,-3.0762,-3.0761,-3.0758,-3.0746,-3.0707,-3.0694,-3.0695,-3.0653,-3.0645,-3.0633,-3.0617,-3.0604,-3.0591,-3.0573,-3.0545,-3.055,-3.054,-3.0485,-3.0433,-3.0371,-3.0273,-3.026,-3.0208,-3.0168,-3.0145,-2.9934,-3.0004,-2.9953,-2.9872,-2.977,-2.9691,-2.9655,-2.9569,-2.9481,-2.9412,-2.9392,-2.939,-2.9378,-2.9357,-2.9365,-2.9344,-2.9283,-2.9251,-2.9189,-2.9134,-2.9067,-2.8952,-2.8881,-2.8749,-2.8574,-2.845,-2.8371,-2.8291,-2.8182,-2.8191,-2.8352,-2.8515,-2.8862,-2.9048,-2.9017,-2.9056,-2.9248,-2.9368,-2.9299,-2.9194,-2.8954,-2.9004,-2.9003,-2.9066,-2.9302,-2.9402,-2.9536,-2.9892,-3.0315,-3.0685,-3.0838,-3.0903,-3.0937,-3.097,-3.1072,-3.119,-3.0886,-3.0497,-3.0412,-3.0328,-2.9924,-2.9704,-2.9721,-2.9805,-2.9805,-2.9788,-2.9771,-2.9717,-2.9779,-2.9671,-2.9324,-2.9326,-2.9543,-2.9932,-3.0277,-3.0398,-3.0489,-3.0323,-3.0195,-3.039,-3.0348,-3.0828,-3.0878,-3.0839,-3.0817,-3.0834,-3.0826,-3.0817,-3.0788,-3.0798,-3.0802,-3.0789,-3.0801,-3.0764,-3.0739,-3.0733,-3.0717,-3.0703,-3.0699,-3.0665,-3.063,-3.0614,-3.0606,-3.0613,-3.0586,-3.0597,-3.0573,-3.0187,-3.0105,-3.0016,-2.9853,-2.9642,-2.9972,-2.9819,-2.9666,-2.9556,-2.9386,-2.9288,-2.9491,-2.9408,-2.9481,-2.9635,-2.9655,-2.9569,-2.9491,-2.9423,-2.9392,-2.938,-2.9378,-2.9396,-2.9368,-2.9336,-2.9304,-2.9272,-2.9229,-2.9156,-2.9067,-2.9028,-2.8935,-2.8749,-2.8612,-2.851,-2.8419,-2.83,-2.8158,-2.8003,-2.7868,-2.7889,-2.8469,-2.8425,-2.8628,-2.888,-2.8934,-2.8747,-2.8595,-2.8562,-2.8648,-2.8664,-2.8527,-2.8577,-2.8763,-2.8881,-2.9014,-2.9488,-3.0148,-3.0451,-3.0567,-3.0649,-3.07,-3.0717,-3.0734,-3.0378,-2.9854,-2.9786,-2.9685,-2.945,-2.9094,-2.8993,-2.8874,-2.8857,-2.8976,-2.9111,-2.8991,-2.8904,-2.8765,-2.8627,-2.8822,-2.9044,-2.9655,-3.0142,-2.9816,-2.9589,-2.9768,-2.9831,-3.0029,-3.0141,-3.0791,-3.0805,-3.0836,-3.0839,-3.0898,-3.0897,-3.0855,-3.0808,-3.0801,-3.0795,-3.0785,-3.0798,-3.08,-3.0782,-3.0772,-3.0759,-3.0694,-3.0698,-3.0584,-3.059,-3.0668,-3.0397,-3.0284,-3.0257,-3.0365,-3.0264,-2.975,-2.9403,-2.9215,-2.8816,-2.8814,-2.9069,-2.9087,-2.8629,-2.8376,-2.8332,-2.8486,-2.87,-2.8736,-2.9011,-2.9312,-2.9466,-2.9439,-2.941,-2.9388,-2.9402,-2.9373,-2.9372,-2.9277,-2.9258,-2.9192,-2.9013,-2.8878,-2.8886,-2.8796,-2.8724,-2.8706,-2.861,-2.8496,-2.8603,-2.863,-2.8554,-2.8437,-2.8259,-2.815,-2.8095,-2.8071,-2.8015,-2.8047,-2.7922,-2.7901,-2.7703,-2.7973,-2.7964,-2.7989,-2.7905,-2.7839,-2.7654,-2.7724,-2.8049,-2.822,-2.8322,-2.8405,-2.8983,-2.9605,-2.9738,-2.9805,-2.9839,-2.9687,-2.9653,-2.9397,-2.9093,-2.9094,-2.9027,-2.8976,-2.8722,-2.8367,-2.8299,-2.8316,-2.8519,-2.8739,-2.8518,-2.806,-2.8162,-2.8143,-2.8342,-2.8474,-2.8667,-2.8777,-2.8679,-2.8738,-2.9101,-2.9145,-2.9138,-2.9301,-2.9214,-2.927,-2.9297,-2.9913,-3.0916,-3.0918,-3.0879,-3.0858,-3.0855,-3.0828,-3.0739,-3.0791,-3.0799,-3.0767,-3.0795,-3.0784,-3.0689,-3.015,-3.0013,-2.9703,-2.9477,-2.9188,-2.9096,-2.9159,-2.9016,-2.9051,-2.8722,-2.8574,-2.8489,-2.8019,-2.7718,-2.7861,-2.8081,-2.8148,-2.7854,-2.7592,-2.7802,-2.7913,-2.7979,-2.8077,-2.8159,-2.8248,-2.8198,-2.8126,-2.8708,-2.8717,-2.8781,-2.9179,-2.9028,-2.8776,-2.8655,-2.8383,-2.8066,-2.7982,-2.7933,-2.7874,-2.7869,-2.7798,-2.7945,-2.8271,-2.8731,-2.8587,-2.8497,-2.8393,-2.8331,-2.8237,-2.8154,-2.8056,-2.7954,-2.785,-2.7748,-2.7692,-2.7687,-2.7544,-2.745,-2.7371,-2.7308,-2.7247,-2.727,-2.7736,-2.7636,-2.7536,-2.7623,-2.776,-2.8371,-2.8892,-2.8943,-2.8942,-2.879,-2.8688,-2.8519,-2.8332,-2.8281,-2.8044,-2.796,-2.7791,-2.7638,-2.7706,-2.7774,-2.7876,-2.7977,-2.7554,-2.7249,-2.7402,-2.752,-2.7553,-2.7534,-2.7449,-2.7613,-2.8022,-2.835,-2.8646,-2.8555,-2.8298,-2.8478,-2.8234,-2.8273,-2.8257,-2.8959,-3.0071,-3.0132,-3.0135,-3.0136,-3.0058,-3.0115,-3.0046,-3.0061,-3.0054,-3.0064,-3.0019,-2.9967,-2.9741,-2.9374,-2.9165,-2.8896,-2.8571,-2.8206,-2.8155,-2.8201,-2.8365,-2.8048,-2.7785,-2.7736,-2.769,-2.7435,-2.6935,-2.6691,-2.6841,-2.7007,-2.6995,-2.7039,-2.7096,-2.723,-2.7208,-2.7266,-2.7369,-2.7425,-2.7401,-2.7389,-2.7835,-2.7968,-2.8045,-2.8259,-2.824,-2.7978,-2.7754,-2.7493,-2.7167,-2.6916,-2.6869,-2.6822,-2.6821,-2.6782,-2.7071,-2.7706,-2.8572,-2.8627,-2.8612,-2.8536,-2.8445,-2.8353,-2.8304,-2.825,-2.8154,-2.8039,-2.7904,-2.7879,-2.7777,-2.7707,-2.76,-2.7539,-2.7478,-2.7419,-2.7373,-2.7464,-2.7332,-2.7319,-2.726,-2.7382,-2.7555,-2.7997,-2.7929,-2.7945,-2.7893,-2.7825,-2.7808,-2.7621,-2.7486,-2.7182,-2.686,-2.7046,-2.7215,-2.7148,-2.7165,-2.7029,-2.6962,-2.6708,-2.6708,-2.6962,-2.6979,-2.6759,-2.6826,-2.7012,-2.7347,-2.7727,-2.7856,-2.787,-2.7684,-2.7463,-2.7757,-2.8118,-2.8196,-2.8134,-2.8202,-2.8382,-2.8384,-2.8468,-2.863,-2.8593,-2.8574,-2.8611,-2.8589,-2.8565,-2.8577,-2.875,-2.878,-2.8629,-2.8398,-2.8227,-2.8121,-2.7853,-2.8012,-2.7959,-2.7834,-2.7589,-2.7793,-2.734,-2.6887,-2.6822,-2.6369,-2.5855,-2.5737,-2.5913,-2.5869,-2.5533,-2.5432,-2.5757,-2.6307,-2.6403,-2.67,-2.6966,-2.7028,-2.6968,-2.6962,-2.7123,-2.7221,-2.7273,-2.7446,-2.7428,-2.7139,-2.7037,-2.6851,-2.6637,-2.6544,-2.6544,-2.6591,-2.6646,-2.6683,-2.68,-2.7448,-2.7903,-2.8317,-2.8173,-2.8209,-2.8401,-2.8433,-2.8296,-2.8074,-2.8242,-2.8228,-2.8178,-2.8095,-2.7982,-2.7882,-2.7777,-2.7719,-2.7677,-2.7632,-2.7585,-2.7494,-2.7463,-2.7434,-2.7247,-2.7138,-2.7075,-2.7112,-2.696,-2.6978,-2.7114,-2.7199,-2.7301,-2.725,-2.7114,-2.6979,-2.6809,-2.6742,-2.6776,-2.6708,-2.6708,-2.6708,-2.6708,-2.6708,-2.6708,-2.6708,-2.6708,-2.6708,-2.6708,-2.6742,-2.7028,-2.7245,-2.694,-2.6837,-2.6669,-2.6752,-2.7115,-2.6432,-2.6473,-2.6481,-2.6485,-2.669,-2.7819,-2.8281,-2.8292,-2.8297,-2.828,-2.8301,-2.83,-2.8299,-2.8296,-2.8212,-2.8167,-2.8101,-2.7506,-2.7378,-2.7275,-2.6937,-2.6532,-2.6539,-2.6682,-2.6573,-2.6409,-2.6112,-2.6106,-2.6,-2.5689,-2.5622,-2.5567,-2.5517,-2.5453,-2.5415,-2.5337,-2.5503,-2.562,-2.5646,-2.5729,-2.5927,-2.5925,-2.5901,-2.5901,-2.6257,-2.6464,-2.6516,-2.6708,-2.673,-2.6376,-2.6268,-2.6019,-2.5675,-2.5509,-2.5409,-2.5381,-2.5372,-2.556,-2.582,-2.6306,-2.6622,-2.7057,-2.7396,-2.7364,-2.7179,-2.7592,-2.7676,-2.7825,-2.8018,-2.8097,-2.8313,-2.8242,-2.8146,-2.8095,-2.8011,-2.7954,-2.7896,-2.7868,-2.7806,-2.7704,-2.763,-2.7554,-2.7434,-2.7293,-2.7215,-2.7104,-2.7055,-2.6975,-2.7062,-2.7062,-2.7113,-2.7062,-2.6977,-2.691,-2.6826,-2.6809,-2.6758,-2.6758,-2.6742,-2.6708,-2.6708,-2.6725,-2.6708,-2.6708,-2.6708,-2.6708,-2.6708,-2.6708,-2.6674,-2.6674,-2.6589,-2.6572,-2.6622,-2.6604,-2.6652,-2.5531,-2.5579,-2.5565,-2.5582,-2.5785,-2.6874,-2.7386,-2.7399,-2.739,-2.7396,-2.736,-2.7362,-2.7363,-2.7343,-2.74,-2.7415,-2.7334,-2.6858,-2.6537,-2.6401,-2.6008,-2.5861,-2.5764,-2.561,-2.5839,-2.5615,-2.5599,-2.5626,-2.5685,-2.5623,-2.5595,-2.558,-2.5554,-2.5513,-2.5453,-2.5423,-2.5346,-2.5394,-2.5397,-2.5332,-2.5331,-2.522,-2.5152,-2.524,-2.5477,-2.5731,-2.5846,-2.6019,-2.621,-2.5718,-2.5426,-2.5201,-2.4754,-2.4572,-2.452,-2.4513,-2.4554,-2.4798,-2.5115,-2.5245,-2.5541,-2.5757,-2.618,-2.649,-2.6509,-2.6911,-2.7017,-2.7194,-2.7507,-2.7776,-2.7954,-2.7957,-2.8035,-2.7955,-2.8138,-2.8065,-2.8085,-2.8039,-2.7982,-2.7864,-2.7722,-2.7669,-2.7495,-2.7542,-2.7434,-2.7341,-2.7247,-2.7084,-2.6954,-2.704,-2.704,-2.7024,-2.6991,-2.6942,-2.6925,-2.6875,-2.6859,-2.6808,-2.6775,-2.6758,-2.6742,-2.6758,-2.6742,-2.6674,-2.664,-2.6623,-2.6674,-2.6691,-2.6623,-2.6624,-2.6657,-2.664,-2.664,-2.6606,-2.6555,-2.5495,-2.5515,-2.5512,-2.5547,-2.5607,-2.5783,-2.5792,-2.5772,-2.577,-2.5819,-2.5785,-2.5925,-2.6029,-2.5858,-2.5801,-2.5918,-2.6015,-2.5854,-2.5849,-2.5824,-2.5741,-2.569,-2.5697,-2.5683,-2.5656,-2.5619,-2.5603,-2.5609,-2.5601,-2.561,-2.5604,-2.5754,-2.5852,-2.5939,-2.595,-2.5975,-2.5749,-2.5537,-2.5332,-2.5278,-2.5231,-2.5181,-2.5149,-2.5164,-2.5209,-2.524,-2.5256,-2.5246,-2.5151,-2.4949,-2.4806,-2.4767,-2.469,-2.4631,-2.4572,-2.453,-2.4515,-2.4564,-2.4611,-2.4677,-2.465,-2.4959,-2.5683,-2.6248,-2.6368,-2.6238,-2.6366,-2.6442,-2.6647,-2.6964,-2.7218,-2.7392,-2.7565,-2.7777,-2.8107,-2.8148,-2.8191,-2.8168,-2.8095,-2.7986,-2.7805,-2.7614,-2.7221,-2.7201,-2.7035,-2.6859,-2.67,-2.6662,-2.6659,-2.7084,-2.7101,-2.7154,-2.7088,-2.704,-2.699,-2.6923,-2.6942,-2.6892,-2.6892,-2.6876,-2.6842,-2.674,-2.6639,-2.6555,-2.6522,-2.6404,-2.6082,-2.62,-2.6505,-2.6522,-2.6488,-2.6691,-2.6674,-2.6674,-2.6657,-2.5452,-2.5491,-2.5515,-2.5517,-2.5551,-2.5587,-2.5603,-2.5615,-2.5629,-2.5639,-2.5705,-2.5694,-2.5878,-2.569,-2.5696,-2.5759,-2.5741,-2.5703,-2.5721,-2.5738,-2.5853,-2.5749,-2.5701,-2.5689,-2.5663,-2.5652,-2.5634,-2.5651,-2.5666,-2.5651,-2.6115,-2.6456,-2.6508,-2.6777,-2.7058,-2.729,-2.6529,-2.5901,-2.5646,-2.5577,-2.5495,-2.5488,-2.5425,-2.54,-2.5384,-2.5361,-2.5292,-2.5208,-2.5134,-2.4986,-2.4858,-2.4806,-2.4776,-2.4711,-2.4645,-2.4572,-2.453,-2.4524,-2.4497,-2.4498,-2.4491,-2.4465,-2.4949,-2.4856,-2.5076,-2.5411,-2.567,-2.5748,-2.5914,-2.626,-2.6518,-2.6697,-2.7019,-2.7392,-2.7655,-2.7718,-2.7779,-2.787,-2.7817,-2.7678,-2.7531,-2.7076,-2.6706,-2.6453,-2.6306,-2.6149,-2.6097,-2.6135,-2.6228,-2.6647,-2.683,-2.6849,-2.6837,-2.6686,-2.6898,-2.6899,-2.6955,-2.6992,-2.6803,-2.6701,-2.6668,-2.6567,-2.6484,-2.6247,-2.5876,-2.5487,-2.5066,-2.5388,-2.5912,-2.6133,-2.6167,-2.6471,-2.6691,-2.664,-2.6674,-2.5397,-2.5455,-2.5464,-2.5646,-2.5955,-2.6052,-2.6242,-2.6487,-2.6257,-2.6137,-2.6205,-2.6564,-2.6692,-2.6763,-2.6773,-2.678,-2.6825,-2.687,-2.6737,-2.6309,-2.623,-2.5955,-2.5853,-2.5748,-2.5683,-2.5693,-2.5758,-2.5855,-2.6057,-2.6537,-2.7037,-2.7342,-2.7394,-2.766,-2.7883,-2.7854,-2.7487,-2.6924,-2.6555,-2.6421,-2.6308,-2.6266,-2.6278,-2.6192,-2.6165,-2.61,-2.6059,-2.6009,-2.5881,-2.558,-2.5409,-2.5158,-2.4994,-2.4753,-2.4692,-2.4629,-2.4572,-2.4555,-2.4539,-2.4505,-2.4515,-2.4517,-2.4511,-2.4485,-2.4552,-2.4838,-2.4919,-2.499,-2.5287,-2.5583,-2.5789,-2.602,-2.6474,-2.6914,-2.7024,-2.7121,-2.7272,-2.7439,-2.7363,-2.7233,-2.6882,-2.6376,-2.6009,-2.577,-2.5727,-2.5808,-2.5844,-2.5843,-2.5844,-2.6001,-2.6107,-2.6115,-2.6177,-2.6184,-2.6435,-2.6542,-2.6373,-2.6222,-2.5987,-2.597,-2.6215,-2.6034,-2.5647,-2.5326,-2.5023,-2.4703,-2.4486,-2.481,-2.525,-2.5438,-2.5523,-2.5592,-2.5946,-2.6404,-2.6488,-2.5317,-2.5413,-2.5474,-2.605,-2.6768,-2.6866,-2.7302,-2.8006,-2.7387,-2.7062,-2.7169,-2.7797,-2.8004,-2.7809,-2.7823,-2.7891,-2.7843,-2.7833,-2.7547,-2.7124,-2.7106,-2.6757,-2.6172,-2.5916,-2.6244,-2.6022,-2.6087,-2.6637,-2.71,-2.7486,-2.7837,-2.8273,-2.8255,-2.8421,-2.8693,-2.8725,-2.8576,-2.8445,-2.8183,-2.8078,-2.7797,-2.7821,-2.7894,-2.7762,-2.7682,-2.7618,-2.7592,-2.7478,-2.7313,-2.6693,-2.6252,-2.5913,-2.5558,-2.5246,-2.5159,-2.5097,-2.5217,-2.5203,-2.5205,-2.5171,-2.5061,-2.4932,-2.4655,-2.4741,-2.4883,-2.4579,-2.4589,-2.4561,-2.4854,-2.498,-2.5142,-2.5277,-2.5599,-2.6049,-2.6315,-2.6525,-2.6787,-2.6819,-2.6652,-2.6483,-2.6123,-2.5637,-2.5237,-2.498,-2.4915,-2.5294,-2.5341,-2.5267,-2.5285,-2.5301,-2.5489,-2.5495,-2.5719,-2.5784,-2.5721,-2.5762,-2.5539,-2.534,-2.5233,-2.5328,-2.5643,-2.5249,-2.4669,-2.4464,-2.4262,-2.4237,-2.4173,-2.4379,-2.4481,-2.4569,-2.4638,-2.4608,-2.5015,-2.5675,-2.6099,-2.5271,-2.5394,-2.6049,-2.6857,-2.7645,-2.7701,-2.7846,-2.8152,-2.8643,-2.8443,-2.8021,-2.8124,-2.8288,-2.842,-2.8422,-2.8452,-2.8402,-2.8613,-2.8194,-2.8026,-2.7973,-2.7491,-2.6968,-2.7109,-2.7148,-2.7107,-2.7256,-2.7666,-2.7957,-2.8251,-2.8603,-2.9118,-2.9135,-2.9295,-2.9791,-2.9823,-2.9816,-2.9732,-2.9702,-2.9133,-2.838,-2.8093,-2.7967,-2.8019,-2.802,-2.8076,-2.8016,-2.7883,-2.77,-2.7383,-2.7299,-2.7117,-2.6918,-2.6764,-2.6703,-2.6658,-2.6424,-2.6308,-2.6274,-2.6202,-2.6176,-2.6084,-2.5909,-2.5621,-2.5298,-2.4735,-2.4404,-2.4367,-2.4367,-2.446,-2.4551,-2.4642,-2.475,-2.5206,-2.5586,-2.5928,-2.6239,-2.6074,-2.5891,-2.5617,-2.5308,-2.4956,-2.4545,-2.4343,-2.4213,-2.4183,-2.4136,-2.4131,-2.424,-2.4331,-2.4908,-2.5062,-2.5398,-2.5468,-2.5248,-2.5032,-2.4847,-2.4902,-2.492,-2.5,-2.5059,-2.4548,-2.4021,-2.3755,-2.3576,-2.3568,-2.3591,-2.3616,-2.3704,-2.3811,-2.3954,-2.4024,-2.4198,-2.4742,-2.5252,-2.4072,-2.4215,-2.5111,-2.6227,-2.731,-2.7816,-2.8219,-2.8736,-2.9574,-2.9703,-2.935,-2.9305,-2.9295,-2.9288,-2.9327,-2.9223,-2.9228,-2.9368,-2.9164,-2.8959,-2.8738,-2.828,-2.8152,-2.812,-2.7909,-2.7871,-2.8471,-2.8828,-2.8853,-2.9326,-2.9782,-2.9998,-3.0033,-3.0188,-3.0717,-3.0707,-3.0701,-3.0655,-3.0694,-3.0074,-2.9094,-2.9106,-2.9159,-2.916,-2.9105,-2.9028,-2.9035,-2.8942,-2.8673,-2.8268,-2.7893,-2.7598,-2.7421,-2.7323,-2.7347,-2.73,-2.7218,-2.7228,-2.725,-2.7264,-2.7266,-2.7034,-2.6812,-2.6393,-2.6235,-2.5679,-2.4826,-2.4716,-2.4457,-2.4496,-2.4459,-2.4506,-2.4515,-2.479,-2.4881,-2.5026,-2.512,-2.504,-2.4897,-2.4735,-2.454,-2.4475,-2.4179,-2.4161,-2.4077,-2.4067,-2.3875,-2.3793,-2.3754,-2.3721,-2.4228,-2.4563,-2.4876,-2.4741,-2.4307,-2.4217,-2.4214,-2.4326,-2.4524,-2.4248,-2.402,-2.3728,-2.3401,-2.3313,-2.3156,-2.2948,-2.2959,-2.3124,-2.3058,-2.3102,-2.3312,-2.3505,-2.368,-2.3803,-2.4145,-2.2732,-2.2884,-2.3746,-2.5063,-2.6583,-2.7446,-2.826,-2.908,-2.9881,-3.0206,-3.0029,-3.007,-3.0422,-3.0669,-3.0695,-3.0704,-3.0586,-3.0299,-3.0054,-2.9832,-2.9691,-2.914,-2.8781,-2.8654,-2.8783,-2.9023,-2.947,-2.968,-2.9752,-3.0187,-3.0482,-3.0754,-3.0774,-3.0753,-3.0733,-3.0698,-3.0695,-3.0707,-3.0704,-3.0697,-3.0648,-3.0695,-3.049,-3.0516,-3.0621,-3.0588,-3.05,-3.0318,-2.9902,-2.9421,-2.8689,-2.8447,-2.8285,-2.8272,-2.8157,-2.8142,-2.8099,-2.7986,-2.7851,-2.7913,-2.7776,-2.7564,-2.737,-2.7212,-2.7072,-2.6476,-2.5621,-2.5204,-2.4945,-2.4538,-2.4494,-2.4449,-2.4441,-2.4395,-2.4377,-2.4358,-2.432,-2.4299,-2.4195,-2.4091,-2.4071,-2.4052,-2.4014,-2.3996,-2.3996,-2.3986,-2.3966,-2.3896,-2.3855,-2.3842,-2.4057,-2.4165,-2.4253,-2.3954,-2.3625,-2.3697,-2.3856,-2.3791,-2.3906,-2.3432,-2.3135,-2.3242,-2.3257,-2.3084,-2.2911,-2.2812,-2.276,-2.2911,-2.2749,-2.2699,-2.2846,-2.3106,-2.3027,-2.3119,-2.3062,-2.2981,-2.3668,-2.3886,-2.4929,-2.6432,-2.678,-2.7383,-2.8107,-2.8347,-2.8494,-2.8519,-2.8644,-2.9179,-3.0658,-3.0711,-3.0639,-3.0503,-3.0625,-3.0756,-3.0575,-3.0373,-2.9901,-2.9626,-2.9662,-3.0225,-3.0349,-3.0371,-3.0546,-3.0406,-3.063,-3.0795,-3.0789,-3.0793,-3.0777,-3.0789,-3.0753,-3.0697,-3.0707,-3.0698,-3.0691,-3.0707,-3.0694,-3.0695,-3.0696,-3.0684,-3.0636,-3.0582,-3.0569,-3.0433,-3.0202,-2.9873,-2.9615,-2.9454,-2.9355,-2.9298,-2.9129,-2.9087,-2.9058,-2.8979,-2.8948,-2.8822,-2.8806,-2.8593,-2.8154,-2.7865,-2.7352,-2.6718,-2.6383,-2.5927,-2.499,-2.477,-2.4668,-2.4632,-2.4503,-2.4439,-2.4367,-2.4321,-2.4312,-2.4265,-2.4199,-2.4179,-2.4122,-2.4044,-2.4026,-2.4026,-2.4026,-2.4026,-2.3976,-2.3966,-2.3955,-2.3935,-2.3894,-2.3863,-2.3789,-2.3725,-2.365,-2.37,-2.3559,-2.3459,-2.3348,-2.3277,-2.3205,-2.3156,-2.3107,-2.3033,-2.294,-2.2919,-2.2881,-2.2859,-2.2829,-2.2733,-2.2745,-2.2619,-2.2617,-2.2733]},{"header":{"parameterUnit":"m.s-1","parameterCategory":1,"la1":31.0,"la2":29.5877,"lo1":-88.7671,"lo2":-86.6584,"dy":0.0162,"dx":0.0185,"nx":115,"ny":88,"refTime":"2024-06-21T06:00:00:Z","depth":0,"parameterNumber":3,"parameterNumberName":"V-component_of_WINDS"},"data":[0.0,0.0,0.0,0.0,0.0,0.0,0.0,0.0,0.0,0.0,0.0,0.0,0.0,0.0,0.0,0.0,0.0,0.0,0.0,0.0,0.0,0.0,0.0,0.0,0.0,0.0,0.0,0.0,0.0,0.0,0.0,0.0,0.0,0.0,0.0,0.0,0.0,0.0,0.0,0.0,0.0,0.0,0.0,0.0,0.0,0.0,0.0,0.0,0.0,0.0,0.0,0.0,0.0,0.0,0.0,0.0,0.0,0.0,0.0,0.0,0.0,0.0,0.0,0.0,0.0,0.0,0.0,0.0,0.0,0.0,0.0,0.0,0.0,0.0,0.0,0.0,0.0,0.0,0.0,0.0,0.0,0.0,0.0,0.0,0.0,0.0,0.0,0.0,0.0,0.0,0.0,0.0,0.0,0.0,0.0,0.0,0.0,0.0,0.0,0.0,0.0,0.0,0.0,0.0,0.0,0.0,0.0,0.0,0.0,0.0,0.0,0.0,0.0,0.0,0.0,0.0,0.0,0.0,0.0,0.0,0.0,0.0,0.0,0.0,0.0,0.0,0.0,0.0,0.0,0.0,0.0,0.0,0.0,0.0,0.0,0.0,0.0,0.0,0.0,0.0,0.0,0.0,0.0,0.0,0.0,0.0,0.0,0.0,0.0,0.0,0.0,0.0,0.0,0.0,0.0,0.0,0.0,0.0,0.0,0.0,0.0,0.0,0.0,0.0,0.0,0.0,0.0,0.0,0.0,0.0,0.0,0.0,0.0,0.0,0.0,0.0,0.0,0.0,0.0,0.0,0.0,0.0,0.0,0.0,0.0,0.0,0.0,0.0,0.0,0.0,0.0,0.0,0.0,0.0,0.0,0.0,0.0,0.0,0.0,0.0,0.0,0.0,0.0,0.0,0.0,0.0,0.0,0.0,0.0,0.0,0.0,0.0,0.0,0.0,0.0,0.0,0.0,0.0,0.0,0.0,0.0,0.0,0.0,0.0,0.0,0.0,0.0,0.0,0.0,0.0,0.0,0.0,0.0,0.0,0.0,0.0,0.0,0.0,0.0,0.0,0.0,0.0,0.0,0.0,0.0,0.0,0.0,0.0,0.0,0.0,0.0,0.0,0.0,0.0,0.0,0.0,0.0,0.0,0.0,0.0,0.0,0.0,0.0,0.0,0.0,0.0,0.0,0.0,0.0,0.0,0.0,0.0,0.0,0.0,0.0,0.0,0.0,0.0,0.0,0.0,0.0,0.0,0.0,0.0,0.0,0.0,0.0,0.0,0.0,0.0,0.0,0.0,0.0,0.0,0.0,0.0,0.0,0.0,0.0,0.0,0.0,0.0,0.0,0.0,0.0,0.0,0.0,0.0,0.0,0.0,0.0,0.0,0.0,0.0,0.0,0.0,0.0,0.0,0.0,0.0,0.0,0.0,0.0,0.0,0.0,0.0,0.0,0.0,0.0,0.0,0.0,0.0,0.0,0.0,0.0,0.0,0.0,0.0,0.0,0.0,0.0,0.0,0.0,0.0,0.0,0.0,0.0,0.0,0.0,0.0,0.0,0.0,0.0,0.0,0.0,0.0,0.0,0.0,0.0,0.0,0.0,0.0,0.0,0.0,0.0,0.0,0.0,0.0,0.0,0.0,0.0,0.0,0.0,0.0,0.0,0.0,0.0,0.0,0.0,0.0,0.0,0.0,0.0,0.0,0.0,0.0,0.0,0.0,0.0,0.0,0.0,0.0,0.0,0.0,0.0,0.0,0.0,0.0,0.0,0.0,0.0,0.0,0.0,0.0,0.0,0.0,0.0,0.0,0.0,0.0,0.0,0.0,0.0,0.0,0.0,0.0,0.0,0.0,0.0,0.0,0.0,0.0,0.0,0.0,0.0,0.0,0.0,0.0,0.0,0.0,0.0,0.0,0.0,0.0,0.0,0.0,0.0,0.0,0.0,0.0,0.0,0.0,0.0,0.0,0.0,0.0,0.0,0.0,0.0,0.0,0.0,0.0,0.0,0.0,0.0,0.0,0.0,0.0,0.0,0.0,0.0,0.0,0.0,0.0,0.0,0.0,0.0,0.0,0.0,0.0,0.0,0.0,0.0,0.0,0.0,0.0,0.0,0.0,0.0,0.0,0.0,0.0,0.0,0.0,0.0,0.0,0.0,0.0,0.0,0.0,0.0,0.0,0.0,0.0,0.0,0.0,0.0,0.0,0.0,0.0,0.0,0.0,0.0,0.0,0.0,0.0,0.0,0.0,0.0,0.0,0.0,0.0,0.0,0.0,0.0,0.0,0.0,0.0,0.0,0.0,0.0,0.0,0.0,0.0,0.0,0.0,0.0,0.0,0.0,0.0,0.0,0.0,0.0,0.0,0.0,0.0,0.0,0.0,0.0,0.0,0.0,0.0,0.0,0.0,0.0,0.0,0.0,0.0,0.0,0.0,0.0,0.0,0.0,0.0,0.0,0.0,0.0,0.0,0.0,0.0,0.0,0.0,0.0,0.0,0.0,0.0,0.0,0.0,0.0,0.0,0.0,0.0,0.0,0.0,0.0,0.0,0.0,0.0,0.0,0.0,0.0,0.0,0.0,0.0,0.0,0.0,0.0,0.0,0.0,0.0,0.0,0.0,0.0,0.0,0.0,0.0,0.0,0.0,0.0,0.0,0.0,0.0,0.0,0.0,0.0,0.0,0.0,0.0,0.0,0.0,0.0,0.0,0.0,0.0,0.0,0.0,0.0,0.0,0.0,0.0,0.0,0.0,0.0,0.0,0.0,0.0,0.0,0.0,0.0,0.0,0.0,0.0,0.0,0.0,0.0,0.0,0.0,0.0,0.0,0.0,0.0,0.0,0.0,0.0,0.0,0.0,0.0,0.0,0.0,0.0,0.0,0.0,0.0,0.0,0.0,0.0,0.0,0.0,0.0,0.0,0.0,0.0,0.0,0.0,0.0,0.0,0.0,0.0,0.0,0.0,0.0,0.0,0.0,0.0,0.0,0.0,0.0,0.0,0.0,0.0,0.0,0.0,0.0,0.0,0.0,0.0,0.0,0.0,0.0,0.0,0.0,0.0,0.0,0.0,0.0,0.0,0.0,0.0,0.0,0.0,0.0,0.0,0.0,0.0,0.0,0.0,0.0,0.0,0.0,0.0,0.0,0.0,0.0,0.0,0.0,0.0,0.0,0.0,0.0,0.0,0.0,0.0,0.0,0.0,0.0,0.0,0.0,0.0,0.0,0.0,0.0,0.0,0.0,0.0,0.0,0.0,0.0,0.0,0.0,0.0,0.0,0.0,0.0,0.0,0.0,0.0,0.0,0.0,0.0,0.0,0.0,0.0,0.0,0.0,0.0,0.0,0.0,0.0,0.0,0.0,0.0,0.0,0.0,0.0,0.0,0.0,0.0,0.0,0.0,0.0,0.0,0.0,0.0,0.0,0.0,0.0,0.0,0.0,0.0,0.0,0.0,0.0,0.0,0.0,0.0,0.0,0.0,0.0,0.0,0.0,0.0,0.0,0.0,0.0,0.0,0.0,0.0,0.0,0.0,0.0,0.0,0.0,0.0,0.0,0.0,0.0,0.0,0.0,0.0,0.0,0.0,0.0,0.0,0.0,0.0,0.0,0.0,0.0,0.0,0.0,0.0,0.0,0.0,0.0,0.0,0.0,0.0,0.0,0.0,0.0,0.0,0.0,0.0,0.0,0.0,0.0,0.0,0.0,0.0,0.0,0.0,0.0,0.0,0.0,0.0,0.0,0.0,0.0,0.0,0.0,0.0,0.0,0.0,0.0,0.0,0.0,0.0,0.0,0.0,0.0,0.0,0.0,0.0,0.0,0.0,0.0,0.0,0.0,0.0,0.0,0.0,0.0,0.0,0.0,0.0,0.0,0.0,0.0,0.0,0.0,0.0,0.0,0.0,0.0,0.0,0.0,0.0,0.0,0.0,0.0,0.0,0.0,0.0,0.0,0.0,0.0,0.0,0.0,0.0,0.0,0.0,0.0,0.0,0.0,0.0,0.0,0.0,0.0,0.0,0.0,0.0,0.0,0.0,0.0,0.0,0.0,0.0,0.0,0.0,0.0,0.0,0.0,0.0,0.0,0.0,0.0,0.0,0.0,0.0,0.0,0.0,0.0,0.0,0.0,0.0,0.0,0.0,0.0,0.0,0.0,0.0,0.0,0.0,0.0,0.0,0.0,0.0,0.0,0.0,0.0,0.0,0.0,0.0,0.0,0.0,0.0,0.0,0.0,0.0,0.0,0.0,0.0,-1.0188,0.0,0.0,0.0,-1.1001,0.0,0.0,0.0,0.0,0.0,0.0,0.0,0.0,0.0,0.0,0.0,0.0,0.0,0.0,0.0,0.0,0.0,0.0,0.0,0.0,0.0,0.0,0.0,0.0,0.0,0.0,0.0,0.0,0.0,0.0,0.0,0.0,0.0,0.0,0.0,0.0,0.0,0.0,0.0,0.0,0.0,0.0,0.0,0.0,0.0,0.0,0.0,0.0,0.0,0.0,0.0,0.0,0.0,0.0,0.0,0.0,0.0,0.0,0.0,0.0,0.0,0.0,0.0,0.0,0.0,0.0,0.0,0.0,0.0,0.0,0.0,0.0,0.0,0.0,0.0,0.0,0.0,0.0,0.0,0.0,0.0,0.0,0.0,0.0,0.0,0.0,0.0,0.0,0.0,0.0,0.0,0.0,0.0,0.0,0.0,0.0,0.0,0.0,0.0,0.0,0.0,0.0,0.0,0.0,0.0,0.0,0.0,0.0,0.0,0.0,-1.0103,-1.0394,-1.061,-1.0899,-1.1257,0.0,0.0,0.0,0.0,0.0,0.0,0.0,0.0,0.0,0.0,0.0,0.0,0.0,0.0,0.0,0.0,0.0,0.0,0.0,0.0,0.0,0.0,0.0,0.0,0.0,0.0,0.0,0.0,0.0,0.0,0.0,0.0,0.0,0.0,0.0,0.0,0.0,0.0,0.0,0.0,0.0,0.0,0.0,0.0,0.0,0.0,0.0,0.0,0.0,0.0,0.0,0.0,0.0,0.0,0.0,0.0,0.0,0.0,0.0,0.0,0.0,0.0,0.0,0.0,0.0,0.0,0.0,0.0,0.0,0.0,0.0,0.0,0.0,0.0,0.0,0.0,0.0,0.0,0.0,0.0,0.0,0.0,0.0,0.0,0.0,0.0,0.0,0.0,0.0,0.0,0.0,0.0,0.0,0.0,0.0,0.0,0.0,0.0,0.0,0.0,0.0,0.0,0.0,0.0,0.0,0.0,0.0,0.0,0.0,0.0,0.0,0.0,-1.0636,-1.1022,-1.1595,0.0,0.0,0.0,0.0,0.0,0.0,0.0,0.0,0.0,0.0,0.0,0.0,0.0,0.0,0.0,0.0,0.0,0.0,0.0,0.0,0.0,0.0,0.0,0.0,0.0,0.0,0.0,0.0,0.0,0.0,0.0,0.0,0.0,0.0,0.0,0.0,0.0,0.0,0.0,0.0,0.0,0.0,0.0,0.0,0.0,0.0,0.0,0.0,0.0,0.0,0.0,0.0,0.0,0.0,0.0,0.0,0.0,0.0,0.0,0.0,0.0,0.0,0.0,0.0,0.0,0.0,0.0,0.0,0.0,0.0,0.0,0.0,0.0,0.0,0.0,0.0,0.0,0.0,0.0,0.0,0.0,0.0,0.0,0.0,0.0,0.0,0.0,0.0,0.0,0.0,0.0,0.0,0.0,0.0,0.0,0.0,0.0,0.0,0.0,0.0,0.0,0.0,0.0,0.0,0.0,0.0,0.0,0.0,0.0,0.0,-0.9637,-1.0235,-1.0611,0.0,-1.1948,0.0,0.0,0.0,0.0,0.0,0.0,0.0,0.0,0.0,0.0,0.0,0.0,0.0,0.0,0.0,0.0,0.0,0.0,0.0,0.0,0.0,0.0,0.0,0.0,0.0,0.0,0.0,0.0,0.0,0.0,0.0,0.0,0.0,0.0,0.0,0.0,0.0,0.0,0.0,0.0,0.0,0.0,0.0,0.0,0.0,0.0,0.0,0.0,0.0,0.0,0.0,0.0,0.0,0.0,0.0,0.0,0.0,0.0,0.0,0.0,0.0,0.0,0.0,0.0,0.0,0.0,0.0,0.0,0.0,0.0,0.0,0.0,0.0,0.0,0.0,0.0,0.0,0.0,0.0,0.0,0.0,0.0,0.0,0.0,0.0,0.0,0.0,0.0,0.0,0.0,0.0,0.0,0.0,0.0,0.0,0.0,0.0,0.0,0.0,0.0,0.0,0.0,0.0,0.0,0.0,0.0,0.0,0.0,0.0,0.0,-0.9399,-0.9648,-1.0401,-1.1118,0.0,0.0,0.0,0.0,0.0,0.0,0.0,0.0,0.0,0.0,0.0,0.0,0.0,0.0,0.0,0.0,0.0,0.0,0.0,0.0,0.0,0.0,0.0,0.0,0.0,0.0,0.0,0.0,0.0,0.0,0.0,0.0,0.0,0.0,0.0,0.0,0.0,0.0,0.0,0.0,0.0,0.0,0.0,0.0,0.0,0.0,0.0,0.0,0.0,0.0,0.0,0.0,0.0,0.0,0.0,0.0,0.0,0.0,0.0,0.0,0.0,0.0,0.0,0.0,0.0,0.0,0.0,0.0,0.0,0.0,0.0,0.0,0.0,0.0,0.0,0.0,0.0,0.0,0.0,0.0,0.0,0.0,0.0,0.0,0.0,0.0,0.0,0.0,0.0,0.0,0.0,0.0,0.0,0.0,0.0,0.0,0.0,0.0,0.0,0.0,0.0,0.0,0.0,0.0,0.0,0.0,0.0,0.0,0.0,0.0,-0.8846,-0.9366,-0.9649,-1.0492,-1.1161,-1.1696,0.0,0.0,0.0,0.0,0.0,0.0,0.0,0.0,0.0,0.0,0.0,0.0,0.0,0.0,0.0,0.0,0.0,0.0,0.0,0.0,0.0,0.0,0.0,0.0,0.0,0.0,0.0,0.0,0.0,0.0,0.0,0.0,0.0,0.0,0.0,0.0,0.0,0.0,0.0,0.0,0.0,0.0,0.0,0.0,0.0,0.0,0.0,0.0,0.0,0.0,0.0,0.0,0.0,0.0,0.0,0.0,0.0,0.0,0.0,0.0,0.0,0.0,0.0,0.0,0.0,0.0,0.0,0.0,0.0,0.0,0.0,0.0,0.0,0.0,0.0,0.0,0.0,0.0,0.0,0.0,0.0,0.0,0.0,0.0,0.0,0.0,0.0,0.0,0.0,0.0,0.0,0.0,0.0,0.0,0.0,0.0,0.0,0.0,0.0,0.0,0.0,0.0,0.0,0.0,0.0,0.0,0.0,0.0,-0.8298,-0.8772,-0.9494,-1.0501,-1.0939,-1.1464,0.0,0.0,0.0,0.0,0.0,0.0,0.0,0.0,0.0,0.0,0.0,0.0,0.0,0.0,0.0,0.0,0.0,0.0,0.0,0.0,0.0,0.0,0.0,0.0,0.0,0.0,0.0,0.0,0.0,0.0,0.0,0.0,0.0,0.0,0.0,0.0,0.0,0.0,0.0,0.0,0.0,0.0,0.0,0.0,0.0,0.0,0.0,0.0,0.0,0.0,0.0,0.0,0.0,0.0,0.0,0.0,0.0,0.0,0.0,0.0,0.0,0.0,0.0,0.0,0.0,0.0,0.0,0.0,0.0,0.0,0.0,0.0,0.0,0.0,0.0,0.0,0.0,0.0,0.0,0.0,0.0,0.0,0.0,0.0,0.0,0.0,0.0,0.0,0.0,0.0,0.0,0.0,0.0,0.0,0.0,0.0,0.0,0.0,0.0,0.0,0.0,0.0,0.0,0.0,0.0,0.0,0.0,0.0,0.0,-0.8335,-0.9,-0.979,-1.0643,-1.1061,-1.1473,0.0,0.0,0.0,0.0,0.0,0.0,0.0,0.0,0.0,0.0,0.0,0.0,0.0,0.0,0.0,0.0,0.0,0.0,0.0,0.0,0.0,0.0,0.0,0.0,0.0,0.0,0.0,0.0,0.0,0.0,0.0,0.0,0.0,0.0,0.0,0.0,0.0,0.0,0.0,0.0,0.0,0.0,0.0,0.0,0.0,0.0,0.0,0.0,0.0,0.0,0.0,0.0,0.0,0.0,0.0,0.0,0.0,0.0,0.0,0.0,0.0,0.0,0.0,0.0,0.0,0.0,0.0,0.0,0.0,0.0,0.0,0.0,0.0,0.0,0.0,0.0,0.0,0.0,0.0,0.0,0.0,0.0,0.0,0.0,0.0,0.0,0.0,0.0,0.0,0.0,0.0,0.0,0.0,0.0,0.0,0.0,0.0,0.0,0.0,0.0,0.0,0.0,0.0,0.0,0.0,0.0,0.0,0.0,0.0,-0.8723,0.0,-1.0249,-1.0878,-1.1225,-1.1613,0.0,0.0,0.0,0.0,0.0,0.0,0.0,0.0,0.0,0.0,0.0,0.0,0.0,0.0,0.0,0.0,0.0,0.0,0.0,0.0,0.0,0.0,0.0,0.0,0.0,0.0,0.0,0.0,0.0,0.0,0.0,0.0,0.0,0.0,0.0,0.0,0.0,0.0,0.0,0.0,0.0,0.0,0.0,0.0,0.0,0.0,0.0,0.0,0.0,0.0,0.0,0.0,0.0,0.0,0.0,0.0,0.0,0.0,0.0,0.0,0.0,0.0,0.0,0.0,0.0,0.0,0.0,0.0,0.0,0.0,0.0,0.0,0.0,0.0,0.0,0.0,0.0,0.0,0.0,0.0,0.0,0.0,0.0,0.0,0.0,0.0,0.0,0.0,0.0,0.0,0.0,0.0,0.0,0.0,0.0,0.0,0.0,0.0,0.0,0.0,0.0,0.0,0.0,0.0,0.0,0.0,0.0,0.0,-0.8928,-0.9579,-1.0223,-1.0822,-1.1258,-1.1516,-1.1918,0.0,0.0,0.0,0.0,0.0,0.0,0.0,0.0,0.0,0.0,0.0,0.0,0.0,0.0,0.0,0.0,0.0,0.0,0.0,0.0,0.0,0.0,0.0,0.0,0.0,0.0,0.0,0.0,0.0,0.0,0.0,0.0,0.0,0.0,0.0,0.0,0.0,0.0,0.0,0.0,0.0,0.0,0.0,0.0,0.0,0.0,0.0,0.0,0.0,0.0,0.0,0.0,0.0,0.0,0.0,0.0,0.0,0.0,0.0,0.0,0.0,0.0,0.0,0.0,0.0,0.0,0.0,0.0,0.0,0.0,0.0,0.0,0.0,0.0,0.0,0.0,0.0,0.0,0.0,0.0,0.0,0.0,0.0,0.0,0.0,0.0,0.0,0.0,0.0,0.0,0.0,0.0,0.0,0.0,0.0,0.0,0.0,0.0,0.0,0.0,0.0,0.0,0.0,0.0,0.0,0.0,0.0,0.0,0.0,-1.0025,-1.0583,-1.1094,-1.1572,-1.2115,-1.2516,0.0,0.0,0.0,0.0,0.0,0.0,0.0,0.0,0.0,0.0,0.0,0.0,0.0,0.0,0.0,0.0,0.0,0.0,0.0,0.0,0.0,0.0,0.0,0.0,0.0,0.0,0.0,0.0,0.0,0.0,0.0,0.0,0.0,0.0,0.0,0.0,0.0,0.0,0.0,0.0,0.0,0.0,0.0,0.0,0.0,0.0,0.0,0.0,0.0,0.0,0.0,0.0,0.0,0.0,0.0,0.0,0.0,0.0,0.0,0.0,0.0,0.0,0.0,0.0,0.0,0.0,0.0,0.0,0.0,0.0,0.0,0.0,0.0,0.0,0.0,0.0,0.0,0.0,0.0,0.0,0.0,0.0,0.0,0.0,0.0,0.0,0.0,0.0,0.0,0.0,0.0,0.0,0.0,0.0,0.0,0.0,0.0,0.0,0.0,0.0,0.0,0.0,0.0,0.0,0.0,0.0,0.0,0.0,0.0,-1.1139,-1.1345,-1.1654,-1.209,-1.2677,-1.3147,-1.3379,0.0,0.0,0.0,0.0,0.0,0.0,0.0,0.0,0.0,0.0,0.0,0.0,0.0,0.0,0.0,0.0,0.0,0.0,0.0,0.0,0.0,0.0,0.0,0.0,0.0,0.0,0.0,0.0,0.0,0.0,0.0,0.0,0.0,0.0,0.0,0.0,0.0,0.0,0.0,0.0,0.0,0.0,0.0,0.0,0.0,0.0,0.0,0.0,0.0,0.0,0.0,0.0,0.0,0.0,0.0,0.0,0.0,0.0,0.0,0.0,0.0,0.0,0.0,0.0,0.0,0.0,0.0,0.0,0.0,0.0,0.0,0.0,0.0,0.0,0.0,0.0,0.0,0.0,0.0,0.0,0.0,0.0,0.0,0.0,0.0,0.0,0.0,0.0,0.0,0.0,0.0,0.0,0.0,0.0,0.0,0.0,0.0,0.0,0.0,0.0,0.0,0.0,0.0,0.0,0.0,0.0,0.0,0.0,-1.2699,-1.2511,-1.2493,-1.2758,-1.3262,-1.3698,0.0,0.0,0.0,0.0,0.0,0.0,0.0,0.0,0.0,0.0,0.0,0.0,0.0,0.0,0.0,0.0,0.0,0.0,0.0,0.0,0.0,0.0,0.0,0.0,0.0,0.0,0.0,0.0,0.0,0.0,0.0,0.0,0.0,0.0,0.0,0.0,0.0,0.0,0.0,0.0,0.0,0.0,0.0,0.0,0.0,0.0,0.0,0.0,0.0,0.0,0.0,0.0,0.0,0.0,0.0,0.0,0.0,0.0,0.0,0.0,0.0,0.0,0.0,0.0,0.0,0.0,0.0,0.0,0.0,0.0,0.0,0.0,0.0,0.0,0.0,0.0,0.0,0.0,0.0,0.0,0.0,0.0,0.0,0.0,0.0,0.0,0.0,0.0,0.0,0.0,0.0,0.0,0.0,0.0,0.0,0.0,0.0,0.0,0.0,0.0,0.0,0.0,0.0,0.0,0.0,0.0,0.0,0.0,0.0,-1.3008,-1.3272,-1.3359,-1.3286,-1.3631,-1.3973,0.0,0.0,0.0,0.0,0.0,0.0,0.0,0.0,0.0,0.0,0.0,0.0,0.0,0.0,0.0,0.0,0.0,0.0,0.0,0.0,0.0,0.0,0.0,0.0,0.0,0.0,0.0,0.0,0.0,0.0,0.0,0.0,0.0,0.0,0.0,0.0,0.0,0.0,0.0,0.0,0.0,0.0,0.0,0.0,0.0,0.0,0.0,0.0,0.0,0.0,0.0,0.0,0.0,0.0,0.0,0.0,0.0,0.0,0.0,0.0,0.0,0.0,0.0,0.0,0.0,0.0,0.0,0.0,0.0,0.0,0.0,0.0,0.0,0.0,0.0,0.0,0.0,0.0,0.0,0.0,0.0,0.0,0.0,0.0,0.0,0.0,0.0,0.0,0.0,0.0,0.0,0.0,0.0,0.0,0.0,0.0,0.0,0.0,0.0,0.0,0.0,0.0,0.0,0.0,0.0,0.0,0.0,0.0,-1.351,-1.387,-1.4071,-1.4166,-1.4171,-1.4315,-1.4528,0.0,0.0,0.0,0.0,0.0,0.0,0.0,0.0,0.0,0.0,0.0,0.0,0.0,0.0,0.0,0.0,0.0,0.0,0.0,0.0,0.0,0.0,0.0,0.0,0.0,0.0,0.0,0.0,0.0,0.0,0.0,0.0,0.0,0.0,0.0,0.0,0.0,0.0,0.0,0.0,0.0,0.0,0.0,0.0,0.0,0.0,0.0,0.0,0.0,0.0,0.0,0.0,0.0,0.0,0.0,0.0,0.0,0.0,0.0,0.0,0.0,0.0,0.0,0.0,0.0,0.0,0.0,0.0,0.0,0.0,0.0,0.0,0.0,0.0,0.0,0.0,0.0,0.0,0.0,0.0,0.0,0.0,0.0,0.0,0.0,0.0,0.0,0.0,0.0,0.0,0.0,0.0,0.0,0.0,0.0,0.0,0.0,0.0,0.0,0.0,0.0,0.0,0.0,0.0,0.0,0.0,0.0,0.0,-1.4521,-1.4965,-1.4883,-1.4896,-1.5062,-1.509,-1.5168,0.0,0.0,0.0,0.0,0.0,0.0,0.0,0.0,0.0,0.0,0.0,0.0,0.0,0.0,0.0,0.0,0.0,0.0,0.0,0.0,0.0,0.0,0.0,0.0,0.0,0.0,0.0,0.0,0.0,0.0,0.0,0.0,0.0,0.0,0.0,0.0,0.0,0.0,0.0,0.0,0.0,0.0,0.0,0.0,0.0,0.0,0.0,0.0,0.0,0.0,0.0,0.0,0.0,0.0,0.0,0.0,0.0,0.0,0.0,0.0,0.0,0.0,0.0,0.0,0.0,0.0,0.0,0.0,0.0,0.0,0.0,0.0,0.0,0.0,0.0,0.0,0.0,0.0,0.0,0.0,0.0,0.0,0.0,0.0,0.0,0.0,0.0,0.0,0.0,0.0,0.0,0.0,0.0,0.0,0.0,0.0,0.0,0.0,0.0,0.0,0.0,0.0,0.0,0.0,0.0,0.0,0.0,0.0,-1.4527,-1.5024,-1.5215,-1.5281,-1.5119,-1.509,-1.5271,0.0,0.0,0.0,0.0,0.0,0.0,0.0,0.0,0.0,0.0,0.0,0.0,0.0,0.0,0.0,0.0,0.0,0.0,0.0,0.0,0.0,0.0,0.0,0.0,0.0,0.0,0.0,0.0,0.0,0.0,0.0,0.0,0.0,0.0,0.0,0.0,0.0,0.0,0.0,0.0,0.0,0.0,0.0,0.0,0.0,0.0,0.0,0.0,-1.9479,0.0,0.0,0.0,0.0,0.0,0.0,0.0,0.0,0.0,0.0,0.0,0.0,0.0,0.0,0.0,0.0,0.0,0.0,0.0,0.0,0.0,0.0,0.0,0.0,0.0,0.0,0.0,0.0,0.0,0.0,0.0,0.0,0.0,0.0,0.0,0.0,0.0,0.0,0.0,0.0,0.0,0.0,0.0,0.0,0.0,0.0,0.0,0.0,0.0,0.0,0.0,0.0,0.0,0.0,0.0,0.0,0.0,0.0,0.0,-1.4941,-1.5393,-1.5743,-1.5749,-1.548,-1.5713,-1.5852,0.0,0.0,0.0,0.0,0.0,0.0,0.0,0.0,0.0,0.0,0.0,0.0,0.0,0.0,0.0,0.0,0.0,0.0,0.0,0.0,0.0,0.0,0.0,0.0,0.0,0.0,0.0,0.0,0.0,0.0,0.0,0.0,0.0,0.0,0.0,0.0,0.0,0.0,0.0,0.0,0.0,0.0,0.0,0.0,0.0,0.0,0.0,0.0,0.0,0.0,0.0,0.0,0.0,0.0,0.0,0.0,0.0,0.0,0.0,0.0,0.0,0.0,0.0,0.0,0.0,0.0,0.0,0.0,0.0,0.0,0.0,0.0,0.0,0.0,0.0,0.0,0.0,0.0,0.0,0.0,0.0,0.0,0.0,0.0,0.0,0.0,0.0,0.0,0.0,0.0,0.0,0.0,0.0,0.0,0.0,0.0,0.0,0.0,0.0,0.0,0.0,0.0,0.0,0.0,0.0,0.0,0.0,-1.5052,-1.5282,-1.5747,-1.6035,-1.6056,-1.5909,-1.639,-1.6576,-1.64,0.0,0.0,0.0,0.0,0.0,0.0,0.0,0.0,0.0,0.0,0.0,0.0,0.0,0.0,0.0,0.0,0.0,0.0,0.0,0.0,0.0,0.0,0.0,0.0,0.0,0.0,0.0,0.0,0.0,0.0,0.0,0.0,0.0,0.0,0.0,0.0,0.0,0.0,-1.5269,-1.5656,0.0,0.0,0.0,0.0,0.0,0.0,0.0,0.0,-2.1031,0.0,0.0,0.0,0.0,0.0,0.0,0.0,0.0,0.0,0.0,0.0,0.0,0.0,0.0,0.0,0.0,0.0,0.0,0.0,0.0,0.0,0.0,0.0,0.0,0.0,0.0,0.0,0.0,0.0,0.0,0.0,0.0,0.0,0.0,0.0,0.0,0.0,0.0,0.0,0.0,0.0,0.0,0.0,0.0,0.0,0.0,0.0,0.0,0.0,0.0,0.0,0.0,0.0,0.0,0.0,0.0,-1.4769,-1.4781,-1.4932,-1.5228,-1.5483,-1.567,-1.58,-1.6339,-1.6767,-1.7091,0.0,0.0,0.0,0.0,0.0,0.0,0.0,0.0,0.0,0.0,0.0,0.0,0.0,0.0,0.0,0.0,0.0,0.0,0.0,0.0,0.0,0.0,0.0,0.0,0.0,0.0,0.0,0.0,0.0,0.0,0.0,0.0,0.0,0.0,0.0,0.0,0.0,0.0,0.0,-1.6808,-1.6905,0.0,0.0,0.0,0.0,0.0,0.0,0.0,0.0,-2.3393,0.0,0.0,0.0,0.0,0.0,0.0,0.0,0.0,0.0,0.0,0.0,0.0,0.0,0.0,0.0,0.0,0.0,0.0,0.0,0.0,0.0,0.0,0.0,0.0,0.0,0.0,0.0,0.0,0.0,0.0,0.0,0.0,0.0,0.0,0.0,0.0,0.0,0.0,0.0,0.0,0.0,0.0,0.0,0.0,0.0,0.0,0.0,0.0,0.0,0.0,0.0,0.0,0.0,0.0,0.0,-1.4684,-1.4714,-1.4841,-1.5095,-1.5506,-1.5707,-1.5826,-1.6461,-1.6874,0.0,0.0,0.0,0.0,0.0,0.0,0.0,0.0,0.0,0.0,0.0,0.0,0.0,0.0,0.0,0.0,0.0,0.0,0.0,0.0,0.0,0.0,0.0,0.0,0.0,0.0,0.0,0.0,0.0,0.0,0.0,0.0,0.0,0.0,0.0,0.0,0.0,0.0,0.0,0.0,-1.7455,-1.7666,-1.7977,0.0,0.0,0.0,0.0,0.0,0.0,-2.3179,-2.3982,0.0,0.0,0.0,0.0,0.0,0.0,0.0,0.0,0.0,0.0,0.0,0.0,0.0,0.0,0.0,0.0,0.0,0.0,0.0,0.0,0.0,0.0,0.0,0.0,0.0,0.0,0.0,0.0,0.0,0.0,0.0,0.0,0.0,0.0,0.0,0.0,0.0,0.0,0.0,0.0,0.0,0.0,0.0,0.0,0.0,0.0,0.0,0.0,0.0,0.0,0.0,0.0,0.0,0.0,0.0,-1.4612,-1.463,-1.4733,-1.5032,-1.5495,-1.5772,-1.5875,-1.6553,-1.6923,0.0,0.0,0.0,0.0,0.0,0.0,0.0,0.0,0.0,0.0,0.0,0.0,0.0,0.0,0.0,0.0,0.0,0.0,0.0,0.0,0.0,0.0,0.0,0.0,0.0,0.0,0.0,0.0,0.0,0.0,0.0,0.0,0.0,0.0,0.0,0.0,0.0,0.0,0.0,0.0,0.0,-1.8476,-1.9028,-1.9327,0.0,0.0,0.0,0.0,-2.2597,-2.3674,0.0,0.0,0.0,0.0,0.0,0.0,0.0,0.0,0.0,0.0,0.0,0.0,0.0,0.0,0.0,0.0,0.0,0.0,0.0,0.0,0.0,0.0,0.0,0.0,0.0,0.0,0.0,0.0,0.0,0.0,0.0,0.0,0.0,0.0,0.0,0.0,0.0,0.0,0.0,0.0,0.0,0.0,0.0,0.0,0.0,0.0,0.0,0.0,0.0,0.0,0.0,0.0,0.0,0.0,0.0,0.0,-1.4328,-1.4346,-1.4509,-1.4739,-1.5034,-1.5488,-1.615,-1.6489,-1.6944,0.0,0.0,0.0,0.0,0.0,0.0,0.0,0.0,0.0,0.0,0.0,0.0,0.0,0.0,0.0,0.0,0.0,0.0,0.0,0.0,0.0,0.0,0.0,0.0,0.0,0.0,0.0,0.0,0.0,0.0,0.0,0.0,0.0,0.0,0.0,0.0,0.0,0.0,0.0,0.0,0.0,-1.93,-1.9657,-1.9922,-2.0458,0.0,0.0,-2.3049,-2.3628,-2.4722,0.0,0.0,0.0,0.0,0.0,0.0,0.0,0.0,0.0,0.0,0.0,0.0,0.0,0.0,0.0,0.0,0.0,0.0,0.0,0.0,0.0,0.0,0.0,0.0,0.0,0.0,0.0,0.0,0.0,0.0,0.0,0.0,0.0,0.0,0.0,0.0,0.0,0.0,0.0,0.0,0.0,0.0,0.0,0.0,0.0,0.0,0.0,0.0,0.0,0.0,0.0,0.0,0.0,0.0,0.0,-1.4039,-1.4286,-1.4298,-1.4448,-1.4688,-1.5064,-1.5588,-1.619,-1.6413,-1.6786,0.0,0.0,0.0,0.0,0.0,0.0,0.0,0.0,0.0,0.0,0.0,0.0,0.0,0.0,0.0,0.0,0.0,0.0,0.0,0.0,0.0,0.0,0.0,0.0,0.0,0.0,0.0,0.0,0.0,0.0,0.0,0.0,0.0,0.0,0.0,0.0,0.0,0.0,0.0,0.0,0.0,0.0,-2.049,-2.0672,0.0,0.0,0.0,-2.3517,-2.4064,0.0,0.0,0.0,0.0,0.0,0.0,0.0,0.0,0.0,0.0,0.0,0.0,0.0,0.0,0.0,0.0,0.0,0.0,0.0,0.0,0.0,0.0,0.0,0.0,0.0,0.0,0.0,0.0,0.0,0.0,0.0,0.0,0.0,0.0,0.0,0.0,0.0,0.0,0.0,0.0,0.0,0.0,0.0,0.0,0.0,0.0,0.0,0.0,0.0,0.0,0.0,0.0,0.0,0.0,0.0,0.0,0.0,-1.4195,-1.4316,-1.4507,-1.4684,-1.5216,-1.5738,-1.6168,-1.6423,0.0,0.0,0.0,0.0,0.0,0.0,0.0,0.0,0.0,0.0,0.0,0.0,0.0,0.0,0.0,0.0,0.0,0.0,0.0,0.0,0.0,0.0,0.0,0.0,0.0,0.0,0.0,-1.8045,0.0,0.0,0.0,0.0,0.0,0.0,0.0,0.0,0.0,0.0,0.0,0.0,0.0,0.0,-2.0643,-2.1325,-2.1464,-2.1931,0.0,0.0,-2.3921,-2.4423,-2.5191,-2.5743,0.0,0.0,0.0,0.0,0.0,0.0,0.0,0.0,0.0,0.0,0.0,0.0,0.0,0.0,0.0,0.0,0.0,0.0,0.0,0.0,0.0,0.0,0.0,0.0,0.0,0.0,0.0,0.0,0.0,0.0,0.0,0.0,0.0,0.0,0.0,0.0,0.0,0.0,0.0,0.0,0.0,0.0,0.0,0.0,0.0,0.0,0.0,0.0,0.0,0.0,0.0,0.0,0.0,0.0,-1.3912,-1.3942,-1.4415,-1.4652,-1.4735,-1.5396,-1.5886,-1.6116,-1.6531,-1.6736,0.0,0.0,0.0,0.0,0.0,0.0,0.0,0.0,0.0,0.0,0.0,0.0,0.0,0.0,0.0,0.0,0.0,0.0,0.0,0.0,0.0,0.0,0.0,0.0,0.0,0.0,0.0,0.0,0.0,0.0,0.0,0.0,0.0,0.0,0.0,0.0,0.0,0.0,0.0,0.0,0.0,-2.1474,-2.222,-2.2539,-2.2963,0.0,-2.4144,-2.4432,-2.4731,-2.5293,-2.5798,-2.6017,0.0,0.0,0.0,0.0,0.0,0.0,0.0,0.0,0.0,0.0,0.0,0.0,0.0,0.0,0.0,0.0,0.0,0.0,0.0,0.0,0.0,0.0,0.0,0.0,0.0,0.0,0.0,0.0,0.0,0.0,0.0,0.0,0.0,0.0,0.0,0.0,0.0,0.0,0.0,0.0,0.0,0.0,0.0,0.0,0.0,0.0,0.0,0.0,0.0,0.0,0.0,0.0,0.0,-1.3586,-1.39,-1.4084,-1.4373,-1.4676,-1.5178,-1.5725,-1.6237,-1.636,-1.6575,0.0,0.0,0.0,0.0,0.0,0.0,0.0,0.0,0.0,0.0,0.0,0.0,0.0,0.0,0.0,0.0,0.0,0.0,0.0,0.0,0.0,0.0,0.0,0.0,0.0,0.0,0.0,0.0,-1.921,-1.9323,-1.9367,0.0,0.0,0.0,0.0,0.0,0.0,0.0,0.0,0.0,0.0,-2.1835,-2.254,-2.2745,0.0,0.0,-2.4582,-2.4795,-2.5293,-2.5679,-2.6063,-2.6336,-2.6935,0.0,0.0,0.0,0.0,0.0,0.0,0.0,0.0,0.0,0.0,0.0,0.0,0.0,0.0,0.0,0.0,0.0,0.0,0.0,0.0,0.0,0.0,0.0,0.0,0.0,0.0,0.0,0.0,0.0,0.0,0.0,0.0,0.0,0.0,0.0,0.0,0.0,0.0,0.0,0.0,0.0,0.0,0.0,0.0,0.0,0.0,0.0,0.0,0.0,0.0,0.0,0.0,-1.3338,-1.3878,-1.3975,-1.4193,-1.4556,-1.5126,-1.566,-1.6177,-1.6354,-1.6615,0.0,0.0,0.0,0.0,0.0,0.0,0.0,0.0,0.0,0.0,0.0,0.0,0.0,0.0,0.0,0.0,0.0,0.0,0.0,0.0,0.0,0.0,0.0,0.0,0.0,0.0,0.0,0.0,-1.9412,-1.9615,-2.0002,0.0,0.0,0.0,0.0,0.0,0.0,0.0,0.0,0.0,0.0,-2.2409,-2.3024,-2.321,-2.3719,-2.4749,-2.4994,-2.5229,-2.5734,-2.6063,-2.6336,-2.6663,0.0,0.0,0.0,0.0,0.0,0.0,0.0,0.0,0.0,0.0,0.0,0.0,0.0,0.0,0.0,0.0,0.0,0.0,0.0,0.0,0.0,0.0,0.0,0.0,0.0,0.0,0.0,-1.24,0.0,0.0,-1.2674,0.0,0.0,0.0,0.0,0.0,0.0,0.0,0.0,0.0,0.0,0.0,0.0,0.0,0.0,0.0,0.0,0.0,0.0,0.0,0.0,0.0,0.0,-1.3343,-1.3888,-1.4083,-1.4301,-1.4499,-1.5283,-1.5731,-1.5935,-1.6541,-1.6836,-1.6762,0.0,0.0,0.0,0.0,0.0,0.0,0.0,0.0,0.0,0.0,0.0,0.0,0.0,0.0,0.0,0.0,0.0,0.0,0.0,0.0,0.0,0.0,0.0,0.0,0.0,0.0,-1.9311,-1.9637,-2.0186,0.0,0.0,0.0,0.0,0.0,0.0,0.0,0.0,0.0,-2.3294,-2.3347,-2.3497,-2.3803,-2.4217,-2.4624,-2.504,-2.5448,-2.5798,-2.6072,-2.6391,-2.6654,0.0,0.0,0.0,0.0,0.0,0.0,0.0,0.0,0.0,0.0,0.0,0.0,0.0,0.0,0.0,0.0,0.0,0.0,0.0,0.0,0.0,0.0,0.0,0.0,0.0,0.0,0.0,-1.2764,-1.3132,0.0,0.0,0.0,0.0,0.0,0.0,0.0,0.0,0.0,0.0,0.0,-1.2705,-1.2795,0.0,0.0,0.0,0.0,0.0,0.0,0.0,0.0,0.0,0.0,0.0,0.0,-1.3281,-1.3623,-1.3947,-1.423,-1.4428,-1.5156,-1.5687,-1.6012,-1.6498,-1.7097,-1.7797,0.0,0.0,0.0,0.0,0.0,0.0,0.0,0.0,0.0,0.0,0.0,0.0,0.0,0.0,0.0,0.0,0.0,0.0,0.0,0.0,0.0,0.0,0.0,0.0,0.0,-1.9421,0.0,0.0,0.0,0.0,0.0,0.0,0.0,0.0,0.0,0.0,0.0,-2.3255,-2.3388,-2.3637,-2.3939,-2.4269,-2.4659,-2.5103,0.0,0.0,0.0,0.0,0.0,0.0,0.0,0.0,0.0,0.0,0.0,0.0,0.0,0.0,-2.7939,-2.7529,-2.7451,-2.7363,-2.707,0.0,0.0,0.0,0.0,0.0,0.0,0.0,0.0,0.0,0.0,0.0,0.0,0.0,0.0,-1.3304,-1.3629,-1.3442,0.0,0.0,0.0,0.0,0.0,0.0,0.0,0.0,-1.2705,-1.2705,-1.2705,-1.2807,-1.2994,0.0,-1.335,-1.3525,0.0,0.0,0.0,0.0,0.0,0.0,0.0,0.0,-1.3411,-1.3698,-1.3972,-1.4243,-1.4524,-1.5103,-1.5609,-1.6087,-1.6648,-1.7424,-1.8482,-1.8506,-1.8817,0.0,0.0,0.0,0.0,0.0,0.0,0.0,0.0,0.0,0.0,0.0,0.0,0.0,0.0,0.0,0.0,0.0,0.0,0.0,0.0,0.0,0.0,0.0,-1.9742,0.0,0.0,0.0,0.0,0.0,0.0,0.0,0.0,0.0,-2.3035,-2.3404,-2.3759,-2.3853,-2.4212,-2.4553,-2.4796,0.0,0.0,0.0,0.0,0.0,0.0,0.0,-2.7314,-2.7799,-2.796,-2.8028,-2.8096,-2.7949,-2.7851,-2.7851,0.0,0.0,-2.7924,-2.7881,-2.7845,-2.7623,-2.7574,-2.7629,-2.7769,-2.8003,-2.8165,0.0,0.0,0.0,0.0,0.0,0.0,0.0,0.0,-1.3462,-1.3676,0.0,-1.3812,0.0,0.0,0.0,0.0,-1.3137,-1.3094,0.0,0.0,-1.2747,-1.2705,-1.2765,-1.302,-1.3248,-1.3519,-1.3743,-1.4043,-1.4279,-1.3761,0.0,0.0,0.0,0.0,0.0,0.0,-1.3711,-1.4041,-1.4137,-1.4334,-1.4699,-1.5193,-1.565,-1.617,-1.6951,-1.7806,-1.8643,-1.8701,-1.9034,-1.9855,-1.986,0.0,0.0,0.0,0.0,0.0,0.0,0.0,0.0,0.0,0.0,0.0,0.0,0.0,0.0,0.0,0.0,0.0,0.0,0.0,0.0,-1.9714,0.0,0.0,0.0,0.0,0.0,0.0,0.0,0.0,0.0,0.0,-2.3535,-2.3932,-2.4376,-2.4739,0.0,0.0,0.0,0.0,-2.6039,-2.6048,-2.6379,-2.6691,-2.6989,-2.726,-2.753,-2.7824,0.0,0.0,-2.7767,-2.7305,-2.7041,-2.7021,-2.706,-2.7275,-2.8076,-2.8227,-2.829,-2.8555,-2.8579,-2.8615,-2.8589,-2.896,-2.931,-0.8617,0.0,0.0,0.0,0.0,-1.2381,-1.2871,-1.3132,-1.3398,-1.3623,-1.3825,-1.3769,0.0,0.0,0.0,0.0,0.0,0.0,-1.3264,-1.3179,-1.3222,-1.3222,-1.3185,-1.3267,-1.3542,-1.3986,-1.388,-1.4068,-1.4465,-1.4187,-1.4027,-1.397,0.0,0.0,0.0,0.0,-1.3683,-1.3854,-1.4277,-1.4573,-1.4692,-1.5492,-1.6286,-1.6992,-1.7278,-1.7806,-1.8652,-1.8701,-1.8923,-1.9458,-1.9763,0.0,0.0,0.0,0.0,0.0,0.0,0.0,0.0,0.0,0.0,0.0,0.0,0.0,0.0,0.0,0.0,0.0,0.0,0.0,-1.9723,-2.0365,-2.0989,0.0,0.0,0.0,0.0,0.0,0.0,0.0,0.0,0.0,-2.3987,-2.4345,-2.4799,0.0,0.0,-2.5837,-2.5846,-2.6151,-2.6408,-2.6417,-2.6653,0.0,-2.7269,-2.753,-2.7756,-2.7785,-2.7536,-2.7344,-2.7217,-2.71,-2.7012,-2.7002,-2.7155,-2.7335,-2.7594,-2.7663,-2.7786,-2.7991,-2.8206,-2.838,-2.8563,-2.8928,-2.9243,-0.8528,-0.9535,-1.0226,-1.0903,-1.1642,-1.2461,-1.2917,-1.3184,-1.3601,-1.3837,-1.3951,-1.3987,-1.4187,-1.4429,-1.4315,0.0,0.0,0.0,-1.3483,-1.3398,-1.3398,-1.3398,-1.3398,-1.3398,-1.362,-1.4034,-1.3887,-1.4002,-1.4452,-1.4281,-1.4185,-1.4132,0.0,0.0,-1.3899,-1.3855,-1.3848,-1.387,-1.4405,-1.4692,-1.4734,-1.5624,-1.65,-1.7351,-1.7392,-1.7797,-1.8652,-1.8413,-1.8616,-1.9288,-1.9466,-1.9671,0.0,0.0,0.0,0.0,0.0,0.0,0.0,0.0,0.0,0.0,0.0,-2.0615,-2.0605,0.0,0.0,0.0,-1.9928,-1.9993,-2.0481,-2.1108,0.0,0.0,0.0,0.0,0.0,0.0,0.0,-2.294,-2.3373,-2.3739,-2.3895,-2.428,-2.4854,-2.5552,-2.6012,-2.626,-2.6206,0.0,-2.6736,-2.6736,-2.6999,-2.726,-2.753,-2.7592,-2.7564,-2.7428,-2.706,-2.6777,-2.6758,-2.6631,-2.6514,-2.6644,-2.6794,-2.6973,-2.7132,-2.7291,-2.7571,-2.8035,-2.8217,-2.8476,-2.8747,-2.9137,-2.9518,-0.8428,-0.9362,-0.9972,-1.0682,-1.1426,-1.2304,-1.2859,-1.3176,-1.384,-1.4155,-1.4135,-1.4384,-1.4636,-1.4914,-1.4609,0.0,-1.3737,-1.3737,-1.3652,-1.3434,-1.344,-1.344,-1.3483,-1.344,-1.3581,-1.3849,-1.3829,-1.397,-1.4199,-1.4186,-1.418,-1.4098,-1.418,-1.418,-1.4098,-1.4078,-1.4084,-1.4095,-1.4496,-1.4741,-1.4817,-1.5665,-1.6533,-1.7359,-1.7392,-1.7838,-1.8634,-1.8073,-1.819,-1.9174,-1.9039,-1.9213,-1.9844,0.0,0.0,0.0,0.0,0.0,0.0,0.0,0.0,0.0,0.0,0.0,0.0,0.0,0.0,-2.0666,-2.062,0.0,-2.1469,-2.1917,0.0,0.0,0.0,-2.34,-2.3501,-2.3217,-2.2931,-2.2867,0.0,0.0,-2.3446,-2.3926,-2.4665,-2.577,-2.6287,-2.66,-2.6636,-2.6836,-2.7034,-2.7043,-2.7269,-2.752,-2.7693,-2.7434,-2.7072,-2.6961,-2.6611,-2.6348,-2.6318,-2.6045,-2.5869,-2.6112,-2.6149,-2.6314,-2.6863,-2.7191,-2.7569,-2.8416,-2.8611,-2.8694,-2.9026,-2.9595,-3.0027,-0.8424,-0.9349,-0.9657,-1.0285,-1.1119,-1.1696,-1.2203,-1.2638,-1.333,-1.3595,-1.3625,-1.4002,-1.4229,-1.4289,-1.4222,-1.4106,-1.4004,-1.3997,-1.3955,-1.3913,-1.3955,-1.3913,-1.3962,-1.3913,-1.4064,-1.4315,-1.4117,-1.417,-1.439,-1.4229,-1.4134,-1.411,-1.4127,-1.4091,-1.4103,-1.4103,-1.4113,-1.4088,-1.4489,-1.5033,-1.5748,-1.6004,-1.6492,-1.7351,-1.7546,-1.7951,-1.8643,-1.8235,-1.8239,-1.8816,-1.8655,-1.8824,-1.9414,-1.9844,0.0,0.0,0.0,0.0,0.0,0.0,0.0,0.0,0.0,-2.1034,-2.1084,0.0,-2.1255,0.0,-2.1428,-2.1541,-2.173,-2.24,0.0,0.0,-2.3824,-2.4021,-2.3827,-2.3705,-2.3361,-2.2547,-2.3157,-2.3566,-2.3353,-2.4149,-2.4848,-2.5167,-2.588,-2.6547,-2.6834,-2.7152,-2.7314,-2.7295,-2.7555,-2.7684,-2.7372,-2.6953,-2.661,-2.6553,-2.6172,-2.5898,-2.5889,-2.5762,-2.5791,-2.6052,-2.6294,-2.6592,-2.7119,-2.7404,-2.7836,-2.8522,-2.8765,-2.8791,-2.886,-2.9462,-3.0018,-0.8336,-0.8995,-0.9345,-0.9951,-1.0722,-1.1413,-1.1892,-1.2289,-1.3052,-1.3398,-1.3434,-1.387,-1.4088,-1.4088,-1.4088,-1.4088,-1.4088,-1.4088,-1.4088,-1.4088,-1.4088,-1.4088,-1.4088,-1.4088,-1.4168,-1.4322,-1.4162,-1.4168,-1.4309,-1.4168,-1.4088,-1.4088,-1.4088,-1.4088,-1.4088,-1.4088,-1.4088,-1.4088,-1.4489,-1.5159,-1.6095,-1.6136,-1.6533,-1.7505,-1.7468,-1.7783,-1.8513,-1.7983,-1.7926,-1.839,-1.8326,-1.8475,-1.8958,-1.9404,-1.9824,0.0,0.0,0.0,0.0,0.0,0.0,0.0,0.0,0.0,0.0,0.0,-2.1649,-2.1575,-2.1707,-2.176,-2.1655,-2.2602,-2.3334,-2.3572,-2.426,-2.4573,-2.4153,-2.3917,-2.3486,-2.2722,-2.2981,-2.3242,-2.3195,-2.3711,-2.4202,-2.4552,-2.5223,-2.5814,-2.6266,-2.674,-2.7031,-2.7041,-2.7295,-2.736,-2.6933,-2.6598,-2.6318,-2.6123,-2.5849,-2.5684,-2.5684,-2.5781,-2.5965,-2.6207,-2.6496,-2.6842,-2.7357,-2.7726,-2.8096,-2.8345,-2.8796,-2.9024,-2.907,-2.9398,-2.9725,-0.8157,-0.8636,-0.9126,-0.9689,-1.0376,-1.1246,-1.1768,-1.2043,-1.3015,-1.3434,-1.3525,-1.3919,-1.4088,-1.4088,-1.4088,-1.4088,-1.4088,-1.4088,-1.4088,-1.4088,-1.4088,-1.4088,-1.4088,-1.4088,-1.4088,-1.4088,-1.4088,-1.4088,-1.4088,-1.4088,-1.4088,-1.4088,-1.4088,-1.4088,-1.4088,-1.4088,-1.4088,-1.413,-1.4489,-1.5117,-1.6004,-1.6046,-1.6566,-1.7602,-1.7347,-1.7553,-1.833,-1.7703,-1.7532,-1.8014,-1.8086,-1.8254,-1.8546,-1.9017,-1.9473,0.0,-1.9971,0.0,0.0,0.0,0.0,0.0,0.0,0.0,0.0,-2.1973,-2.186,-2.1553,-2.1711,-2.1736,-2.1572,-2.2678,-2.3464,-2.3503,-2.4611,-2.5053,-2.4393,-2.3956,-2.3539,-2.2974,-2.265,-2.2583,-2.2924,-2.3017,-2.333,-2.3994,-2.443,-2.4814,-2.525,-2.5973,-2.649,-2.649,-2.6645,-2.6532,-2.6289,-2.6152,-2.5937,-2.5586,-2.5469,-2.5528,-2.5518,-2.57,-2.5998,-2.6257,-2.6513,-2.6876,-2.7369,-2.7853,-2.8142,-2.807,-2.8668,-2.9245,-2.9245,-2.9366,-2.9447,-0.8157,-0.8636,-0.9126,-0.9694,-1.0337,-1.0895,-1.1467,-1.2086,-1.2973,-1.3616,-1.3962,-1.4039,-1.4088,-1.4088,-1.4088,-1.4088,-1.4088,-1.4088,-1.4088,-1.4088,-1.4088,-1.4088,-1.4088,-1.4088,-1.4088,-1.4088,-1.4088,-1.4088,-1.4088,-1.4088,-1.4088,-1.4088,-1.4088,-1.4088,-1.4088,0.0,0.0,0.0,-1.4398,-1.4901,-1.5741,-1.5782,-1.6394,-1.7651,-1.7457,0.0,-1.833,-1.8115,-1.7889,-1.7864,-1.8005,0.0,0.0,0.0,0.0,0.0,0.0,0.0,0.0,0.0,0.0,0.0,-2.1395,-2.1522,-2.2314,-2.2393,-2.2214,-2.1882,-2.1838,-2.189,-2.1821,-2.2994,-2.3744,-2.3793,-2.4857,-2.5237,-2.4294,-2.4055,-2.3628,-2.265,-2.2621,-2.2735,-2.2821,-2.2953,-2.3153,-2.3386,-2.3683,-2.3991,-2.414,-2.513,-2.5849,-2.5859,-2.5713,-2.5497,-2.538,-2.5059,-2.4883,-2.4668,-2.4658,-2.4687,-2.4717,-2.4893,-2.5162,-2.5414,-2.5763,-2.6241,-2.6732,-2.7185,-2.7655,-2.7955,-2.847,-2.8841,-2.8841,-2.925,-2.9685,-0.8028,0.0,-0.8995,-0.9646,0.0,-1.0766,-1.1381,-1.2043,-1.2753,-1.3398,-1.3913,-1.4046,-1.4088,-1.4088,-1.4088,-1.4088,-1.4088,-1.4088,-1.4088,-1.4088,-1.4088,-1.4088,-1.4082,-1.3935,-1.3826,-1.382,-1.3721,-1.3654,-1.3654,-1.3661,-1.3654,-1.3654,-1.3654,-1.3654,-1.3661,-1.3794,-1.4011,-1.4398,-1.4482,-1.4901,-1.565,-1.5824,-1.6484,-1.7602,-1.7223,0.0,0.0,0.0,0.0,0.0,0.0,0.0,0.0,0.0,0.0,-1.9863,-2.0127,-2.0342,-2.0586,-2.0615,-2.0859,-2.1514,-2.1562,-2.1738,-2.2168,-2.2207,-2.2021,-2.1611,-2.1562,-2.1475,-2.1299,-2.2402,-2.3242,-2.3496,-2.4629,-2.5089,-2.4411,-2.4239,-2.3854,-2.2967,-2.2882,-2.2925,-2.2969,-2.3057,-2.3101,-2.3101,-2.3276,-2.3477,-2.3564,-2.4348,-2.5031,-2.504,-2.4912,-2.4756,-2.4727,-2.459,-2.4414,-2.4424,-2.4424,-2.4424,-2.4424,-2.4756,-2.5031,-2.5224,-2.5679,-2.6166,-2.6525,-2.706,-2.7557,-2.7802,-2.8248,-2.8579,-2.8542,-2.9011,-2.9468,-0.79,-0.7988,-0.8911,-0.9519,-0.9994,-1.0684,-1.1332,-1.2043,0.0,0.0,0.0,-1.3997,-1.4088,-1.4088,-1.4088,-1.4088,-1.4088,-1.4088,-1.4055,-1.4008,-1.4008,-1.3981,-1.3921,-1.3681,-1.3527,-1.352,-1.3327,-1.3206,-1.3206,-1.3206,-1.3206,-1.3206,-1.3206,-1.3206,-1.3227,-1.3407,-1.3763,-1.4186,-1.4476,-1.4956,-1.561,-1.5823,-1.6399,-1.7418,-1.6765,-1.6715,-1.7331,-1.6884,-1.6719,-1.6839,-1.7167,-1.7652,-1.8299,-1.8524,-1.9018,-1.9816,-1.998,-2.0185,-2.0576,-2.0615,-2.0762,-2.1094,-2.1523,-2.1768,-2.1768,-2.1768,-2.1592,-2.1112,-2.1123,-2.0967,-2.0654,-2.167,-2.2539,-2.2857,-2.4062,-2.4668,-2.4258,-2.4277,-2.3929,-2.3257,-2.3101,-2.3101,-2.3091,-2.3101,-2.3101,-2.3101,-2.312,-2.3101,-2.3179,-2.3705,-2.4153,-2.4144,-2.415,-2.417,-2.4134,-2.415,-2.4189,-2.4121,-2.4141,-2.4189,-2.4235,-2.4619,-2.4892,-2.4867,-2.5558,-2.6007,-2.6305,-2.6922,-2.7464,-2.7476,-2.8025,-2.8457,-2.8333,-2.8807,-2.9165,-0.79,-0.7984,-0.8907,-0.9432,-0.9689,-1.0424,-1.1214,-1.2086,-1.293,-1.3434,-1.3737,-1.3997,-1.4088,-1.4088,-1.4088,-1.4088,-1.4088,-1.4088,-1.3948,-1.3666,-1.3666,-1.3533,-1.3333,-1.3253,-1.3273,-1.3227,-1.3227,-1.3206,-1.3206,-1.32,-1.3206,-1.32,-1.3206,-1.32,-1.3213,-1.3253,-1.3293,-1.338,-1.4056,-1.4725,-1.5274,-1.5307,-1.5723,-1.6434,-1.6242,-1.6275,-1.6807,-1.6847,-1.6786,-1.6683,-1.7496,-1.8035,-1.8159,-1.8933,-1.957,-1.9884,-2.0264,-2.0546,-2.0595,-2.0615,-2.0625,-2.0713,-2.1064,-2.1278,-2.1288,-2.1288,-2.1133,-2.0713,-2.0684,-2.0683,-2.0664,-2.1456,-2.2002,-2.2158,-2.3213,-2.3799,-2.3482,-2.3726,-2.3691,-2.3169,-2.3101,-2.3101,-2.3101,-2.3101,-2.3101,-2.3101,-2.3101,-2.3101,-2.312,-2.3188,-2.3276,-2.3276,-2.3276,-2.3276,-2.3364,-2.3286,-2.3354,-2.3276,-2.3325,-2.3374,-2.3383,-2.3781,-2.4099,-2.4018,-2.4819,-2.5348,-2.5455,-2.6123,-2.6766,-2.7039,-2.7638,-2.8096,-2.8351,-2.8833,-2.9123,-0.7768,-0.7988,-0.8644,-0.9209,-0.9689,-1.0598,-1.1424,-1.2043,-1.2711,-1.3222,-1.3568,-1.3779,-1.3955,-1.4088,-1.4088,-1.3995,-1.3806,-1.3806,-1.364,-1.342,-1.3367,-1.33,-1.3206,-1.3079,-1.2959,-1.2991,-1.2792,-1.2712,-1.2719,-1.2726,-1.2719,-1.2719,-1.2719,-1.2712,-1.2726,-1.2879,-1.3037,-1.316,-1.3734,-1.4247,-1.463,-1.4978,-1.5412,-1.5972,-1.579,-1.595,-1.6345,-1.6337,-1.6315,-1.6351,-1.6928,-1.7595,-1.8281,-1.8814,-1.9476,-2.0234,-2.0488,-2.0615,-2.0615,-2.0615,-2.0615,-2.0615,-2.0752,-2.0869,-2.0879,-2.0879,-2.0781,-2.0635,-2.0615,-2.0615,-2.0625,-2.1143,-2.1631,-2.1865,-2.2627,-2.3096,-2.3227,-2.3355,-2.3369,-2.313,-2.3101,-2.3101,-2.3101,-2.3101,-2.3101,-2.3101,-2.3101,-2.3101,-2.3101,-2.3101,-2.3101,-2.3101,-2.3101,-2.3101,-2.3101,-2.3101,-2.3101,-2.3101,-2.3101,-2.3101,-2.3135,-2.3484,-2.3754,-2.3841,-2.4562,-2.5115,-2.52,-2.5968,-2.6592,-2.7033,-2.7505,-2.8042,-2.8538,-2.8961,-2.9287,-0.7635,-0.7944,-0.842,-0.903,-0.9772,-1.0809,-1.1434,-1.1824,-1.2275,-1.2711,-1.3094,-1.3439,-1.373,-1.3898,-1.3921,-1.3761,-1.3527,-1.3507,-1.3387,-1.312,-1.3106,-1.3073,-1.2986,-1.279,-1.2677,-1.2656,-1.2405,-1.2305,-1.2305,-1.2305,-1.2305,-1.2305,-1.2305,-1.2305,-1.2305,-1.2569,-1.2759,-1.2931,-1.3334,-1.3726,-1.4154,-1.4688,-1.5149,-1.539,-1.5375,-1.5495,-1.5788,-1.5781,-1.5832,-1.6035,-1.6448,-1.7143,-1.8192,-1.8628,-1.9315,-2.0265,-2.0556,-2.0615,-2.0615,-2.0615,-2.0615,-2.0615,-2.0615,-2.0615,-2.0615,-2.0615,-2.0615,-2.0615,-2.0615,-2.0615,-2.0644,-2.0869,-2.123,-2.1603,-2.1973,-2.2324,-2.2709,-2.2803,-2.292,-2.2925,-2.2955,-2.2974,-2.3071,-2.3101,-2.3101,-2.3101,-2.3101,-2.3101,-2.3101,-2.3101,-2.3101,-2.3101,-2.3101,-2.3101,-2.3101,-2.3101,-2.3101,-2.3101,-2.3101,-2.3101,-2.3178,-2.3493,-2.3754,-2.3884,-2.4562,-2.5115,-2.5285,-2.5968,-2.6663,-2.7103,-2.7574,-2.8122,-2.8736,-2.9118,-2.947,-0.7635,-0.794,-0.8372,-0.9117,-0.9975,-1.0712,-1.1027,-1.1157,-1.16,-1.1887,-1.2221,-1.2949,-1.3352,-1.3361,-1.3306,-1.3253,-1.3207,-1.3214,-1.3086,-1.2851,-1.2824,-1.269,-1.2432,-1.2365,-1.2345,-1.2351,-1.2318,-1.2305,-1.2305,-1.2305,-1.2305,-1.2305,-1.2305,-1.2305,-1.2311,-1.2331,-1.2351,-1.2375,-1.2594,-1.3124,-1.4004,-1.4434,-1.4618,-1.4527,-1.4792,-1.4948,-1.508,-1.5352,-1.5611,-1.5858,-1.6491,-1.709,-1.7605,-1.8611,-1.9411,-1.9782,-2.0275,-2.0615,-2.0615,-2.0615,-2.0615,-2.0615,-2.0615,-2.0615,-2.0615,-2.0615,-2.0615,-2.0615,-2.0615,-2.0615,-2.0615,-2.0674,-2.0752,-2.084,-2.1143,-2.1327,-2.1483,-2.1768,-2.2148,-2.2539,-2.2568,-2.2662,-2.2964,-2.3071,-2.3101,-2.3101,-2.3101,-2.3101,-2.3101,-2.3101,-2.3101,-2.3101,-2.3101,-2.3101,-2.3101,-2.3101,-2.3101,-2.3101,-2.3101,-2.3101,-2.3188,-2.3493,-2.3797,-2.3884,-2.4562,-2.5158,-2.5411,-2.5957,-2.6674,-2.7092,-2.7539,-2.8115,-2.8843,-2.9137,-2.9333,-0.7415,-0.7672,-0.7918,-0.8542,-0.9424,-0.9876,-1.0326,-1.083,-1.1024,-1.13,-1.1599,-1.1918,-1.2344,-1.2891,-1.2855,-1.2837,-1.2784,-1.2758,-1.2671,-1.2498,-1.2522,-1.2412,-1.2318,-1.2305,-1.2305,-1.2305,-1.2305,-1.2305,-1.2305,-1.2305,-1.2305,-1.2305,-1.2305,-1.2305,-1.2305,-1.2305,-1.2305,-1.2298,-1.2489,-1.2852,-1.3335,-1.3756,-1.4027,-1.4225,-1.4469,-1.4713,-1.49,-1.5177,-1.5426,-1.5611,-1.6147,-1.6714,-1.7342,-1.8062,-1.8664,-1.9254,-1.9876,-2.0293,-2.0595,-2.0615,-2.0615,-2.0615,-2.0615,-2.0615,-2.0615,-2.0615,-2.0615,-2.0615,-2.0615,-2.0615,-2.0615,-2.0615,-2.0615,-2.0635,-2.0781,-2.0937,-2.1181,-2.1356,-2.167,-2.206,-2.2139,-2.2295,-2.2705,-2.2945,-2.3071,-2.3101,-2.3101,-2.3101,-2.3101,-2.3101,-2.3101,-2.3101,-2.3101,-2.3101,-2.3101,-2.3101,-2.3101,-2.3101,-2.3101,-2.3101,-2.3188,-2.3493,-2.3797,-2.3797,-2.4605,-2.5158,-2.52,-2.5957,-2.6715,-2.7035,-2.7413,-2.7891,-2.8131,-2.8323,-2.8512,-0.7189,-0.74,-0.7626,-0.818,-0.8841,-0.925,-0.9705,-1.022,-1.0386,-1.0623,-1.0903,-1.0884,-1.1251,-1.1965,-1.218,-1.2286,-1.2297,-1.2297,-1.2224,-1.2127,-1.2157,-1.2114,-1.2157,-1.2157,-1.215,-1.215,-1.2194,-1.2224,-1.2305,-1.2305,-1.2305,-1.2305,-1.2305,-1.2305,-1.2305,-1.2305,-1.2305,-1.2342,-1.2445,-1.2606,-1.2833,-1.3156,-1.3557,-1.3992,-1.4253,-1.4533,-1.4756,-1.4999,-1.5204,-1.539,-1.578,-1.6325,-1.6991,-1.7467,-1.8103,-1.8949,-1.9576,-2.0039,-2.0371,-2.0537,-2.0615,-2.0615,-2.0615,-2.0615,-2.0615,-2.0615,-2.0615,-2.0615,-2.0615,-2.0615,-2.0615,-2.0615,-2.0615,-2.0615,-2.0615,-2.0723,-2.0986,-2.1055,-2.1221,-2.1621,-2.1699,-2.1865,-2.2285,-2.2676,-2.2896,-2.2896,-2.3013,-2.3101,-2.3101,-2.3101,-2.3101,-2.3101,-2.3101,-2.3101,-2.3101,-2.3101,-2.3101,-2.3101,-2.3101,-2.3101,-2.3144,-2.3493,-2.3894,-2.4024,-2.4733,-2.5125,-2.5227,-2.587,-2.6481,-2.6749,-2.7078,-2.743,-2.7554,-2.7631,-2.7705,-0.6975,-0.7183,-0.7785,-0.8185,-0.8472,-0.9068,-0.9249,-0.9192,-0.9587,-0.9865,-1.0003,-1.0003,-1.0208,-1.0695,-1.1202,-1.1558,-1.1732,-1.1745,-1.1745,-1.175,-1.1737,-1.1744,-1.1744,-1.1744,-1.1744,-1.1781,-1.1929,-1.2077,-1.2268,-1.2305,-1.2305,-1.2305,-1.2305,-1.2305,-1.2305,-1.2305,-1.2305,-1.2305,-1.2342,-1.2415,-1.2599,-1.2826,-1.3193,-1.3746,-1.4181,-1.4397,-1.4461,-1.4721,-1.5007,-1.5204,-1.5611,-1.5982,-1.6378,-1.7107,-1.794,-1.8883,-1.9537,-1.9855,-1.998,-2.0303,-2.0576,-2.0586,-2.0595,-2.0615,-2.0615,-2.0615,-2.0615,-2.0615,-2.0615,-2.0615,-2.0615,-2.0615,-2.0615,-2.0615,-2.0615,-2.0635,-2.0654,-2.0713,-2.081,-2.1122,-2.1259,-2.1453,-2.1865,-2.2275,-2.25,-2.2607,-2.2818,-2.3023,-2.2964,-2.3013,-2.3003,-2.2994,-2.3003,-2.3081,-2.3071,-2.3091,-2.3091,-2.3071,-2.3052,-2.3086,-2.3256,-2.345,-2.3767,-2.4125,-2.4598,-2.4922,-2.515,-2.5491,-2.5944,-2.6267,-2.6594,-2.6851,-2.6858,-2.7287,-2.7323,-0.6819,-0.6968,-0.7321,-0.7585,-0.788,-0.8234,-0.8537,-0.8822,-0.901,-0.9234,-0.9478,-0.9506,-0.9657,-0.9916,-1.0293,-1.07,-1.1111,-1.1111,-1.1186,-1.1298,-1.1446,-1.1521,-1.1521,-1.1626,-1.1706,-1.1706,-1.1781,-1.1855,-1.1929,-1.204,-1.2114,-1.2114,-1.2224,-1.2305,-1.2305,-1.2305,-1.2305,-1.2305,-1.2305,-1.2409,-1.2569,-1.2673,-1.2936,-1.3419,-1.3826,-1.4152,-1.4389,-1.4613,-1.4848,-1.5196,-1.5461,-1.5823,-1.6281,-1.6958,-1.7682,-1.849,-1.8827,-1.9083,-1.9475,-1.9912,-2.0146,-2.0176,-2.0458,-2.0605,-2.0615,-2.0615,-2.0615,-2.0615,-2.0615,-2.0615,-2.0615,-2.0615,-2.0615,-2.0615,-2.0615,-2.0615,-2.0615,-2.0615,-2.0674,-2.082,-2.1035,-2.1278,-2.1484,-2.1846,-2.21,-2.2129,-2.2256,-2.2353,-2.2344,-2.2344,-2.2393,-2.2344,-2.2334,-2.2334,-2.2334,-2.2852,-2.3071,-2.2994,-2.2978,-2.2869,-2.2906,-2.2891,-2.3138,-2.3587,-2.4136,-2.4514,-2.4709,-2.5228,-2.5643,-2.5774,-2.6085,-2.6249,-2.6166,-2.6541,-2.6562,-0.6538,-0.6731,-0.6878,-0.7129,-0.7411,-0.7607,-0.7987,-0.8403,-0.8479,-0.8746,-0.9056,-0.9127,-0.9241,-0.9473,-0.9657,-0.9922,-1.0325,-1.0588,-1.0775,-1.0931,-1.1037,-1.1143,-1.1223,-1.1335,-1.1446,-1.1521,-1.1595,-1.1632,-1.1706,-1.1818,-1.1892,-1.1929,-1.212,-1.2187,-1.2231,-1.2268,-1.2305,-1.2305,-1.2305,-1.2378,-1.2489,-1.2569,-1.2709,-1.301,-1.339,-1.3783,-1.4181,-1.4433,-1.4677,-1.4991,-1.524,-1.5674,-1.6272,-1.6795,-1.7366,-1.7929,-1.8277,-1.8576,-1.8974,-1.9446,-1.9766,-1.9912,-2.0176,-2.0439,-2.0576,-2.0615,-2.0615,-2.0615,-2.0615,-2.0615,-2.0615,-2.0615,-2.0615,-2.0615,-2.0615,-2.0615,-2.0615,-2.0615,-2.0615,-2.0664,-2.082,-2.0996,-2.1074,-2.1416,-2.1621,-2.168,-2.1777,-2.1885,-2.1936,-2.1936,-2.1936,-2.1936,-2.1943,-2.1973,-2.2002,-2.2373,-2.2549,-2.251,-2.2519,-2.2457,-2.253,-2.2469,-2.2646,-2.3102,-2.3524,-2.391,-2.4403,-2.4955,-2.5209,-2.5267,-2.549,-2.5733,-2.5707,-2.575,-2.5903,-0.6183,-0.6535,-0.6602,-0.6845,-0.718,-0.7373,-0.7599,-0.7834,-0.8025,-0.8327,-0.8665,-0.8699,-0.8894,-0.917,-0.9246,-0.9322,-0.9468,-1.0067,-1.04,-1.0481,-1.0513,-1.0625,-1.0775,-1.085,-1.0938,-1.1112,-1.1279,-1.1452,-1.1556,-1.1581,-1.1624,-1.1699,-1.1808,-1.1892,-1.1977,-1.2095,-1.2251,-1.2225,-1.2204,-1.2231,-1.2321,-1.2414,-1.2524,-1.2638,-1.2974,-1.3353,-1.3783,-1.4181,-1.4461,-1.4641,-1.4991,-1.5524,-1.6167,-1.6656,-1.7012,-1.7338,-1.7919,-1.8341,-1.8453,-1.8945,-1.9453,-1.9697,-1.9883,-2.0078,-2.0439,-2.0537,-2.0556,-2.0605,-2.0615,-2.0615,-2.0615,-2.0615,-2.0615,-2.0615,-2.0615,-2.0615,-2.0615,-2.0615,-2.0615,-2.0615,-2.0674,-2.0625,-2.0703,-2.0967,-2.1211,-2.1289,-2.1494,-2.1699,-2.166,-2.166,-2.1848,-2.1838,-2.1701,-2.1593,-2.175,-2.1916,-2.1865,-2.1855,-2.1904,-2.1916,-2.2155,-2.221,-2.2461,-2.2879,-2.337,-2.3746,-2.4061,-2.4547,-2.4846,-2.4954,-2.5135,-2.5361,-2.5443,-2.5535,-2.5606,-0.598,-0.6135,-0.6486,-0.6679,-0.6795,-0.6984,-0.7253,-0.7599,-0.7676,-0.791,-0.825,-0.8289,-0.8365,-0.8522,-0.8746,-0.8894,-0.8937,-0.9425,-0.9728,-0.9868,-1.0019,-1.0169,-1.0351,-1.0501,-1.0607,-1.0651,-1.0846,-1.0851,-1.0788,-1.0906,-1.0929,-1.0964,-1.1147,-1.1317,-1.1449,-1.1528,-1.1598,-1.1668,-1.1697,-1.1662,-1.1662,-1.1739,-1.1945,-1.2307,-1.2442,-1.2784,-1.3361,-1.3783,-1.4181,-1.4561,-1.4713,-1.5141,-1.5859,-1.6412,-1.6751,-1.7012,-1.747,-1.7833,-1.7975,-1.8453,-1.8861,-1.9036,-1.9316,-1.9678,-2.0039,-2.0117,-2.0244,-2.0527,-2.0605,-2.0615,-2.0615,-2.0615,-2.0615,-2.0615,-2.0615,-2.0615,-2.0615,-2.0615,-2.0615,-2.0615,-2.0615,-2.0615,-2.0625,-2.0762,-2.081,-2.082,-2.0987,-2.1065,-2.1045,-2.1114,-2.1016,-2.1016,-2.1016,-2.1143,-2.1231,-2.129,-2.128,-2.1349,-2.1377,-2.1557,-2.1749,-2.187,-2.2164,-2.2649,-2.317,-2.3552,-2.3806,-2.4152,-2.4464,-2.4742,-2.5028,-2.5182,-2.5288,-2.5382,-2.55,-0.5709,-0.5828,-0.6099,-0.6335,-0.6486,-0.6641,-0.6907,-0.7249,-0.7288,-0.7484,-0.7834,-0.7872,-0.7987,-0.8089,-0.8288,-0.836,-0.8388,-0.8594,-0.8778,-0.9126,-0.9548,-0.975,-0.9895,-1.0129,-1.0248,-1.0289,-1.0438,-1.0425,-1.0304,-1.0431,-1.0506,-1.0547,-1.0673,-1.0858,-1.099,-1.1058,-1.1155,-1.1292,-1.1333,-1.1327,-1.1395,-1.143,-1.1551,-1.1858,-1.1955,-1.2227,-1.2657,-1.3034,-1.3572,-1.4191,-1.4461,-1.5007,-1.5726,-1.6132,-1.6447,-1.6795,-1.7081,-1.7401,-1.7608,-1.8,-1.8381,-1.8572,-1.8861,-1.9228,-1.957,-1.9687,-1.9834,-2.0029,-2.0263,-2.0361,-2.0332,-2.0537,-2.0595,-2.0615,-2.0615,-2.0615,-2.0615,-2.0615,-2.0615,-2.0615,-2.0615,-2.0615,-2.0615,-2.0615,-2.0615,-2.0615,-2.0615,-2.0615,-2.0615,-2.0635,-2.0615,-2.0615,-2.0703,-2.0752,-2.0664,-2.0664,-2.0654,-2.0772,-2.0909,-2.1174,-2.144,-2.1439,-2.1639,-2.237,-2.2929,-2.3263,-2.3557,-2.3977,-2.4345,-2.4598,-2.4849,-2.5087,-2.5206,-2.5347,-2.5418,-0.5401,-0.5562,-0.5601,-0.587,-0.6222,-0.6261,-0.6486,-0.6788,-0.6865,-0.7046,-0.7345,-0.7405,-0.7588,-0.7862,-0.774,-0.7712,-0.7722,-0.7721,-0.7847,-0.8222,-0.8749,-0.9175,-0.9379,-0.9656,-0.9833,-0.9974,-1.0037,-1.0112,-1.0125,-1.0166,-1.025,-1.0252,-1.0377,-1.0542,-1.0548,-1.0748,-1.0874,-1.1025,-1.1091,-1.1153,-1.1289,-1.1336,-1.1369,-1.1396,-1.1574,-1.171,-1.1888,-1.2259,-1.2842,-1.3691,-1.4255,-1.4871,-1.5532,-1.577,-1.6079,-1.6508,-1.676,-1.7081,-1.7392,-1.7661,-1.7933,-1.8391,-1.8504,-1.8744,-1.916,-1.9248,-1.9307,-1.9434,-1.9697,-1.9883,-1.9951,-2.0234,-2.0507,-2.0605,-2.0615,-2.0615,-2.0615,-2.0615,-2.0615,-2.0615,-2.0615,-2.0615,-2.0615,-2.0615,-2.0615,-2.0615,-2.0615,-2.0615,-2.0615,-2.0615,-2.0615,-2.0615,-2.0615,-2.0615,-2.0615,-2.0615,-2.0615,-2.0635,-2.0713,-2.0966,-2.1297,-2.1332,-2.1474,-2.2138,-2.2665,-2.2964,-2.3298,-2.3714,-2.408,-2.4345,-2.4622,-2.4933,-2.5111,-2.5218,-2.5276,-0.5323,-0.5401,-0.5559,-0.5676,-0.5754,-0.5792,-0.5944,-0.617,-0.6409,-0.6527,-0.6633,-0.6761,-0.6849,-0.6835,-0.6969,-0.6977,-0.7033,-0.7246,-0.7289,-0.7363,-0.7727,-0.8429,-0.898,-0.9311,-0.9386,-0.9383,-0.9491,-0.9594,-0.9557,-0.9619,-0.9646,-0.9721,-0.979,-0.9909,-1.0015,-1.0079,-1.0178,-1.0302,-1.0471,-1.0581,-1.0653,-1.0783,-1.0902,-1.1096,-1.1176,-1.1343,-1.1669,-1.2085,-1.264,-1.3371,-1.3987,-1.4457,-1.489,-1.5444,-1.5798,-1.6044,-1.6551,-1.6943,-1.7081,-1.7358,-1.7665,-1.7885,-1.7996,-1.8201,-1.8724,-1.8773,-1.8965,-1.9189,-1.9414,-1.9453,-1.9521,-1.9834,-2.0176,-2.0556,-2.0527,-2.0556,-2.0605,-2.0615,-2.0615,-2.0615,-2.0615,-2.0615,-2.0615,-2.0615,-2.0615,-2.0615,-2.0615,-2.0615,-2.0615,-2.0615,-2.0615,-2.0615,-2.0615,-2.0615,-2.0615,-2.0615,-2.0615,-2.0615,-2.0673,-2.0839,-2.1245,-2.1571,-2.1769,-2.2176,-2.2478,-2.2777,-2.3001,-2.3346,-2.3677,-2.4018,-2.4261,-2.455,-2.4838,-2.4981,-2.5123,-0.5049,-0.5087,-0.5246,-0.5404,-0.5482,-0.5482,-0.5565,-0.5746,-0.5892,-0.6002,-0.6029,-0.6122,-0.6182,-0.6197,-0.6306,-0.6374,-0.6405,-0.658,-0.6698,-0.6726,-0.7008,-0.7639,-0.8307,-0.8643,-0.8772,-0.8865,-0.8975,-0.9094,-0.918,-0.9177,-0.928,-0.9394,-0.9408,-0.951,-0.9701,-0.967,-0.9772,-0.99,-1.0053,-1.0149,-1.0308,-1.0403,-1.0603,-1.0788,-1.0841,-1.1007,-1.1306,-1.1558,-1.2062,-1.2865,-1.3405,-1.3791,-1.418,-1.4749,-1.5278,-1.5531,-1.6114,-1.6534,-1.6864,-1.7116,-1.7358,-1.7588,-1.7647,-1.7856,-1.8162,-1.83,-1.849,-1.8682,-1.8896,-1.8994,-1.9092,-1.9394,-1.9736,-1.9932,-2.0067,-2.0214,-2.0527,-2.0615,-2.0615,-2.0605,-2.0615,-2.0605,-2.0605,-2.0605,-2.0605,-2.0615,-2.0615,-2.0615,-2.0615,-2.0615,-2.0615,-2.0615,-2.0595,-2.0595,-2.0556,-2.0546,-2.0468,-2.0478,-2.0583,-2.0728,-2.1064,-2.1542,-2.1811,-2.2027,-2.2295,-2.2472,-2.2669,-2.2892,-2.3309,-2.3641,-2.3861,-2.4118,-2.4373,-2.4483,-2.4649,-0.4662,-0.4701,-0.4888,-0.5074,-0.5217,-0.5244,-0.5278,-0.5392,-0.5451,-0.5488,-0.5522,-0.5535,-0.5652,-0.5788,-0.5741,-0.5799,-0.5792,-0.5892,-0.6033,-0.6238,-0.6535,-0.7019,-0.7536,-0.7908,-0.8184,-0.8386,-0.842,-0.8646,-0.8861,-0.8952,-0.9081,-0.921,-0.9274,-0.9312,-0.9414,-0.9446,-0.958,-0.9708,-0.9836,-0.9958,-1.0149,-1.0244,-1.0391,-1.0563,-1.064,-1.0672,-1.0812,-1.0914,-1.1346,-1.2368,-1.2628,-1.3016,-1.3506,-1.3934,-1.4388,-1.5002,-1.5411,-1.5974,-1.6575,-1.6686,-1.7001,-1.7329,-1.7545,-1.7672,-1.7798,-1.7939,-1.8037,-1.8164,-1.8334,-1.8539,-1.8705,-1.9023,-1.9258,-1.9404,-1.9375,-1.9725,-2.0233,-2.0468,-2.0468,-2.0468,-2.0458,-2.0478,-2.0537,-2.0546,-2.0546,-2.0605,-2.0615,-2.0615,-2.0615,-2.0615,-2.0615,-2.0615,-2.0595,-2.0566,-2.0527,-2.0478,-2.037,-2.0292,-2.0422,-2.0591,-2.0783,-2.1172,-2.1549,-2.1795,-2.1681,-2.1808,-2.2088,-2.2442,-2.2798,-2.2988,-2.3055,-2.3464,-2.3853,-2.379,-2.3897,-0.4543,-0.4691,-0.4642,-0.4717,-0.4892,-0.4845,-0.4865,-0.4913,-0.5058,-0.506,-0.4956,-0.5107,-0.5152,-0.5058,-0.5069,-0.5041,-0.5155,-0.5376,-0.566,-0.5987,-0.6181,-0.6416,-0.6815,-0.7269,-0.7689,-0.7894,-0.8057,-0.8279,-0.8506,-0.8608,-0.877,-0.9017,-0.9049,-0.9081,-0.9151,-0.9274,-0.937,-0.944,-0.9664,-0.9798,-0.9926,-1.0021,-1.0174,-1.0364,-1.0498,-1.0586,-1.0649,-1.0744,-1.0939,-1.1276,-1.1851,-1.2439,-1.2925,-1.3431,-1.3796,-1.4096,-1.4622,-1.5153,-1.5624,-1.6052,-1.6485,-1.6973,-1.7189,-1.7398,-1.7672,-1.7716,-1.7818,-1.794,-1.8071,-1.8266,-1.851,-1.8666,-1.8896,-1.9092,-1.9199,-1.9287,-1.9512,-1.958,-1.9676,-1.9666,-1.9676,-1.9697,-2.0,-2.0049,-2.0185,-2.0498,-2.0576,-2.0586,-2.0546,-2.0488,-2.0429,-2.0331,-2.0331,-2.0243,-2.0136,-2.0049,-2.0018,-1.9997,-2.0163,-2.0152,-2.034,-2.0632,-2.0968,-2.099,-2.087,-2.1134,-2.1511,-2.1574,-2.1883,-2.2021,-2.2223,-2.2557,-2.2836,-2.2946,-2.3155,-0.4049,-0.4157,-0.4254,-0.4414,-0.4588,-0.4569,-0.4582,-0.461,-0.4708,-0.4679,-0.4546,-0.4662,-0.4659,-0.4567,-0.4664,-0.4694,-0.4794,-0.5093,-0.5392,-0.5653,-0.5851,-0.6017,-0.6218,-0.6642,-0.7068,-0.74,-0.7661,-0.7922,-0.809,-0.8252,-0.8447,-0.8732,-0.8765,-0.8861,-0.899,-0.9113,-0.921,-0.9338,-0.9472,-0.9638,-0.9766,-0.9862,-0.9989,-1.0174,-1.0339,-1.0466,-1.046,-1.0624,-1.0713,-1.0911,-1.1252,-1.1721,-1.2235,-1.2704,-1.3076,-1.3411,-1.3851,-1.447,-1.4948,-1.5318,-1.576,-1.646,-1.6683,-1.7033,-1.7341,-1.7545,-1.7681,-1.7784,-1.7881,-1.8003,-1.8276,-1.8305,-1.8471,-1.8603,-1.8701,-1.8691,-1.875,-1.9023,-1.9277,-1.9277,-1.9336,-1.9424,-1.9551,-1.9609,-1.9668,-1.9911,-1.9873,-1.9883,-1.9844,-1.9795,-1.9834,-1.9814,-1.9901,-1.9852,-1.9678,-1.96,-1.9597,-1.9595,-1.9713,-1.9614,-1.9573,-1.994,-2.0309,-2.0312,-2.0367,-2.063,-2.0965,-2.0974,-2.1051,-2.1366,-2.1585,-2.1719,-2.1882,-2.2179,-2.2409,-0.3417,-0.3453,-0.384,-0.4121,-0.426,-0.4308,-0.4318,-0.4418,-0.4444,-0.4398,-0.4319,-0.4303,-0.4378,-0.4367,-0.4464,-0.4558,-0.4658,-0.4858,-0.5126,-0.5292,-0.5455,-0.5653,-0.5855,-0.6115,-0.6445,-0.6975,-0.7232,-0.7461,-0.7661,-0.7824,-0.8052,-0.8317,-0.8414,-0.8538,-0.8797,-0.8926,-0.899,-0.9151,-0.9242,-0.9408,-0.9632,-0.9702,-0.9798,-0.9989,-1.0149,-1.0244,-1.0301,-1.0428,-1.0586,-1.0713,-1.0776,-1.1052,-1.1469,-1.1946,-1.2381,-1.2861,-1.3243,-1.3737,-1.4228,-1.4581,-1.5022,-1.5842,-1.6036,-1.6419,-1.689,-1.7182,-1.7391,-1.7594,-1.7725,-1.7828,-1.7983,-1.8066,-1.8047,-1.8066,-1.8037,-1.8008,-1.8135,-1.8682,-1.8926,-1.9004,-1.8887,-1.8916,-1.9082,-1.9189,-1.9228,-1.9294,-1.9248,-1.9248,-1.9238,-1.9277,-1.9394,-1.9482,-1.9561,-1.9414,-1.9248,-1.8975,-1.8955,-1.9076,-1.9193,-1.9106,-1.8939,-1.9203,-1.9594,-1.9877,-2.0013,-2.0226,-2.0275,-2.0267,-2.0437,-2.0729,-2.0839,-2.0831,-2.1088,-2.1399,-2.1605,-0.2949,-0.309,-0.3382,-0.3626,-0.3786,-0.3883,-0.3946,-0.4056,-0.4064,-0.4152,-0.427,-0.4303,-0.4267,-0.43,-0.4334,-0.4431,-0.4558,-0.4728,-0.4791,-0.496,-0.509,-0.5289,-0.5491,-0.5653,-0.5885,-0.6185,-0.6576,-0.6933,-0.7265,-0.7493,-0.7657,-0.7824,-0.8019,-0.8214,-0.8339,-0.8501,-0.87,-0.8894,-0.899,-0.9151,-0.9344,-0.944,-0.9568,-0.9798,-0.9989,-1.0047,-1.011,-1.0238,-1.0364,-1.0403,-1.0649,-1.0807,-1.1035,-1.1476,-1.1827,-1.214,-1.2547,-1.3012,-1.346,-1.3892,-1.4375,-1.487,-1.5212,-1.5719,-1.6233,-1.6505,-1.6837,-1.7328,-1.7609,-1.7765,-1.7974,-1.7974,-1.8008,-1.8008,-1.8008,-1.8008,-1.8047,-1.8193,-1.835,-1.8408,-1.8369,-1.8389,-1.8603,-1.8779,-1.8828,-1.8896,-1.8955,-1.8975,-1.8994,-1.9062,-1.918,-1.9258,-1.9326,-1.9082,-1.8818,-1.8477,-1.8291,-1.8369,-1.8458,-1.8537,-1.8463,-1.8554,-1.8819,-1.9233,-1.9438,-1.9492,-1.9562,-1.9617,-1.9716,-1.9965,-1.9963,-1.9969,-2.023,-2.0527,-2.0442,-0.2202,-0.2305,-0.2691,-0.2983,-0.3179,-0.3309,-0.3527,-0.373,-0.3763,-0.3863,-0.3997,-0.403,-0.403,-0.4064,-0.4131,-0.4264,-0.4428,-0.4595,-0.4625,-0.4728,-0.4861,-0.4994,-0.5126,-0.5256,-0.5458,-0.5657,-0.5984,-0.6379,-0.6745,-0.7003,-0.7199,-0.7461,-0.7657,-0.7819,-0.7954,-0.8149,-0.8382,-0.8571,-0.87,-0.8888,-0.9145,-0.9242,-0.944,-0.9606,-0.9798,-0.9894,-0.9926,-1.0047,-1.0142,-1.0174,-1.0396,-1.0579,-1.0744,-1.0996,-1.1341,-1.1685,-1.2003,-1.2391,-1.2766,-1.3189,-1.3565,-1.4234,-1.4504,-1.4945,-1.5462,-1.5821,-1.625,-1.6839,-1.7191,-1.7437,-1.7789,-1.7823,-1.7896,-1.7974,-1.7978,-1.7969,-1.7988,-1.7988,-1.7959,-1.7949,-1.8076,-1.8164,-1.8223,-1.8359,-1.8437,-1.8525,-1.8633,-1.8682,-1.8721,-1.875,-1.8809,-1.8779,-1.8789,-1.8682,-1.8457,-1.8252,-1.8008,-1.8008,-1.8008,-1.8076,-1.8148,-1.8283,-1.8438,-1.8728,-1.8828,-1.8959,-1.9173,-1.9341,-1.9281,-1.9218,-1.9425,-1.96,-1.9536,-1.955,-1.966,-0.1412,-0.1479,-0.2018,-0.2321,-0.2519,-0.2755,-0.3027,-0.3295,-0.3328,-0.346,-0.3658,-0.3692,-0.3692,-0.3725,-0.3828,-0.3995,-0.4197,-0.4361,-0.4392,-0.4492,-0.4628,-0.4697,-0.4827,-0.4957,-0.5126,-0.5263,-0.5455,-0.5785,-0.6284,-0.6544,-0.6773,-0.7003,-0.7232,-0.7428,-0.7596,-0.7792,-0.809,-0.8252,-0.8441,-0.8598,-0.8926,-0.9177,-0.9338,-0.9446,-0.9638,-0.974,-0.9734,-0.9894,-0.9958,-1.0021,-1.0142,-1.0333,-1.0523,-1.0681,-1.0965,-1.1373,-1.1622,-1.1996,-1.2321,-1.2645,-1.3006,-1.3557,-1.3794,-1.4227,-1.476,-1.5278,-1.5724,-1.6309,-1.6557,-1.6807,-1.7183,-1.7374,-1.7408,-1.7508,-1.7575,-1.7658,-1.758,-1.7603,-1.7676,-1.7734,-1.7861,-1.7949,-1.8018,-1.8115,-1.8223,-1.8232,-1.833,-1.8301,-1.833,-1.8262,-1.8262,-1.8193,-1.8164,-1.8174,-1.8115,-1.8154,-1.8008,-1.8008,-1.8008,-1.8042,-1.8051,-1.8069,-1.8237,-1.8332,-1.8484,-1.8631,-1.8854,-1.9088,-1.9142,-1.9175,-1.9241,-1.9274,-1.9308,-1.9341,-1.944,-0.0739,-0.0941,-0.1479,-0.1715,-0.1782,-0.2118,-0.2488,-0.2753,-0.2788,-0.2989,-0.3261,-0.3259,-0.3257,-0.336,-0.3496,-0.3663,-0.3828,-0.3925,-0.4028,-0.4161,-0.4298,-0.4428,-0.4595,-0.4761,-0.4827,-0.493,-0.509,-0.5455,-0.5855,-0.6115,-0.6346,-0.6511,-0.6741,-0.6937,-0.7204,-0.7433,-0.7624,-0.7824,-0.8079,-0.8436,-0.8797,-0.9113,-0.9242,-0.9338,-0.9446,-0.9548,-0.9574,-0.9702,-0.9804,-0.983,-0.9958,-1.0142,-1.0333,-1.0491,-1.0681,-1.0965,-1.131,-1.1685,-1.1972,-1.2282,-1.2537,-1.2865,-1.3073,-1.3501,-1.4116,-1.4746,-1.5244,-1.5725,-1.5827,-1.6053,-1.6392,-1.6442,-1.6394,-1.6558,-1.6792,-1.6796,-1.679,-1.7138,-1.722,-1.733,-1.7408,-1.7633,-1.7822,-1.793,-1.8018,-1.8008,-1.8008,-1.7998,-1.8008,-1.8008,-1.7891,-1.7852,-1.7803,-1.7793,-1.7637,-1.7695,-1.7734,-1.7812,-1.7812,-1.7812,-1.7719,-1.7668,-1.7876,-1.7992,-1.8122,-1.8265,-1.8508,-1.875,-1.8982,-1.9131,-1.9175,-1.9175,-1.9131,-1.9164,-1.9253,0.0101,-0.0404,-0.0807,-0.1042,-0.121,-0.1513,-0.1816,-0.2051,-0.2218,-0.2455,-0.2691,-0.2725,-0.2859,-0.3058,-0.3192,-0.3362,-0.356,-0.3627,-0.3727,-0.3861,-0.3961,-0.4061,-0.4195,-0.4395,-0.4498,-0.4564,-0.4794,-0.499,-0.5355,-0.5679,-0.5951,-0.6112,-0.6309,-0.6511,-0.6739,-0.6961,-0.726,-0.7587,-0.7977,-0.8339,-0.8608,-0.8899,-0.9119,-0.9274,-0.9338,-0.9408,-0.951,-0.9574,-0.9612,-0.9676,-0.9798,-0.9894,-1.0015,-1.0174,-1.0364,-1.0681,-1.087,-1.1216,-1.1654,-1.2003,-1.2189,-1.2375,-1.2621,-1.3071,-1.3599,-1.4024,-1.4469,-1.4921,-1.5025,-1.5328,-1.5757,-1.5904,-1.6032,-1.6141,-1.6132,-1.6202,-1.6284,-1.6529,-1.6747,-1.6847,-1.6967,-1.7171,-1.7414,-1.7672,-1.7759,-1.7842,-1.7861,-1.7881,-1.7939,-1.8008,-1.7832,-1.7607,-1.7559,-1.751,-1.7233,-1.7106,-1.7116,-1.7165,-1.7165,-1.7155,-1.7145,-1.72,-1.7366,-1.7434,-1.7446,-1.7708,-1.8104,-1.8477,-1.8736,-1.8949,-1.9098,-1.8994,-1.8868,-1.9036,-1.9102,0.0841,0.0236,-0.0135,-0.0437,-0.0605,-0.0908,-0.1177,-0.1412,-0.1614,-0.1884,-0.2085,-0.2188,-0.2421,-0.2723,-0.279,-0.2958,-0.3295,-0.3328,-0.346,-0.3591,-0.3725,-0.3792,-0.3894,-0.4095,-0.4164,-0.4195,-0.4411,-0.4566,-0.4754,-0.5029,-0.5327,-0.569,-0.5864,-0.6036,-0.6181,-0.6414,-0.6762,-0.7421,-0.7742,-0.8072,-0.8393,-0.8608,-0.8899,-0.9087,-0.9242,-0.9338,-0.944,-0.951,-0.9516,-0.9542,-0.9638,-0.9734,-0.983,-0.9958,-1.011,-1.0364,-1.053,-1.0782,-1.1216,-1.156,-1.1809,-1.2027,-1.2305,-1.2721,-1.3058,-1.3255,-1.3527,-1.4117,-1.425,-1.4626,-1.5034,-1.5183,-1.5285,-1.5445,-1.5629,-1.5757,-1.5848,-1.5935,-1.6086,-1.6232,-1.6381,-1.6541,-1.6854,-1.7274,-1.7492,-1.7603,-1.7695,-1.7725,-1.7734,-1.7744,-1.7539,-1.7236,-1.7197,-1.7139,-1.696,-1.6755,-1.6697,-1.6629,-1.6619,-1.6687,-1.6765,-1.6738,-1.6772,-1.6817,-1.6821,-1.7105,-1.7495,-1.7995,-1.8471,-1.8405,-1.84,-1.8556,-1.864,-1.8764,-1.888,0.1344,0.0975,0.0471,0.0135,-0.0101,-0.027,-0.0539,-0.0874,-0.1076,-0.1244,-0.1479,-0.1614,-0.1918,-0.2186,-0.2321,-0.2488,-0.2787,-0.2956,-0.3113,-0.3249,-0.3426,-0.3564,-0.3685,-0.3749,-0.3829,-0.385,-0.4016,-0.41,-0.4171,-0.4339,-0.4725,-0.5093,-0.5325,-0.5435,-0.5612,-0.5925,-0.6413,-0.6957,-0.7298,-0.7638,-0.8026,-0.8345,-0.8581,-0.8816,-0.909,-0.9306,-0.9332,-0.9402,-0.9442,-0.9436,-0.945,-0.9497,-0.9592,-0.963,-0.9775,-0.9926,-1.0095,-1.0307,-1.0619,-1.1159,-1.1567,-1.1755,-1.2034,-1.2398,-1.2644,-1.2767,-1.3052,-1.34,-1.3604,-1.377,-1.3987,-1.4077,-1.4407,-1.4635,-1.4882,-1.4955,-1.5037,-1.5132,-1.5289,-1.5548,-1.5763,-1.5902,-1.6071,-1.6439,-1.6964,-1.7126,-1.7165,-1.7184,-1.7096,-1.7077,-1.6973,-1.6797,-1.6755,-1.6716,-1.6687,-1.6541,-1.6336,-1.6297,-1.6307,-1.6424,-1.6551,-1.6465,-1.6242,-1.63,-1.6371,-1.6612,-1.6773,-1.7098,-1.7333,-1.7532,-1.7697,-1.7964,-1.8079,-1.8163,-1.8309,0.1595,0.1246,0.1055,0.0718,0.0304,0.0135,-0.0067,-0.0303,-0.0539,-0.0841,-0.1174,-0.1344,-0.158,-0.1814,-0.1985,-0.2153,-0.2382,-0.2505,-0.2725,-0.2893,-0.3001,-0.3132,-0.3251,-0.3387,-0.3434,-0.3471,-0.359,-0.3667,-0.3719,-0.3844,-0.4019,-0.4382,-0.4731,-0.5027,-0.5225,-0.5551,-0.6068,-0.638,-0.6782,-0.7196,-0.7348,-0.7768,-0.8019,-0.8198,-0.8572,-0.8814,-0.8937,-0.9235,-0.9257,-0.9211,-0.9207,-0.9222,-0.9187,-0.9193,-0.9278,-0.9394,-0.9528,-0.9674,-0.9964,-1.0605,-1.1209,-1.1622,-1.184,-1.2089,-1.2282,-1.2498,-1.2683,-1.2897,-1.3072,-1.3246,-1.3459,-1.3619,-1.3804,-1.3959,-1.41,-1.421,-1.433,-1.4488,-1.4653,-1.4981,-1.5083,-1.5185,-1.5351,-1.5546,-1.6092,-1.6597,-1.6626,-1.6668,-1.658,-1.6521,-1.6424,-1.6357,-1.6328,-1.6191,-1.6143,-1.6045,-1.5957,-1.5956,-1.5995,-1.6054,-1.6112,-1.5908,-1.5732,-1.582,-1.5889,-1.5988,-1.6098,-1.6088,-1.6387,-1.6921,-1.7246,-1.7511,-1.7584,-1.7554,-1.7709,0.1943,0.1636,0.1574,0.1201,0.0656,0.0526,0.0329,0.0099,-0.0098,-0.0394,-0.0852,-0.1017,-0.1214,-0.1411,-0.154,-0.1767,-0.1949,-0.2151,-0.2327,-0.2496,-0.2625,-0.2747,-0.2866,-0.2995,-0.3107,-0.3134,-0.3196,-0.3283,-0.3339,-0.349,-0.3546,-0.3751,-0.4071,-0.4398,-0.4821,-0.5225,-0.5636,-0.5943,-0.6219,-0.6735,-0.6887,-0.722,-0.7535,-0.7724,-0.808,-0.8251,-0.8474,-0.8707,-0.8836,-0.8821,-0.8817,-0.8801,-0.8729,-0.8681,-0.8763,-0.8844,-0.8909,-0.9026,-0.9387,-1.005,-1.0861,-1.1313,-1.156,-1.1747,-1.1965,-1.2182,-1.2344,-1.2467,-1.2683,-1.2889,-1.3086,-1.3186,-1.3398,-1.3588,-1.3761,-1.3881,-1.4001,-1.416,-1.4249,-1.4411,-1.4494,-1.4602,-1.4917,-1.51,-1.5471,-1.588,-1.5922,-1.6012,-1.6063,-1.6024,-1.6015,-1.5947,-1.5869,-1.5693,-1.5508,-1.5615,-1.5713,-1.5674,-1.5684,-1.5605,-1.5566,-1.542,-1.542,-1.5566,-1.5576,-1.5449,-1.5527,-1.5713,-1.6108,-1.6578,-1.6779,-1.687,-1.6799,-1.6788,-1.7093,0.2429,0.2188,0.1967,0.1509,0.096,0.0898,0.0714,0.0406,0.0218,-0.0031,-0.0343,-0.0499,-0.0717,-0.0967,-0.1067,-0.1288,-0.1563,-0.183,-0.2036,-0.2151,-0.2314,-0.2512,-0.2661,-0.2741,-0.2839,-0.2952,-0.2964,-0.2974,-0.3026,-0.3034,-0.306,-0.3217,-0.3527,-0.3837,-0.4216,-0.457,-0.5065,-0.5592,-0.5702,-0.6164,-0.6567,-0.6802,-0.7037,-0.7288,-0.7586,-0.7741,-0.7917,-0.8228,-0.8353,-0.8297,-0.8428,-0.8434,-0.8399,-0.8497,-0.8561,-0.8608,-0.8626,-0.8766,-0.9032,-0.9787,-1.0363,-1.087,-1.1027,-1.1254,-1.1511,-1.1741,-1.1866,-1.1989,-1.2243,-1.2421,-1.2582,-1.2767,-1.3011,-1.3224,-1.3398,-1.3519,-1.3649,-1.3739,-1.3791,-1.3971,-1.4031,-1.413,-1.4488,-1.4773,-1.4969,-1.5183,-1.5215,-1.5341,-1.5536,-1.5585,-1.5604,-1.5575,-1.5536,-1.5498,-1.54,-1.54,-1.5459,-1.542,-1.542,-1.542,-1.542,-1.542,-1.542,-1.542,-1.542,-1.542,-1.542,-1.5439,-1.5802,-1.6089,-1.6067,-1.6086,-1.6024,-1.6114,-1.6495,0.2632,0.2403,0.2317,0.2026,0.1603,0.1336,0.1049,0.071,0.0463,0.0216,0.0031,-0.0123,-0.0309,-0.0525,-0.077,-0.0953,-0.1165,-0.1351,-0.1555,-0.1937,-0.2002,-0.2175,-0.2322,-0.2481,-0.2588,-0.2659,-0.2687,-0.2744,-0.2819,-0.2785,-0.2863,-0.2998,-0.3246,-0.3577,-0.3968,-0.4325,-0.4727,-0.4951,-0.5218,-0.5586,-0.5867,-0.6134,-0.6398,-0.6638,-0.6974,-0.7184,-0.7291,-0.769,-0.7823,-0.7782,-0.7937,-0.8017,-0.7942,-0.8013,-0.8072,-0.8094,-0.8122,-0.8367,-0.8639,-0.909,-0.9427,-0.9948,-1.038,-1.0573,-1.0672,-1.1113,-1.1322,-1.1525,-1.1821,-1.2035,-1.2274,-1.239,-1.2605,-1.2767,-1.295,-1.3072,-1.3194,-1.3255,-1.3338,-1.3549,-1.37,-1.3851,-1.413,-1.4359,-1.4547,-1.4754,-1.4843,-1.5029,-1.5233,-1.5233,-1.5223,-1.5233,-1.5224,-1.5264,-1.5293,-1.5284,-1.5332,-1.5332,-1.5362,-1.542,-1.542,-1.5391,-1.542,-1.542,-1.542,-1.542,-1.542,-1.542,-1.5439,-1.5556,-1.5662,-1.573,-1.5799,-1.5867,-1.6054,0.2965,0.2717,0.2659,0.2491,0.2199,0.1791,0.1405,0.1106,0.0807,0.0568,0.0448,0.0298,0.009,-0.0149,-0.0389,-0.0598,-0.0746,-0.0967,-0.1159,-0.1528,-0.1562,-0.1723,-0.1971,-0.2184,-0.2261,-0.2354,-0.2521,-0.2637,-0.2643,-0.2665,-0.2747,-0.2886,-0.3109,-0.3274,-0.3577,-0.3913,-0.427,-0.4449,-0.4764,-0.5096,-0.5298,-0.5534,-0.5836,-0.606,-0.6323,-0.6595,-0.6774,-0.7033,-0.7299,-0.7314,-0.7411,-0.7555,-0.748,-0.7542,-0.7643,-0.7729,-0.786,-0.8057,-0.8282,-0.8386,-0.8732,-0.9121,-0.9561,-0.9904,-1.0076,-1.0499,-1.071,-1.0952,-1.1323,-1.1541,-1.1722,-1.1867,-1.2081,-1.2264,-1.2528,-1.2642,-1.2836,-1.2889,-1.3011,-1.3216,-1.3334,-1.3532,-1.3708,-1.392,-1.413,-1.4309,-1.4488,-1.4667,-1.4864,-1.4911,-1.4911,-1.4941,-1.5,-1.5088,-1.5117,-1.5167,-1.5196,-1.5245,-1.5303,-1.5332,-1.5362,-1.5332,-1.5362,-1.54,-1.5381,-1.5371,-1.54,-1.541,-1.5371,-1.541,-1.5507,-1.5575,-1.5575,-1.5672,-1.5759,0.3413,0.3105,0.2963,0.2826,0.2635,0.2227,0.186,0.1576,0.1266,0.1043,0.09,0.0792,0.0568,0.0254,0.0084,-0.0057,-0.0227,-0.0508,-0.0733,-0.0902,-0.1039,-0.129,-0.1515,-0.174,-0.185,-0.2073,-0.2268,-0.241,-0.2493,-0.2607,-0.2663,-0.2735,-0.2917,-0.3013,-0.3244,-0.3506,-0.3848,-0.4073,-0.4353,-0.4656,-0.4904,-0.5152,-0.5403,-0.5608,-0.5849,-0.606,-0.6239,-0.6441,-0.6651,-0.6802,-0.7025,-0.716,-0.7284,-0.7413,-0.7542,-0.7676,-0.7788,-0.7893,-0.7937,-0.7988,-0.8069,-0.8503,-0.9095,-0.9489,-0.9728,-0.9908,-1.0121,-1.025,-1.053,-1.0791,-1.0997,-1.1241,-1.1488,-1.1791,-1.2112,-1.2312,-1.2552,-1.2652,-1.2767,-1.2864,-1.2929,-1.306,-1.3203,-1.3377,-1.3405,-1.3538,-1.3678,-1.3879,-1.4138,-1.4667,-1.4677,-1.4743,-1.4823,-1.4911,-1.4961,-1.4962,-1.5088,-1.5137,-1.5176,-1.5205,-1.5225,-1.5206,-1.5187,-1.5216,-1.5274,-1.5244,-1.502,-1.5089,-1.5303,-1.5312,-1.5332,-1.5449,-1.5517,-1.5478,-1.5546,0.3719,0.3441,0.3416,0.3246,0.2968,0.2633,0.2268,0.1875,0.168,0.1512,0.1375,0.1206,0.1017,0.0813,0.0617,0.0393,0.0225,0.0,-0.0281,-0.0449,-0.0564,-0.0815,-0.1066,-0.1318,-0.1429,-0.1625,-0.1877,-0.216,-0.2217,-0.2385,-0.2658,-0.2781,-0.2845,-0.2903,-0.3023,-0.323,-0.3493,-0.3755,-0.4005,-0.4309,-0.4553,-0.481,-0.5029,-0.5254,-0.5424,-0.5622,-0.5839,-0.611,-0.6325,-0.6433,-0.669,-0.6879,-0.6987,-0.7144,-0.73,-0.7542,-0.7676,-0.7762,-0.7783,-0.7842,-0.7928,-0.8008,-0.8469,-0.8619,-0.888,-0.9217,-0.9534,-0.9659,-0.9883,-1.0179,-1.0379,-1.0617,-1.0916,-1.1241,-1.1526,-1.173,-1.1935,-1.2118,-1.224,-1.2359,-1.2402,-1.2411,-1.256,-1.2547,-1.2582,-1.2683,-1.2834,-1.3066,-1.34,-1.3909,-1.4191,-1.4238,-1.4344,-1.4377,-1.4642,-1.4681,-1.4903,-1.5039,-1.4895,-1.4839,-1.4897,-1.4878,-1.4946,-1.4888,-1.479,-1.4604,-1.4436,-1.4621,-1.4885,-1.5088,-1.5146,-1.5283,-1.541,-1.5381,-1.54,0.4079,0.3833,0.3777,0.3604,0.3359,0.3055,0.2758,0.2463,0.2182,0.1971,0.1832,0.1741,0.1574,0.1344,0.114,0.0935,0.0761,0.0528,0.0262,0.0029,-0.0086,-0.034,-0.0592,-0.0843,-0.1009,-0.1234,-0.1491,-0.1808,-0.1994,-0.2351,-0.2663,-0.2753,-0.2819,-0.2907,-0.3023,-0.3112,-0.3223,-0.3485,-0.3732,-0.3978,-0.4196,-0.4454,-0.4722,-0.4973,-0.5116,-0.534,-0.5628,-0.5945,-0.6064,-0.623,-0.6512,-0.6624,-0.6785,-0.6923,-0.7139,-0.7354,-0.7542,-0.7595,-0.7649,-0.7756,-0.7788,-0.7848,-0.7994,-0.8133,-0.8364,-0.8674,-0.8855,-0.9003,-0.9329,-0.9597,-0.9771,-0.9988,-1.0329,-1.0704,-1.085,-1.1027,-1.1227,-1.1436,-1.1615,-1.1771,-1.1793,-1.1778,-1.1785,-1.1744,-1.1792,-1.2035,-1.2189,-1.2327,-1.264,-1.307,-1.3338,-1.345,-1.3627,-1.374,-1.4019,-1.415,-1.4134,-1.4126,-1.411,-1.41,-1.4345,-1.4431,-1.4363,-1.4256,-1.4157,-1.4048,-1.3995,-1.4216,-1.4468,-1.4612,-1.4699,-1.4775,-1.4942,-1.5244,-1.5293,0.4436,0.4224,0.4092,0.3951,0.3762,0.3477,0.3292,0.316,0.2697,0.2397,0.2287,0.2279,0.2143,0.1853,0.1641,0.1462,0.1246,0.1002,0.0781,0.0533,0.0414,0.0204,-0.0057,-0.0283,-0.0544,-0.0823,-0.1168,-0.1513,-0.1925,-0.2254,-0.2497,-0.266,-0.2845,-0.2956,-0.2984,-0.3051,-0.3161,-0.3272,-0.3492,-0.3697,-0.3876,-0.4127,-0.4418,-0.4739,-0.4974,-0.5212,-0.5551,-0.5809,-0.593,-0.6193,-0.6363,-0.6431,-0.6639,-0.6824,-0.7066,-0.7285,-0.75,-0.7615,-0.7676,-0.7786,-0.7812,-0.7831,-0.7863,-0.7979,-0.8175,-0.8344,-0.8497,-0.8577,-0.8862,-0.903,-0.9213,-0.9356,-0.9667,-0.9967,-1.02,-1.0415,-1.0653,-1.0836,-1.0937,-1.1038,-1.1088,-1.1081,-1.1072,-1.1024,-1.1028,-1.1328,-1.1415,-1.1482,-1.1724,-1.2102,-1.2432,-1.2642,-1.2893,-1.3067,-1.3105,-1.3197,-1.3118,-1.3121,-1.3241,-1.3396,-1.3635,-1.3709,-1.371,-1.3596,-1.3518,-1.3643,-1.3676,-1.3828,-1.3886,-1.4007,-1.4082,-1.4136,-1.4406,-1.4786,-1.5068,0.4798,0.4563,0.4447,0.4224,0.3978,0.3862,0.3666,0.3425,0.3263,0.2927,0.2636,0.2584,0.2506,0.233,0.205,0.1896,0.1768,0.15,0.1262,0.1071,0.0916,0.069,0.0471,0.0148,-0.0118,-0.0355,-0.0714,-0.1268,-0.1679,-0.1976,-0.2251,-0.242,-0.2677,-0.2853,-0.3,-0.3069,-0.3134,-0.3191,-0.3286,-0.3448,-0.3642,-0.373,-0.3931,-0.425,-0.4501,-0.4761,-0.5098,-0.5388,-0.5604,-0.5883,-0.6083,-0.6354,-0.668,-0.689,-0.7124,-0.7362,-0.7546,-0.7668,-0.7783,-0.7886,-0.7972,-0.8006,-0.8045,-0.8048,-0.8098,-0.8186,-0.8254,-0.8301,-0.8361,-0.8512,-0.8664,-0.8817,-0.8978,-0.9268,-0.9534,-0.9791,-1.0072,-1.0172,-1.0264,-1.0318,-1.0354,-1.0337,-1.0356,-1.0333,-1.034,-1.0359,-1.037,-1.043,-1.0571,-1.0897,-1.1516,-1.1787,-1.2217,-1.2387,-1.2348,-1.2344,-1.2321,-1.2518,-1.2698,-1.2841,-1.2941,-1.2949,-1.2941,-1.2898,-1.2901,-1.2997,-1.3077,-1.3192,-1.3275,-1.3403,-1.3587,-1.3661,-1.383,-1.4177,-1.4543,0.4925,0.4707,0.4484,0.433,0.4234,0.4157,0.3966,0.3783,0.3697,0.345,0.3085,0.2951,0.2853,0.2723,0.2501,0.2332,0.2268,0.1957,0.1784,0.1613,0.1349,0.108,0.0829,0.0552,0.0213,-0.003,-0.0559,-0.107,-0.1386,-0.1697,-0.1919,-0.2196,-0.2496,-0.2741,-0.2958,-0.3058,-0.3125,-0.3188,-0.3192,-0.3294,-0.3443,-0.3509,-0.371,-0.4001,-0.4252,-0.45,-0.4826,-0.5136,-0.5411,-0.5655,-0.5833,-0.6087,-0.6425,-0.6749,-0.6977,-0.7156,-0.7389,-0.7647,-0.7782,-0.7947,-0.8077,-0.8104,-0.8165,-0.8132,-0.8115,-0.8189,-0.8097,-0.812,-0.8094,-0.8226,-0.8333,-0.8498,-0.8591,-0.8809,-0.8903,-0.9078,-0.933,-0.9487,-0.9588,-0.9681,-0.9698,-0.9703,-0.9708,-0.97,-0.9697,-0.9724,-0.9677,-0.9825,-0.987,-0.9947,-1.0503,-1.0904,-1.1304,-1.1504,-1.1464,-1.1518,-1.1614,-1.1832,-1.2094,-1.2123,-1.214,-1.2155,-1.2149,-1.2233,-1.228,-1.2298,-1.2401,-1.2588,-1.2748,-1.2871,-1.3055,-1.3231,-1.3397,-1.3536,-1.3765,0.4936,0.4786,0.4455,0.4419,0.4568,0.4378,0.4224,0.4152,0.4067,0.3843,0.3521,0.3326,0.3164,0.3054,0.2989,0.2889,0.2676,0.2351,0.2233,0.2053,0.1816,0.1527,0.1257,0.1001,0.0565,0.0095,-0.0386,-0.068,-0.0909,-0.1285,-0.1664,-0.2016,-0.2287,-0.2555,-0.279,-0.2956,-0.2989,-0.3058,-0.3092,-0.3159,-0.3255,-0.3362,-0.3609,-0.3882,-0.4133,-0.4367,-0.4694,-0.4972,-0.5205,-0.5453,-0.5642,-0.5949,-0.6238,-0.656,-0.6792,-0.7017,-0.7267,-0.7466,-0.7593,-0.7807,-0.7932,-0.8034,-0.814,-0.819,-0.818,-0.8126,-0.8048,-0.8007,-0.7985,-0.7973,-0.8107,-0.818,-0.8267,-0.834,-0.8394,-0.8506,-0.8732,-0.8904,-0.9016,-0.9127,-0.918,-0.9173,-0.9218,-0.9211,-0.9211,-0.9237,-0.929,-0.9413,-0.9517,-0.9603,-0.9903,-1.0102,-1.0295,-1.0447,-1.0611,-1.0831,-1.0998,-1.1094,-1.1307,-1.1302,-1.1377,-1.1557,-1.1659,-1.1698,-1.1737,-1.1843,-1.1943,-1.2118,-1.2255,-1.2389,-1.2566,-1.2742,-1.2764,-1.2881,-1.2982,0.5253,0.495,0.486,0.4818,0.475,0.4572,0.4521,0.4452,0.4173,0.3973,0.3786,0.3581,0.3389,0.3155,0.3025,0.295,0.2937,0.2679,0.2522,0.2339,0.2157,0.1894,0.1585,0.123,0.0758,0.0364,0.0,-0.0233,-0.0498,-0.0936,-0.1244,-0.1378,-0.2018,-0.2253,-0.2356,-0.2555,-0.2753,-0.2855,-0.2956,-0.3023,-0.3058,-0.3192,-0.3362,-0.3531,-0.3632,-0.3863,-0.4128,-0.4364,-0.4616,-0.4953,-0.5368,-0.579,-0.6093,-0.6374,-0.663,-0.6926,-0.7185,-0.738,-0.7528,-0.7723,-0.7892,-0.8022,-0.8131,-0.8173,-0.8188,-0.82,-0.8137,-0.8098,-0.8051,-0.7969,-0.8018,-0.8015,-0.8063,-0.808,-0.8148,-0.8301,-0.8493,-0.8579,-0.8652,-0.8778,-0.889,-0.8989,-0.914,-0.9133,-0.9133,-0.9133,-0.9133,-0.9263,-0.929,-0.9316,-0.9368,-0.9472,-0.955,-0.9732,-1.004,-1.0314,-1.049,-1.052,-1.0598,-1.0794,-1.0947,-1.1099,-1.12,-1.1301,-1.1452,-1.1594,-1.1678,-1.1753,-1.1837,-1.1979,-1.2119,-1.2221,-1.2249,-1.2376,-1.2569]}]]